[[{"header":{"parameterUnit":"m.s-1","parameterCategory":1,"la1":30.6,"la2":29.2853,"lo1":-89.7004,"lo2":-87.6739,"dy":0.0162,"dx":0.0183,"nx":112,"ny":82,"refTime":"2024-06-28T12:00:00:Z","depth":0,"parameterNumber":2,"parameterNumberName":"U-component_of_WINDS"},"data":[0.0,0.0,0.0,0.0,0.0,0.0,0.0,0.0,0.0,0.0,0.0,0.0,0.0,0.0,0.0,0.0,0.0,0.0,0.0,0.0,0.0,0.0,0.0,0.0,0.0,0.0,0.0,0.0,0.0,0.0,0.0,0.0,0.0,0.0,0.0,0.0,0.0,0.0,0.0,0.0,0.0,0.0,0.0,0.0,0.0,0.0,0.0,0.0,0.0,0.0,0.0,0.0,0.0,0.0,0.0,0.0,0.0,0.0,0.0,0.0,0.0,0.0,0.0,0.0,0.0,0.0,0.0,0.0,0.0,0.0,0.0,0.0,0.0,0.0,0.0,0.0,0.0,0.0,0.0,0.0,0.0,0.0,0.0,0.0,0.0,0.0,0.0,0.0,0.0,0.0,-4.5508,-4.7021,-4.8563,-4.9509,-4.9509,-4.9505,-4.8078,-4.4707,0.0,0.0,0.0,0.0,0.0,0.0,0.0,0.0,0.0,0.0,0.0,0.0,0.0,0.0,0.0,0.0,0.0,0.0,0.0,0.0,0.0,0.0,0.0,0.0,0.0,0.0,0.0,0.0,0.0,0.0,0.0,0.0,0.0,0.0,0.0,0.0,0.0,0.0,0.0,0.0,0.0,0.0,0.0,0.0,0.0,0.0,0.0,0.0,0.0,0.0,0.0,0.0,0.0,0.0,0.0,0.0,0.0,0.0,0.0,0.0,0.0,0.0,0.0,0.0,0.0,0.0,0.0,0.0,0.0,0.0,0.0,0.0,0.0,0.0,0.0,0.0,0.0,0.0,0.0,0.0,0.0,0.0,0.0,0.0,0.0,0.0,0.0,0.0,0.0,0.0,0.0,0.0,0.0,0.0,0.0,0.0,0.0,0.0,0.0,0.0,0.0,0.0,0.0,0.0,-4.4177,-4.7642,-4.89,-4.9509,-4.9509,-4.9548,-4.8119,-4.4721,0.0,0.0,0.0,0.0,0.0,0.0,0.0,0.0,0.0,0.0,0.0,0.0,0.0,0.0,0.0,0.0,0.0,0.0,0.0,0.0,0.0,0.0,0.0,0.0,0.0,0.0,0.0,0.0,0.0,0.0,0.0,0.0,0.0,0.0,0.0,0.0,0.0,0.0,0.0,0.0,0.0,0.0,0.0,0.0,0.0,0.0,0.0,0.0,0.0,0.0,0.0,0.0,0.0,0.0,0.0,0.0,0.0,0.0,0.0,0.0,0.0,0.0,0.0,0.0,0.0,0.0,0.0,0.0,0.0,0.0,0.0,0.0,0.0,0.0,0.0,0.0,0.0,0.0,0.0,0.0,0.0,0.0,0.0,0.0,0.0,0.0,0.0,0.0,0.0,0.0,0.0,0.0,0.0,0.0,0.0,0.0,0.0,0.0,0.0,0.0,0.0,0.0,0.0,-4.399,-4.5424,-4.8237,-4.9174,-4.9582,-4.9509,-4.9623,-4.822,-4.4721,-4.4224,0.0,0.0,0.0,0.0,0.0,0.0,0.0,0.0,0.0,0.0,0.0,0.0,0.0,0.0,0.0,0.0,0.0,0.0,0.0,0.0,0.0,0.0,0.0,0.0,0.0,0.0,0.0,0.0,0.0,0.0,0.0,0.0,0.0,0.0,0.0,0.0,0.0,0.0,0.0,0.0,0.0,0.0,0.0,0.0,0.0,0.0,0.0,0.0,0.0,0.0,0.0,0.0,0.0,0.0,0.0,0.0,0.0,0.0,0.0,0.0,0.0,0.0,0.0,0.0,0.0,0.0,0.0,0.0,0.0,0.0,0.0,0.0,0.0,0.0,0.0,0.0,0.0,0.0,0.0,0.0,0.0,0.0,0.0,0.0,0.0,0.0,0.0,0.0,0.0,0.0,0.0,0.0,0.0,0.0,0.0,0.0,0.0,0.0,0.0,0.0,0.0,0.0,-4.5659,-4.6967,-4.8492,-4.9204,-4.9559,-4.9551,-4.9348,-4.7899,-4.4766,-4.3535,0.0,0.0,0.0,0.0,0.0,0.0,0.0,0.0,0.0,0.0,0.0,0.0,0.0,0.0,0.0,0.0,0.0,0.0,0.0,0.0,0.0,0.0,0.0,0.0,0.0,0.0,0.0,0.0,0.0,0.0,0.0,0.0,0.0,0.0,0.0,0.0,0.0,0.0,0.0,0.0,0.0,0.0,0.0,0.0,0.0,0.0,0.0,0.0,0.0,0.0,0.0,0.0,0.0,0.0,0.0,0.0,0.0,0.0,0.0,0.0,0.0,0.0,0.0,0.0,0.0,0.0,0.0,0.0,0.0,0.0,0.0,0.0,0.0,0.0,0.0,0.0,0.0,0.0,0.0,0.0,0.0,0.0,0.0,0.0,0.0,0.0,0.0,0.0,0.0,0.0,0.0,0.0,0.0,0.0,0.0,0.0,0.0,0.0,0.0,0.0,0.0,0.0,-4.5457,-4.7672,-4.8195,-4.878,-4.9283,-4.9648,-4.8383,-4.6771,-4.489,-4.2564,0.0,0.0,0.0,0.0,0.0,0.0,0.0,0.0,0.0,0.0,0.0,0.0,0.0,0.0,0.0,0.0,0.0,0.0,0.0,0.0,0.0,0.0,0.0,0.0,0.0,0.0,0.0,0.0,0.0,0.0,0.0,0.0,0.0,0.0,0.0,0.0,0.0,0.0,0.0,0.0,0.0,0.0,0.0,0.0,0.0,0.0,0.0,0.0,0.0,0.0,0.0,0.0,0.0,0.0,0.0,0.0,0.0,0.0,0.0,0.0,0.0,0.0,0.0,0.0,0.0,0.0,0.0,0.0,0.0,0.0,0.0,0.0,0.0,0.0,0.0,0.0,0.0,0.0,0.0,0.0,0.0,0.0,0.0,0.0,0.0,0.0,0.0,0.0,0.0,0.0,0.0,0.0,0.0,0.0,0.0,0.0,0.0,0.0,0.0,0.0,0.0,0.0,-4.4928,-4.6646,0.0,-4.8329,-4.8761,-4.899,-4.8212,-4.6798,-4.4631,0.0,0.0,0.0,0.0,0.0,0.0,0.0,0.0,0.0,0.0,0.0,0.0,0.0,0.0,0.0,0.0,0.0,0.0,0.0,0.0,0.0,0.0,0.0,0.0,0.0,0.0,0.0,0.0,0.0,0.0,0.0,0.0,0.0,0.0,0.0,0.0,0.0,0.0,0.0,0.0,0.0,0.0,0.0,0.0,0.0,0.0,0.0,0.0,0.0,0.0,0.0,0.0,0.0,0.0,0.0,0.0,0.0,0.0,0.0,0.0,0.0,0.0,0.0,0.0,0.0,0.0,0.0,0.0,0.0,0.0,0.0,0.0,0.0,0.0,0.0,0.0,0.0,0.0,0.0,0.0,0.0,0.0,0.0,0.0,0.0,0.0,0.0,0.0,0.0,0.0,0.0,0.0,0.0,0.0,0.0,0.0,0.0,0.0,0.0,0.0,0.0,0.0,-4.3254,-4.491,-4.6331,0.0,-4.7985,-4.82,-4.8181,-4.7419,-4.5935,-4.3527,0.0,0.0,0.0,0.0,0.0,0.0,0.0,0.0,0.0,0.0,0.0,0.0,0.0,0.0,0.0,0.0,0.0,0.0,0.0,0.0,0.0,0.0,0.0,0.0,0.0,0.0,0.0,0.0,0.0,0.0,0.0,0.0,0.0,0.0,0.0,0.0,0.0,0.0,0.0,0.0,0.0,0.0,0.0,0.0,0.0,0.0,0.0,0.0,0.0,0.0,0.0,0.0,0.0,0.0,0.0,0.0,0.0,0.0,0.0,0.0,0.0,0.0,0.0,0.0,0.0,0.0,0.0,0.0,0.0,0.0,0.0,0.0,0.0,0.0,0.0,0.0,0.0,0.0,0.0,0.0,0.0,0.0,0.0,0.0,0.0,0.0,0.0,0.0,0.0,0.0,0.0,0.0,0.0,0.0,0.0,0.0,0.0,0.0,0.0,0.0,0.0,0.0,-4.3322,-4.5552,-4.7147,-4.7548,-4.7704,-4.7657,-4.7313,-4.583,-4.3897,0.0,0.0,0.0,0.0,0.0,0.0,0.0,0.0,0.0,0.0,0.0,0.0,0.0,0.0,0.0,0.0,0.0,0.0,0.0,0.0,0.0,0.0,0.0,0.0,0.0,0.0,0.0,0.0,0.0,0.0,0.0,0.0,0.0,0.0,0.0,0.0,0.0,0.0,0.0,0.0,0.0,0.0,0.0,0.0,0.0,0.0,0.0,0.0,0.0,0.0,0.0,0.0,0.0,0.0,0.0,0.0,0.0,0.0,0.0,0.0,0.0,0.0,0.0,0.0,0.0,0.0,0.0,0.0,0.0,0.0,0.0,0.0,0.0,0.0,0.0,0.0,0.0,0.0,0.0,0.0,0.0,0.0,0.0,0.0,0.0,0.0,0.0,0.0,0.0,0.0,0.0,0.0,0.0,0.0,0.0,0.0,0.0,0.0,0.0,0.0,0.0,0.0,0.0,-4.3946,-4.5374,-4.6422,-4.7093,-4.7196,-4.7047,-4.6563,-4.5669,-4.398,-4.1298,0.0,0.0,0.0,0.0,0.0,0.0,0.0,0.0,0.0,0.0,0.0,0.0,0.0,0.0,0.0,0.0,0.0,0.0,0.0,0.0,0.0,0.0,0.0,0.0,0.0,0.0,0.0,0.0,0.0,0.0,0.0,0.0,0.0,0.0,0.0,0.0,0.0,0.0,0.0,0.0,0.0,0.0,0.0,0.0,0.0,0.0,0.0,0.0,0.0,0.0,0.0,0.0,0.0,0.0,0.0,0.0,0.0,0.0,0.0,0.0,0.0,0.0,0.0,0.0,0.0,0.0,0.0,0.0,0.0,0.0,0.0,0.0,0.0,0.0,0.0,0.0,0.0,0.0,0.0,0.0,0.0,0.0,0.0,0.0,0.0,0.0,0.0,0.0,0.0,0.0,0.0,0.0,0.0,0.0,0.0,0.0,0.0,0.0,0.0,0.0,0.0,0.0,-4.3793,-4.486,-4.5517,-4.5998,-4.6034,-4.5797,-4.5176,-4.4764,-4.3251,-4.0308,0.0,0.0,0.0,0.0,0.0,0.0,0.0,0.0,0.0,0.0,0.0,0.0,0.0,0.0,0.0,0.0,0.0,0.0,0.0,0.0,0.0,0.0,0.0,0.0,0.0,0.0,0.0,0.0,0.0,0.0,0.0,0.0,0.0,0.0,0.0,0.0,0.0,0.0,0.0,0.0,0.0,0.0,0.0,0.0,0.0,0.0,0.0,0.0,0.0,0.0,0.0,0.0,0.0,0.0,0.0,0.0,0.0,0.0,0.0,0.0,0.0,0.0,0.0,0.0,0.0,0.0,0.0,0.0,0.0,0.0,0.0,0.0,0.0,0.0,0.0,0.0,0.0,0.0,0.0,0.0,0.0,0.0,0.0,0.0,0.0,0.0,0.0,0.0,0.0,0.0,0.0,0.0,0.0,0.0,0.0,0.0,0.0,0.0,0.0,0.0,0.0,0.0,-4.3071,-4.4078,-4.4514,-4.4585,-4.4603,-4.43,-4.3551,-4.3497,-4.2162,-3.9004,0.0,0.0,0.0,0.0,0.0,0.0,0.0,0.0,0.0,0.0,0.0,0.0,0.0,0.0,0.0,0.0,0.0,0.0,0.0,0.0,0.0,0.0,0.0,0.0,0.0,0.0,0.0,0.0,0.0,0.0,0.0,0.0,0.0,0.0,0.0,0.0,0.0,0.0,0.0,0.0,0.0,0.0,0.0,0.0,0.0,0.0,0.0,0.0,0.0,0.0,0.0,0.0,0.0,0.0,0.0,0.0,0.0,0.0,0.0,0.0,-4.309,0.0,0.0,0.0,0.0,0.0,0.0,0.0,0.0,0.0,0.0,0.0,0.0,0.0,0.0,0.0,0.0,0.0,0.0,0.0,0.0,0.0,0.0,0.0,0.0,0.0,0.0,0.0,0.0,0.0,0.0,0.0,0.0,0.0,0.0,0.0,0.0,0.0,0.0,0.0,0.0,0.0,-4.2185,-4.3233,-4.3961,-4.4531,-4.4603,-4.43,-4.3551,-4.3497,-4.2183,-3.908,-3.8096,0.0,0.0,0.0,0.0,0.0,0.0,0.0,0.0,0.0,0.0,0.0,0.0,0.0,0.0,0.0,0.0,0.0,0.0,0.0,0.0,0.0,0.0,0.0,0.0,0.0,0.0,0.0,0.0,0.0,0.0,0.0,0.0,0.0,0.0,0.0,0.0,0.0,0.0,0.0,0.0,0.0,0.0,0.0,0.0,0.0,0.0,0.0,0.0,0.0,0.0,0.0,0.0,0.0,0.0,0.0,0.0,0.0,0.0,0.0,0.0,-4.4512,0.0,0.0,0.0,0.0,0.0,0.0,0.0,0.0,0.0,0.0,0.0,0.0,0.0,0.0,0.0,0.0,0.0,0.0,0.0,0.0,0.0,0.0,0.0,0.0,0.0,0.0,0.0,0.0,0.0,0.0,0.0,0.0,0.0,0.0,0.0,0.0,0.0,0.0,0.0,0.0,-4.1552,-4.2491,-4.3072,-4.3447,-4.35,-4.334,-4.2965,-4.2912,-4.2076,-4.0079,-3.8864,0.0,0.0,0.0,0.0,0.0,0.0,0.0,0.0,0.0,0.0,0.0,0.0,0.0,0.0,0.0,0.0,0.0,0.0,0.0,0.0,0.0,0.0,0.0,0.0,0.0,0.0,0.0,0.0,0.0,0.0,0.0,0.0,0.0,0.0,0.0,0.0,0.0,0.0,0.0,0.0,0.0,0.0,0.0,0.0,0.0,0.0,0.0,0.0,0.0,0.0,0.0,0.0,0.0,-4.4356,-4.4593,-4.5172,-4.549,-4.5927,-4.6401,-4.5836,-4.5915,-4.6359,0.0,0.0,0.0,0.0,0.0,0.0,0.0,0.0,0.0,0.0,0.0,0.0,0.0,0.0,0.0,0.0,0.0,0.0,0.0,0.0,0.0,0.0,0.0,0.0,0.0,-4.3824,-4.3388,0.0,0.0,0.0,0.0,0.0,0.0,0.0,0.0,0.0,0.0,0.0,0.0,-4.0951,-4.1817,-4.2308,-4.2308,-4.2308,-4.2308,-4.2308,-4.2308,-4.1948,-4.1145,-3.9829,-3.8401,0.0,0.0,0.0,0.0,0.0,0.0,0.0,0.0,0.0,0.0,0.0,0.0,0.0,0.0,0.0,0.0,0.0,0.0,0.0,0.0,0.0,0.0,0.0,0.0,0.0,0.0,0.0,0.0,0.0,0.0,0.0,0.0,-3.8642,-3.8129,0.0,0.0,0.0,0.0,0.0,0.0,0.0,0.0,0.0,0.0,0.0,0.0,0.0,-4.3386,-4.344,-4.4065,-4.4459,-4.4579,-4.4561,-4.4599,-4.4697,-4.5156,-4.566,-4.6176,-4.6532,0.0,-4.6486,-4.616,0.0,0.0,0.0,0.0,0.0,0.0,0.0,0.0,0.0,0.0,0.0,0.0,0.0,0.0,0.0,0.0,0.0,0.0,0.0,0.0,0.0,0.0,-4.5852,-4.5146,-4.4975,-4.4825,0.0,-4.2676,-4.0977,-4.0017,0.0,0.0,0.0,0.0,0.0,0.0,0.0,0.0,-3.9988,-4.1397,-4.2308,-4.2308,-4.2308,-4.2308,-4.2308,-4.2308,-4.1948,-4.1145,-4.0253,-3.9095,-3.7614,-3.6107,0.0,0.0,0.0,0.0,0.0,0.0,0.0,0.0,0.0,0.0,0.0,0.0,0.0,0.0,0.0,0.0,0.0,0.0,0.0,0.0,0.0,0.0,0.0,0.0,0.0,0.0,0.0,0.0,0.0,-3.8427,-3.9332,-3.9421,-4.005,-3.9857,0.0,0.0,0.0,0.0,0.0,0.0,0.0,0.0,0.0,-4.3345,-4.4215,-4.4705,-4.4705,-4.5043,-4.5128,-4.4981,-4.4981,-4.5142,-4.5442,-4.5665,-4.5875,-4.6098,-4.6358,-4.6557,-4.6701,-4.6563,-4.5888,-4.4874,0.0,0.0,0.0,0.0,0.0,-4.3208,-4.3208,-4.3425,0.0,0.0,0.0,0.0,0.0,0.0,0.0,0.0,0.0,0.0,0.0,0.0,0.0,-4.5852,-4.592,-4.5985,-4.6254,-4.4908,-4.334,0.0,-4.1803,-4.0906,-3.8995,0.0,0.0,0.0,0.0,-4.0298,-4.0635,-4.1631,-4.2308,-4.2308,-4.2308,-4.2308,-4.2308,-4.2308,-4.2144,-4.1787,-4.061,-3.963,-3.9063,-3.7077,-3.5909,0.0,0.0,0.0,0.0,0.0,0.0,0.0,0.0,0.0,0.0,0.0,0.0,0.0,0.0,0.0,0.0,0.0,0.0,0.0,0.0,0.0,0.0,0.0,0.0,0.0,0.0,0.0,0.0,-3.9113,-4.0127,-4.0845,-4.1392,-4.1005,0.0,0.0,0.0,0.0,0.0,0.0,-4.2249,-4.3124,-4.3964,-4.4766,-4.5379,-4.5694,-4.5694,-4.5526,-4.5393,-4.5247,-4.5059,-4.5241,-4.5734,-4.5734,-4.5767,-4.59,-4.6024,-4.6334,-4.6694,-4.6633,-4.6563,-4.645,-4.5852,-4.549,-4.5291,-4.5291,-4.5291,-4.5291,-4.5291,-4.5291,-4.5037,-4.3442,0.0,-4.2212,-4.0057,0.0,0.0,0.0,0.0,-4.2592,-4.3788,0.0,-4.4711,-4.5906,-4.6176,-4.6259,-4.6647,-4.5873,-4.4862,0.0,-4.359,-4.2655,-4.0807,0.0,0.0,0.0,0.0,-4.1169,-4.1244,-4.1866,-4.2308,-4.2308,-4.2308,-4.2308,-4.2308,-4.2308,-4.2308,-4.2308,-4.0985,-4.0274,-4.0389,-3.8436,-3.7255,-3.7067,0.0,0.0,0.0,0.0,0.0,0.0,0.0,0.0,0.0,0.0,0.0,0.0,0.0,0.0,0.0,0.0,0.0,0.0,0.0,0.0,0.0,0.0,0.0,0.0,0.0,0.0,0.0,0.0,0.0,-4.2319,-4.2406,0.0,0.0,0.0,0.0,-4.1643,-4.2362,-4.3064,-4.3572,-4.4607,-4.5208,-4.5272,-4.5542,-4.5715,-4.5715,-4.5052,-4.487,-4.5098,-4.4457,-4.4355,-4.4682,-4.4682,-4.4934,-4.5381,-4.5875,-4.6116,-4.6189,-4.6694,-4.6733,-4.6504,-4.6468,-4.5979,-4.5291,-4.5291,-4.5291,-4.5291,-4.5291,-4.5291,-4.5399,-4.6051,-4.5743,-4.4802,-4.3173,-4.2702,0.0,0.0,-4.281,-4.3987,-4.4077,-4.4675,-4.5254,-4.5345,-4.5265,-4.5183,-4.5199,-4.5018,-4.4775,0.0,-4.3477,-4.2268,-4.1411,0.0,-4.0962,-4.0174,-4.0765,-4.1244,-4.1129,-4.1805,-4.2308,-4.2308,-4.2308,-4.2308,-4.2308,-4.2308,-4.2308,-4.2308,-4.1502,-4.1116,-4.1233,-4.0389,-3.9263,-3.7862,-3.7824,0.0,0.0,0.0,0.0,0.0,0.0,0.0,0.0,0.0,0.0,0.0,0.0,0.0,0.0,0.0,0.0,0.0,0.0,0.0,0.0,0.0,0.0,0.0,0.0,0.0,0.0,0.0,0.0,-4.2343,-4.2802,0.0,-4.155,-4.1969,-4.2353,-4.2492,-4.3051,-4.3798,-4.4674,-4.5538,-4.6077,-4.6269,-4.6844,-4.6925,-4.6412,-4.5733,-4.5199,-4.4856,-4.4332,-4.4155,-4.4286,-4.4485,-4.4692,-4.4879,-4.5372,-4.5775,-4.6123,-4.6683,-4.6838,-4.6761,-4.6761,-4.6791,-4.6848,-4.6848,-4.6848,-4.6848,-4.6848,-4.6848,-4.6812,-4.6576,-4.5961,-4.5182,-4.4621,-4.4077,-4.3607,-4.3335,-4.3281,-4.3317,-4.3317,-4.3534,-4.3878,-4.4403,-4.4492,-4.456,-4.5003,-4.4671,-4.4227,-4.4002,-4.351,-4.2742,-4.1517,-4.1674,-4.1707,-4.0979,-4.1495,-4.1917,-4.1879,-4.2109,-4.2308,-4.2308,-4.2308,-4.2308,-4.2308,-4.1823,-4.1578,-4.1656,-4.0422,-3.9745,-3.9875,-3.9121,-3.8474,-3.7967,-3.7446,-3.631,0.0,0.0,0.0,0.0,0.0,0.0,0.0,0.0,0.0,0.0,0.0,0.0,0.0,0.0,0.0,0.0,0.0,0.0,0.0,0.0,0.0,0.0,0.0,0.0,0.0,0.0,-4.2426,-4.2706,-4.3122,-4.295,-4.1819,-4.2437,-4.2966,-4.3148,-4.3734,-4.448,-4.5408,-4.6175,-4.665,-4.6816,-4.7342,-4.7374,-4.6848,-4.5911,-4.5268,-4.4884,-4.4122,-4.3877,-4.4097,-4.4344,-4.4429,-4.444,-4.5045,-4.5355,-4.5485,-4.631,-4.6637,-4.666,-4.7039,-4.7385,-4.7717,-4.7717,-4.7717,-4.7717,-4.7717,-4.7717,-4.7627,-4.7083,-4.654,-4.6069,-4.5798,-4.5327,-4.4838,-4.4584,-4.3914,-4.3299,-4.3299,-4.31,-4.3027,-4.357,-4.3697,-4.3804,-4.4251,-4.396,-4.3538,-4.3319,-4.3215,-4.2849,-4.1797,-4.2009,-4.2167,-4.1709,-4.2027,-4.2308,-4.2308,-4.2308,-4.2308,-4.2308,-4.2308,-4.2308,-4.2308,-4.1556,-4.1237,-4.162,-3.9923,-3.9192,-3.9858,-3.887,-3.8365,-3.8469,-3.759,-3.6797,-3.6154,0.0,0.0,0.0,0.0,0.0,0.0,0.0,0.0,0.0,0.0,0.0,0.0,0.0,0.0,0.0,0.0,0.0,0.0,0.0,0.0,0.0,0.0,0.0,-4.0782,-4.1517,-4.24,-4.3439,-4.3462,-4.3312,-4.3113,-4.2976,-4.3115,-4.3686,-4.4399,-4.5095,-4.5807,-4.6504,-4.6876,-4.6876,-4.6876,-4.6876,-4.6876,-4.5484,-4.4951,-4.5275,-4.3801,-4.3446,-4.4068,-4.4097,-4.4097,-4.4155,-4.4964,-4.4855,-4.4253,-4.5563,-4.6098,-4.6196,-4.7258,-4.7696,-4.7717,-4.7717,-4.7717,-4.7717,-4.7717,-4.7717,-4.7717,-4.7717,-4.7717,-4.7554,-4.6776,-4.6522,-4.6341,-4.5562,-4.4747,-4.4132,-4.4095,-4.3516,-4.2937,-4.2919,-4.2901,-4.2901,-4.2901,-4.2842,-4.2764,-4.2629,-4.2566,-4.2445,-4.2308,-4.2308,-4.2308,-4.2308,-4.2308,0.0,-4.2308,-4.2308,-4.2308,-4.2308,-4.2308,-4.2308,-4.2308,-4.1556,-4.1413,-4.2183,-4.0155,-3.964,-4.1261,-3.9894,-3.9211,-3.9423,-3.8524,-3.8417,-3.9175,0.0,0.0,0.0,0.0,0.0,0.0,0.0,0.0,0.0,0.0,0.0,0.0,0.0,0.0,0.0,0.0,0.0,0.0,0.0,0.0,0.0,-3.8858,-4.0261,-4.1044,-4.2239,-4.2991,-4.2881,-4.3052,-4.3082,-4.279,-4.2696,-4.3184,-4.4399,-4.469,-4.5322,-4.652,-4.6779,-4.6876,-4.6876,-4.6876,-4.6876,-4.6876,-4.5484,-4.4853,-4.4935,-4.3676,-4.3309,-4.3743,-4.401,-4.4212,-4.4468,-4.5045,-4.5171,-4.5028,-4.5775,-4.6098,-4.6189,-4.6845,-4.7363,-4.7717,-4.7717,-4.7717,-4.7717,-4.7717,-4.7717,-4.7717,-4.7717,-4.7717,-4.7663,-4.7446,-4.6975,-4.645,-4.6232,-4.5599,-4.4838,-4.424,-4.3932,-4.3607,-4.3046,-4.2901,-4.2901,-4.2901,-4.2842,-4.2783,-4.2745,-4.2647,-4.251,-4.2328,-4.2308,-4.2308,-4.2308,-4.2308,0.0,-4.2308,-4.2308,-4.2308,-4.2308,-4.2308,-4.2308,-4.2308,-4.1556,-4.0987,-4.0726,-3.9657,-3.9265,-3.9788,-3.9499,-3.9517,-3.9968,-3.9336,-3.9047,0.0,0.0,0.0,0.0,0.0,0.0,0.0,0.0,0.0,0.0,0.0,0.0,0.0,0.0,0.0,0.0,0.0,0.0,0.0,0.0,0.0,0.0,-3.9672,-4.089,-4.1454,-4.2421,-4.299,-4.2836,-4.3052,-4.3143,-4.2945,-4.3098,-4.3653,-4.4789,-4.508,-4.571,-4.6828,-4.6876,-4.6876,-4.6876,-4.6876,-4.6876,-4.6876,-4.5484,-4.4787,-4.4771,-4.3504,-4.3143,-4.3608,-4.3654,-4.3935,0.0,-4.4669,-4.4801,-4.4855,-4.5511,-4.5749,0.0,0.0,0.0,0.0,0.0,-4.7717,-4.7717,-4.7717,-4.7717,-4.7717,-4.7717,-4.7717,-4.7717,-4.7717,-4.7373,-4.7011,-4.7011,-4.6432,-4.5617,-4.4802,-4.4349,-4.3896,-4.31,-4.2901,-4.2901,-4.2901,-4.2862,-4.2823,-4.2803,0.0,0.0,-4.2407,-4.2387,-4.2366,-4.2308,-4.2308,-4.2308,0.0,-4.2308,-4.2308,-4.2308,-4.2308,-4.2308,-4.2308,-4.1556,0.0,0.0,0.0,-3.9571,-3.9698,-3.9805,0.0,0.0,0.0,0.0,0.0,0.0,0.0,0.0,-4.098,-4.1071,0.0,0.0,0.0,0.0,0.0,0.0,0.0,0.0,0.0,0.0,0.0,0.0,0.0,0.0,0.0,0.0,-4.0559,-4.1706,-4.1754,-4.2109,-4.2548,-4.2958,-4.3139,-4.3243,-4.3342,-4.3739,-4.4268,-4.4935,-4.5503,-4.6115,-4.6878,0.0,0.0,0.0,0.0,-4.6876,-4.6876,-4.5484,-4.4787,-4.4771,-4.3282,-4.2929,-4.3519,-4.3279,-4.3505,-4.4097,-4.4126,-4.4155,-4.4212,-4.4937,-4.5267,-4.5407,-4.6406,-4.6863,-4.6954,-4.7428,-4.7657,0.0,0.0,0.0,0.0,-4.7717,-4.7717,-4.7717,-4.7717,-4.7717,-4.7717,-4.7717,-4.712,-4.6305,-4.5508,-4.4693,-4.3896,-4.31,-4.2901,-4.2901,-4.2901,-4.2901,-4.2881,-4.2822,-4.2822,-4.2745,-4.2564,-4.2524,-4.2445,-4.2308,-4.2308,0.0,-4.2308,-4.2308,-4.2308,-4.2308,0.0,0.0,-4.2308,-4.1645,-4.1502,-4.2126,-4.0958,-4.0323,-4.0546,-4.0691,-4.1071,-4.172,-4.1738,-4.2081,-4.2803,-4.2803,-4.2822,-4.2767,-4.1487,-4.165,0.0,0.0,0.0,0.0,0.0,0.0,0.0,0.0,0.0,0.0,0.0,0.0,0.0,0.0,0.0,-3.858,-3.9763,-4.0622,-4.0976,-4.0937,-4.1292,-4.2394,-4.2284,-4.2337,-4.2927,-4.363,-4.422,-4.4805,-4.5452,-4.6115,-4.6878,-4.6876,0.0,-4.6876,-4.6876,-4.6876,-4.6876,-4.5484,-4.4787,-4.4771,0.0,0.0,-4.3188,-4.3399,-4.3713,-4.4114,-4.44,-4.4514,-4.4514,-4.4665,-4.4971,-4.5355,-4.6,-4.6525,-4.6908,-4.7017,-4.7341,-4.7717,-4.7717,-4.7717,-4.7717,-4.7717,-4.7717,-4.7717,-4.7717,-4.7717,0.0,-4.7717,-4.712,-4.6305,-4.5508,-4.4693,-4.3896,-4.31,-4.2901,-4.2901,-4.2901,-4.2901,-4.29,-4.2881,-4.2881,-4.2843,-4.2745,-4.2624,-4.2445,-4.2308,-4.2308,-4.2308,-4.2308,-4.2308,-4.2308,-4.2308,-4.2308,-4.2308,-4.2308,-4.2165,-4.1859,-4.1359,-4.1155,-4.1149,-4.1358,-4.199,-4.2406,-4.2586,-4.2626,-4.2699,-4.2803,-4.2843,-4.2881,-4.2899,-4.313,-4.3454,0.0,0.0,0.0,0.0,0.0,0.0,0.0,0.0,0.0,0.0,0.0,-3.4751,-3.6062,0.0,-3.7627,-3.8933,-3.9579,-4.0011,-4.0206,-3.9957,-4.0317,-4.189,-4.1754,-4.1947,-4.3031,-4.3724,-4.4316,-4.4854,-4.581,-4.6504,-4.686,-4.6876,-4.6876,-4.6876,-4.6876,-4.6714,-4.6342,-4.5305,-4.4609,-4.4237,-4.312,-4.2774,-4.3113,-4.3279,-4.3625,-4.4097,-4.4286,-4.4429,-4.4615,-4.4615,-4.4879,-4.5329,-4.5614,-4.6189,-4.6931,-4.7214,-4.7468,-4.7717,-4.7717,-4.7717,-4.7717,-4.7717,-4.7717,-4.7717,-4.7717,-4.7717,-4.7606,-4.721,-4.6812,-4.6214,-4.5001,-4.4403,-4.3896,-4.31,-4.2901,-4.2901,-4.2901,-4.2901,-4.2901,-4.2901,-4.2901,-4.2881,-4.2822,-4.2724,-4.2586,-4.2425,-4.2346,-4.2308,-4.2308,-4.2308,-4.2308,-4.2308,-4.2308,-4.2308,-4.2308,-4.2308,-4.2126,-4.1716,-4.1817,-4.1954,-4.2052,-4.2546,-4.2803,-4.2803,-4.288,-4.2881,-4.2861,-4.2881,-4.2881,-4.2879,-4.3561,-4.4137,0.0,0.0,0.0,0.0,0.0,0.0,0.0,-3.3571,-3.3899,-3.5196,-3.5411,-3.5842,-3.731,-3.7558,-3.7974,-3.9358,-3.9482,-3.9446,-3.9726,-3.939,-3.9723,-4.145,-4.1357,-4.1679,-4.3043,-4.3812,-4.4427,-4.4952,-4.6038,-4.673,-4.6876,-4.6876,-4.6876,-4.6876,-4.6876,-4.6536,-4.5807,-4.5127,-4.4431,-4.3702,-4.2942,-4.2743,-4.3021,-4.3143,-4.3505,-4.401,-4.4126,-4.4344,-4.4615,-4.4615,-4.4879,-4.5303,-4.5407,-4.6067,-4.6954,-4.7385,-4.7615,-4.7717,-4.7717,-4.7717,-4.7717,-4.7717,-4.7717,-4.7717,-4.7717,-4.7717,-4.7536,-4.6739,-4.6395,-4.5924,-4.4476,-4.3969,-4.3697,-4.3064,-4.2901,-4.2901,-4.2901,-4.2901,-4.2901,-4.2901,-4.2901,-4.2881,-4.2841,-4.2803,-4.2743,-4.2564,-4.2425,-4.2346,-4.2346,-4.2325,-4.2308,-4.2308,-4.2308,-4.2308,-4.2308,-4.2308,-4.2346,-4.2308,-4.2425,-4.2503,-4.2503,-4.2685,-4.2764,-4.2803,-4.288,-4.2901,-4.2901,-4.2901,-4.2862,-4.284,-4.3599,-4.4283,-2.9129,-2.9579,-3.0378,-3.1769,-3.2849,-3.4047,0.0,-3.6525,-3.6961,-3.7678,-3.7673,-3.7618,-3.7823,-3.7701,-3.804,-3.9391,-3.8827,-3.8589,-3.9786,-3.9666,-3.9855,-4.0958,-4.0945,-4.1282,-4.2338,-4.35,-4.4426,-4.4952,-4.5568,-4.6212,-4.686,-4.6876,-4.6876,-4.6876,-4.6876,-4.6536,-4.5807,-4.5127,-4.4431,-4.3702,-4.2942,-4.2634,-4.2696,-4.3279,-4.3578,-4.3684,-4.4298,-4.4587,-4.4615,-4.4615,-4.4879,-4.5355,-4.5825,-4.6382,-4.6908,-4.6954,-4.728,-4.7717,-4.7717,-4.7717,-4.7717,-4.7717,-4.7717,-4.7717,-4.7717,-4.7717,-4.7536,-4.6739,-4.5997,-4.5236,-4.4331,-4.357,-4.3009,-4.2919,-4.2901,-4.2901,-4.2901,-4.2901,-4.2901,-4.2901,-4.2901,-4.29,-4.29,-4.2842,-4.2745,-4.2609,-4.2526,-4.2483,-4.2483,-4.2366,-4.2308,-4.2308,-4.2308,-4.2308,-4.2308,-4.2405,-4.2425,-4.2308,-4.2425,-4.2503,-4.2503,-4.2588,-4.2668,-4.2803,-4.288,-4.2901,-4.2901,-4.2901,-4.29,-4.2918,-4.3696,-4.4091,-2.932,-3.0038,-3.0815,-3.1619,-3.2771,-3.4076,-3.5501,-3.6239,-3.6853,-3.7838,-3.8066,-3.7953,-3.7625,-3.7586,-3.784,0.0,-3.8175,-3.8144,-3.9056,-3.9355,-3.9718,-4.0283,-4.1069,-4.1871,-4.2695,-4.3258,-4.3758,-4.422,-4.4836,-4.5338,-4.5646,-4.5678,-4.5678,-4.5678,-4.5678,-4.5322,-4.4593,-4.4302,-4.38,-4.3055,-4.2748,-4.2602,-4.2618,-4.3279,-4.3802,-4.4196,-4.4485,-4.4615,-4.4615,-4.4615,-4.5052,-4.5775,-4.6,-4.6637,-4.7363,-4.7363,-4.7511,-4.7717,-4.7717,-4.7717,-4.7717,-4.7717,-4.7717,-4.7717,-4.7717,-4.7373,-4.683,-4.6033,-4.5218,-4.4421,-4.3607,-4.3136,-4.2901,-4.2901,-4.2901,-4.2901,-4.2901,-4.2901,-4.2901,-4.2901,-4.2901,-4.2901,-4.2901,-4.2881,-4.2842,-4.2786,-4.2649,-4.2548,-4.2548,-4.251,-4.247,-4.247,-4.2369,-4.2328,-4.2405,-4.2405,-4.2366,-4.2308,-4.2425,-4.2463,-4.2405,-4.251,-4.2629,-4.2668,-4.2785,-4.2861,-4.2901,-4.2901,-4.2901,-4.2919,-4.3245,-4.3388,-2.9329,-3.0138,-3.0849,-3.1512,-3.2662,-3.3891,-3.4813,-3.5466,-3.6184,-3.7338,-3.7679,-3.7737,-3.7505,-3.7534,-3.7748,-3.8229,-3.7755,-3.779,-3.9013,-3.933,-3.9683,-4.0418,-4.1606,-4.2556,-4.3064,-4.3099,-4.3286,-4.3766,-4.4237,-4.4577,-4.4787,-4.4787,-4.4787,-4.4787,-4.4787,-4.4447,-4.3719,-4.3719,-4.3346,-4.2602,-4.2602,-4.2602,-4.2618,-4.3279,-4.3948,-4.4615,-4.4615,-4.4615,-4.4615,-4.4615,-4.5196,-4.6098,-4.6098,-4.6753,-4.7717,-4.7717,-4.7717,-4.7717,-4.7717,-4.7717,-4.7717,-4.7717,-4.7717,-4.7717,-4.7717,-4.7301,-4.6631,-4.5599,-4.4874,-4.4186,-4.3173,-4.2901,-4.2901,-4.2901,-4.2901,-4.2901,-4.2901,-4.2901,-4.2901,-4.2901,-4.2901,-4.2901,-4.2901,-4.2901,-4.2901,-4.2901,-4.2786,-4.2688,-4.2649,-4.2629,-4.2589,-4.257,-4.245,-4.2407,-4.2483,-4.2447,-4.2389,-4.2308,-4.2427,-4.2465,-4.2308,-4.2488,-4.257,-4.2609,-4.2725,-4.2823,-4.2901,-4.2901,-4.2901,-4.2901,-4.2957,-4.3103,-2.9273,-2.9815,-3.0441,-3.1807,-3.2933,-3.3845,-3.4491,-3.4943,-3.5497,-3.6539,-3.6742,-3.698,-3.7738,-3.7739,-3.8002,-3.9168,-3.7697,-3.7451,-4.0337,-3.9842,-3.9895,-4.1798,-4.2638,-4.308,-4.3113,-4.3113,-4.3362,-4.3942,-4.3831,-4.4059,-4.4755,-4.4787,-4.4787,-4.4787,-4.4787,-4.4447,-4.3719,-4.3719,-4.3346,-4.2602,-4.2602,-4.2602,-4.2618,-4.3279,-4.3948,-4.4615,-4.4615,-4.4615,-4.4615,-4.4615,-4.5196,-4.6098,-4.6098,-4.6753,-4.7717,-4.7717,-4.7717,-4.7717,-4.7717,-4.7717,-4.7717,-4.7717,-4.7717,-4.7717,-4.7717,-4.7681,-4.7337,-4.5743,-4.5273,-4.4892,-4.3318,-4.2901,-4.2901,-4.2901,-4.2901,-4.2901,-4.2901,-4.2901,-4.2901,-4.2901,-4.2901,-4.2901,-4.2901,-4.2901,-4.2901,-4.2901,-4.2882,-4.2862,-4.2803,-4.2668,-4.2588,-4.2503,-4.2548,-4.2568,-4.2503,-4.2685,-4.2647,-4.2328,-4.249,-4.251,-4.2308,-4.2425,-4.2526,-4.2609,-4.2725,-4.2823,-4.2901,-4.2901,-4.2901,-4.2901,-4.3105,-4.3616,-2.9821,-3.0208,-3.062,-3.1884,-3.2777,-3.3403,-3.3905,-3.4108,-3.457,-3.5852,-3.5797,-3.5862,-3.7086,-3.7123,-3.7363,-3.8431,-3.8267,-3.8316,-3.9203,-4.0587,-4.1492,-4.1367,-4.3152,-4.4232,-4.3866,-4.3391,0.0,-4.3068,-4.3475,-4.3605,-4.3331,-4.3816,-4.3848,-4.3379,-4.3331,-4.3217,-4.2958,-4.2958,-4.2845,-4.2602,-4.2602,-4.2592,-4.2571,-4.3258,-4.3948,-4.4615,-4.4615,-4.4615,-4.4615,-4.4615,-4.5196,-4.6098,-4.6098,-4.6753,-4.7717,-4.7717,-4.7717,-4.7717,-4.7717,-4.7717,-4.7717,-4.7717,-4.7717,-4.7717,-4.7717,-4.7337,-4.6794,-4.625,-4.5327,-4.4385,-4.3824,-4.3299,-4.2901,-4.2901,-4.2901,-4.2901,-4.2901,-4.2901,-4.2901,-4.2901,-4.2901,-4.2901,-4.2901,-4.2901,-4.2901,-4.2901,-4.2862,-4.2841,-4.2803,-4.2645,-4.2546,-4.2568,-4.247,-4.2427,-4.2503,-4.2468,-4.2409,-4.2308,-4.2447,-4.2447,-4.2308,-4.2425,-4.2526,-4.2609,-4.2649,-4.2728,-4.2901,-4.2901,-4.2901,-4.2919,-4.3651,-4.3853,-2.972,-3.0079,-3.031,-3.13,-3.2028,-3.2536,-3.2791,-3.2992,-3.3541,-3.4775,-3.4737,-3.4981,-3.6587,-3.6719,-3.6983,-3.8104,-3.8292,-3.8597,-3.9617,-4.1075,-4.2189,-4.2514,-4.3988,-4.4886,-4.4636,-4.4098,0.0,-4.3411,-4.3589,-4.3476,-4.3007,-4.3185,-4.3072,-4.2619,-4.2602,-4.2602,-4.2602,-4.2602,-4.2473,-4.2261,-4.2489,-4.2568,-4.2531,-4.3276,-4.3948,-4.4615,-4.4615,-4.4615,-4.4615,-4.4615,-4.5196,-4.6098,-4.6098,-4.6753,-4.7717,-4.7717,-4.7717,-4.7717,-4.7717,-4.7717,-4.7717,-4.7717,-4.7717,-4.7717,-4.7717,-4.7355,-4.6866,-4.6576,-4.5544,-4.4458,-4.4168,-4.3498,-4.2901,-4.2901,-4.2901,-4.2901,-4.2901,-4.2901,-4.2901,-4.2901,-4.2901,-4.2901,-4.2901,-4.2901,-4.2901,-4.2901,-4.2842,-4.2803,-4.2803,-4.2685,-4.2606,-4.2609,-4.253,-4.2488,-4.2503,-4.2447,-4.2389,-4.2308,-4.2425,-4.2445,-4.2308,-4.2366,-4.2468,-4.2609,-4.2609,-4.2689,-4.2901,-4.2901,-4.2957,-4.3013,-4.3743,-4.398,-2.9091,-2.9515,-2.9618,-3.0256,-3.0853,-3.13,-3.13,-3.1721,-3.245,-3.344,-3.361,-3.42,-3.6237,-3.6447,-3.6812,-3.8218,-3.7908,-3.8485,-4.1383,-4.141,-4.2148,-4.4919,-4.5163,-4.5179,-4.5357,-4.5212,0.0,-4.4934,0.0,-4.3783,-4.3719,-4.3055,-4.2683,-4.2602,-4.2602,-4.2602,-4.2602,-4.2602,-4.2245,-4.1547,-4.2278,-4.2551,-4.2452,-4.323,-4.3964,-4.4587,-4.4598,-4.4615,-4.4615,-4.4615,-4.5196,-4.6098,-4.6098,-4.6753,-4.7717,-4.7717,-4.7717,-4.7717,-4.7717,-4.7717,-4.7717,-4.7717,-4.7717,-4.7717,-4.7717,-4.7717,-4.7554,-4.6794,-4.5943,-4.5128,-4.4349,-4.3516,-4.2901,-4.2901,-4.2901,-4.2901,-4.2901,-4.2901,-4.2901,-4.2901,-4.2901,-4.2901,-4.2901,-4.2901,-4.2901,-4.2901,-4.2842,-4.2783,-4.2803,-4.2783,-4.2745,-4.2609,-4.2725,-4.2704,-4.2524,-4.2548,-4.251,-4.2308,-4.2425,-4.2425,-4.2308,-4.2308,-4.2389,-4.2589,-4.2609,-4.2709,-4.2901,-4.292,-4.3031,-4.3233,-4.3465,-4.4077,-2.9265,-2.9515,-2.9618,-3.0256,-3.0853,-3.13,-3.13,-3.1409,-3.1787,-3.2756,-3.2579,-3.2847,-3.4724,-3.526,-3.5944,-3.7572,-3.9052,0.0,-4.1167,-4.3075,-4.4415,-4.4476,-4.5636,-4.6334,-4.6127,-4.642,0.0,0.0,-4.5678,-4.482,-4.3767,-4.4043,-4.3751,-4.2635,-4.2602,-4.2602,-4.2602,-4.2602,-4.1971,-4.0788,-4.2004,-4.2154,-4.144,-4.291,-4.3831,-4.4241,-4.4485,-4.4615,-4.4615,-4.4615,-4.5196,-4.6098,-4.6098,-4.6753,-4.7717,-4.7717,-4.7717,-4.7717,-4.7717,-4.7717,-4.7717,-4.7717,-4.7717,-4.7717,-4.7717,-4.7717,-4.7663,-4.7464,-4.6377,-4.5254,-4.5037,-4.3951,-4.2901,-4.2901,-4.2901,-4.2901,-4.2901,-4.2901,-4.2901,-4.2901,-4.2901,-4.2901,-4.2901,-4.2901,-4.2901,-4.2901,-4.2747,-4.2686,-4.2783,-4.2707,-4.2629,-4.2609,-4.2586,-4.2564,-4.2503,-4.2427,-4.2348,-4.2308,-4.2328,-4.2346,-4.2308,-4.2308,-4.2387,-4.2526,-4.2727,-4.2863,-4.2976,-4.3232,-4.3375,-4.3428,-4.4243,-4.4418,-2.85,-2.8663,-2.8725,-2.911,-3.0079,-3.0804,-3.045,-3.104,-3.1729,-3.1913,-3.1979,-3.2439,-3.3992,-3.468,-3.547,-3.6874,-3.9178,-4.0956,-4.1301,-4.3696,-4.5387,-4.5374,-4.6215,-4.6765,-4.6747,-4.6939,-4.703,0.0,-4.6212,-4.5338,-4.4237,-4.4269,-4.38,-4.2635,-4.2602,-4.2602,-4.2602,-4.2602,-4.2067,-4.1012,-4.2237,-4.2402,-4.1708,-4.3169,-4.3993,-4.4344,0.0,-4.4615,-4.4626,-4.4824,-4.539,-4.6123,-4.6358,-4.6954,-4.7717,-4.7717,-4.7717,-4.7717,-4.7717,-4.7717,-4.7717,-4.7717,-4.7717,-4.7717,-4.7717,-4.7717,-4.7717,-4.7717,-4.654,-4.5291,-4.5291,-4.4095,-4.2901,-4.2901,-4.2901,-4.2901,-4.2901,-4.2901,-4.2901,-4.2901,-4.2901,-4.2901,-4.2901,-4.2901,-4.2901,-4.2901,-4.2805,-4.2746,-4.2783,-4.2647,-4.2566,-4.2566,-4.2506,-4.2483,-4.2425,-4.2409,-4.2389,-4.2308,-4.247,-4.2512,-4.245,-4.2512,-4.2629,-4.2743,-4.2937,-4.3069,-4.3124,-4.3392,-4.3549,-4.3635,-4.4216,-4.4245,-2.7417,-2.7611,-2.7548,-2.7674,-2.8975,-3.0045,-2.9369,-3.0672,-3.1825,-3.1141,-3.164,-3.255,-3.3617,-3.4381,-3.5237,-3.6381,-3.8891,-4.1001,-4.1895,-4.3766,-4.553,-4.6756,-4.6703,-4.6738,-4.7149,-4.703,-4.6878,-4.6747,-4.6164,-4.5516,-4.4836,-4.4107,-4.3379,-4.2619,-4.2602,-4.2554,-4.2457,-4.2554,-4.2229,-4.1466,-4.2568,-4.287,-4.2473,-4.3602,-4.4258,-4.4542,0.0,0.0,-4.4626,-4.5098,-4.5614,-4.6147,-4.6683,-4.7236,-4.7717,-4.7717,-4.7717,-4.7717,-4.7717,-4.7717,-4.7717,-4.7717,-4.7717,-4.7717,-4.7717,-4.7717,-4.7681,-4.7551,-4.6468,-4.5273,-4.5164,-4.4023,-4.2901,-4.2901,-4.2901,-4.2901,-4.2901,-4.2901,-4.2901,-4.2901,-4.2901,-4.2901,-4.2901,-4.2901,-4.2901,-4.2901,-4.2881,-4.2843,-4.2803,-4.2665,-4.2584,-4.2546,-4.2544,-4.2486,-4.2369,-4.251,-4.253,-4.2348,-4.2689,-4.2824,-4.2649,-4.2805,-4.2938,-4.3068,-4.3178,-4.3268,-4.3339,-4.3496,-4.3651,-4.3837,-4.382,-4.3835,-2.7511,-2.7674,-2.7674,-2.7674,-2.8552,-2.9383,-2.9242,-3.0244,-3.1168,-3.1025,-3.164,-3.2341,-3.2856,-3.3854,-3.526,-3.7092,-3.9223,-4.1334,-4.3391,-4.4324,-4.531,-4.6742,-4.6582,-4.6582,-4.7132,-4.7183,0.0,0.0,0.0,-4.5516,-4.4836,-4.4107,-4.3379,-4.2619,-4.2602,-4.2311,-4.179,-4.2311,-4.1939,-4.0691,-4.2323,-4.2766,-4.2216,-4.3502,-4.4126,-4.4184,0.0,0.0,-4.4626,-4.5098,-4.5614,-4.6147,-4.6683,-4.7236,-4.7717,-4.7717,-4.7717,-4.7717,-4.7717,-4.7717,-4.7717,-4.7717,-4.7717,-4.7717,-4.7717,-4.7717,-4.7572,-4.6902,-4.6033,-4.5146,-4.4476,-4.3626,-4.2901,-4.2901,-4.2901,-4.2901,-4.2901,-4.2901,-4.2901,-4.2901,-4.2901,-4.2901,-4.2901,-4.2901,-4.2901,-4.2901,-4.2767,-4.2688,-4.2783,-4.2917,-4.2955,-4.2843,-4.2783,-4.2725,-4.2706,-4.2629,-4.2589,-4.255,-4.2767,-4.2882,-4.2844,-4.2882,-4.2901,-4.2938,-4.3268,-4.3444,-4.3462,-4.3781,-4.3926,-4.3958,-4.3897,-4.3899,-2.6738,-2.6695,-2.6827,-2.7524,-2.8209,-2.8805,-2.9047,-3.0081,-3.0882,-3.0516,-3.1446,-3.2395,-3.2668,-3.3895,-3.5236,-3.6184,-3.8824,-4.1231,-4.2524,-4.3842,-4.5183,-4.6448,-4.6369,-4.6423,-4.6996,-4.6689,-4.6282,-4.5824,0.0,-4.4577,-4.4237,-4.3541,-4.2958,-4.2619,-4.2278,-4.2083,-4.2132,-4.2083,-4.1921,-4.1614,-4.2633,-4.3024,-4.2921,-4.3727,-4.42,-4.4372,-4.4514,0.0,-4.4654,-4.5399,-4.5875,-4.6189,-4.6999,-4.7472,-4.7717,-4.7717,-4.7717,-4.7717,-4.7717,-4.7717,-4.7717,-4.7717,-4.7717,-4.7717,-4.7717,-4.7717,-4.7606,-4.7246,-4.625,-4.52,-4.482,-4.3806,-4.2901,-4.2901,-4.2901,-4.2901,-4.2901,-4.2901,-4.2901,-4.2901,-4.2901,-4.2901,-4.2901,-4.2901,-4.2901,-4.2901,-4.2804,-4.2725,-4.2783,-4.3012,-4.3068,-4.2861,-4.2861,-4.2861,-4.2861,-4.2899,-4.2862,-4.2767,-4.3032,-4.3178,-4.3068,-4.316,-4.3214,-4.3214,-4.3444,-4.3548,-4.3548,-4.3783,-4.3899,-4.3899,-4.3867,-4.3818,-2.6083,-2.5907,-2.6067,-2.7375,-2.7993,-2.8423,-2.8879,-3.0025,-3.0801,-3.007,-3.1229,-3.2489,-3.2739,-3.4078,-3.5189,-3.5396,-3.8201,-4.0646,-4.1497,-4.2963,-4.4516,-4.6115,-4.6028,-4.6074,-4.6615,-4.6131,0.0,-4.537,0.0,0.0,-4.3444,-4.291,-4.2522,-4.2376,-4.1857,-4.1759,-4.2149,-4.1776,-4.184,-4.2407,-4.2878,-4.3279,-4.3608,-4.3935,-4.4286,-4.4615,-4.4615,0.0,0.0,-4.5683,-4.6098,-4.6213,-4.728,-4.7717,-4.7717,-4.7717,-4.7717,-4.7717,-4.7717,-4.7717,-4.7717,-4.7717,-4.7717,-4.7717,-4.7717,-4.7717,-4.7642,-4.75,-4.6413,-4.5254,-4.5091,-4.3969,-4.2901,-4.2901,-4.2901,-4.2901,-4.2901,-4.2901,-4.2901,-4.2901,-4.2901,-4.2901,-4.2901,-4.2901,-4.2901,-4.2901,-4.288,-4.286,-4.286,-4.3068,-4.316,-4.2955,-4.2957,-4.2976,-4.2975,-4.3105,-4.3123,-4.2957,-4.3304,-4.3445,-4.3268,-4.3593,-4.368,-4.3515,-4.3749,-4.3764,-4.3599,-4.3736,-4.3804,-4.3804,-4.3771,-4.3703,-2.6294,-2.6158,-2.6185,-2.7406,-2.8012,-2.8429,-2.8879,-3.0025,-3.0836,-3.021,-3.13,-3.2525,-3.2917,-3.4041,-3.5212,-3.6057,-3.7463,-3.938,-4.201,-4.1894,-4.2709,-4.5916,-4.5598,-4.5304,-4.5837,-4.584,-4.5273,0.0,0.0,0.0,-4.2699,-4.2635,-4.2311,-4.1725,-4.1644,-4.132,-4.0691,-4.1304,-4.1628,-4.1709,-4.2649,-4.3279,-4.3608,-4.3935,-4.4286,-4.4615,0.0,0.0,0.0,-4.5683,-4.6098,-4.6213,-4.728,-4.7717,-4.7717,-4.7717,-4.7717,-4.7717,-4.7717,-4.7717,-4.7717,-4.7717,-4.7717,-4.7717,-4.7717,-4.7717,-4.7554,-4.683,-4.5979,-4.5128,-4.4385,-4.3571,-4.2901,-4.2901,-4.2901,-4.2901,-4.2901,-4.2901,-4.2901,-4.2901,-4.2901,-4.2901,-4.2901,-4.2901,-4.2901,-4.2901,-4.2939,-4.3013,-4.3049,-4.3196,-4.3303,-4.334,-4.3304,-4.325,-4.3178,-4.3178,-4.3178,-4.316,-4.3375,-4.3479,-4.3462,-4.4177,-4.425,-4.3497,-4.4282,-4.4335,-4.3599,-4.3736,-4.3804,-4.3788,-4.3667,-4.3599,-2.6413,-2.6589,-2.7089,-2.8317,-2.871,-2.906,-2.9979,-3.0626,-3.098,-3.0842,-3.1771,-3.2668,-3.2952,-3.3914,-3.4871,-3.5544,-3.7229,-3.9143,-4.0979,-4.1627,-4.2848,-4.5397,-4.4896,-4.4729,0.0,0.0,-4.414,0.0,0.0,0.0,-4.2019,-4.2002,-4.1873,-4.1612,-4.1174,-4.1029,-4.1174,-4.145,-4.1823,-4.2213,-4.2613,-4.3066,-4.3608,-4.3743,-4.408,-4.4615,0.0,0.0,0.0,-4.5792,-4.6286,-4.666,-4.7407,-4.7717,-4.7717,-4.7717,-4.7717,-4.7717,-4.7717,-4.7717,-4.7717,-4.7717,-4.7717,-4.7717,-4.7717,-4.7717,-4.7645,-4.7319,-4.6649,-4.5834,-4.5037,-4.386,-4.2901,-4.2901,-4.2901,-4.2901,-4.2901,-4.2901,-4.2901,-4.2901,-4.2901,-4.2901,-4.2901,-4.2901,-4.2901,-4.2901,-4.292,-4.2975,-4.3086,-4.3214,-4.3321,-4.3376,-4.341,-4.341,-4.3375,-4.3375,-4.3375,-4.3375,-4.3463,-4.3515,-4.3515,-4.3809,-4.3828,-4.3515,-4.3826,-4.3861,-4.3531,-4.3583,-4.3617,-4.3617,-4.3548,-4.3531,-2.6912,-2.7113,-2.7749,-2.9121,-2.9484,-2.9705,-3.0606,-3.1003,-3.1191,-3.1273,-3.1993,-3.2704,-3.3037,-3.4001,-3.4909,0.0,-3.7186,-3.9071,-4.0304,-4.1254,-4.2579,-4.4676,-4.4129,-4.3992,0.0,-4.4075,-4.3087,0.0,0.0,0.0,0.0,-4.1093,-4.098,-4.098,-4.0688,-4.0739,-4.1272,-4.1498,-4.1938,-4.2602,-4.268,-4.3052,-4.3608,-4.3713,-4.4051,-4.4598,0.0,0.0,0.0,-4.6049,-4.6548,-4.6954,-4.749,-4.7717,-4.7717,-4.7717,-4.7717,-4.7717,-4.7717,-4.7717,-4.7717,-4.7717,-4.7717,-4.7717,-4.7717,-4.7717,-4.7717,-4.7717,-4.6957,-4.5906,-4.4856,-4.3733,-4.2901,-4.2901,-4.2901,-4.2901,-4.2901,-4.2901,-4.2901,-4.2901,-4.2901,-4.2901,-4.2901,-4.2938,-4.2957,-4.2957,-4.3031,-4.3105,-4.3178,-4.3304,-4.341,-4.3429,-4.3463,-4.3515,-4.3515,-4.3515,-4.3515,-4.3515,-4.3515,-4.3515,-4.3515,-4.3718,-4.3736,-4.3515,-4.3718,-4.3736,-4.3515,-4.3515,-4.3515,-4.3515,-4.3515,-4.3515,-2.7873,-2.7755,-2.7843,-2.9631,-3.0075,-3.0132,-3.0342,-3.101,-3.1533,-3.1333,-3.1886,-3.2596,-3.3171,-3.4503,-3.5484,-3.5498,-3.7199,-3.9011,-4.0489,-4.0593,-4.1383,-4.3738,-4.3379,-4.3065,-4.3475,-4.296,0.0,0.0,0.0,0.0,0.0,-3.9865,-3.9522,-3.9522,-4.014,-4.0496,-4.0496,-4.1255,-4.1938,-4.2602,-4.2929,-4.3279,-4.3608,-4.3935,-4.4286,0.0,0.0,0.0,0.0,-4.6454,-4.6886,-4.6954,-4.749,-4.7717,-4.7717,-4.7717,-4.7717,-4.7717,-4.7717,-4.7717,-4.7717,-4.7717,-4.7717,-4.7717,-4.7717,-4.7717,-4.7717,-4.7717,-4.6558,-4.4928,-4.3354,-4.29,-4.2901,-4.2901,-4.2901,-4.2901,-4.2901,-4.2901,-4.2901,-4.2901,-4.2901,-4.2901,-4.2901,-4.3012,-4.3104,-4.3104,-4.3322,-4.3463,-4.3412,-4.3515,-4.3565,-4.3515,-4.3515,-4.3515,-4.3515,-4.3515,-4.3515,-4.3515,-4.3515,-4.3515,-4.3515,-4.4268,-4.4305,-4.3533,-4.4287,-4.4305,-4.3515,-4.3515,-4.3515,-4.3515,-4.3515,-4.3515,-2.7517,-2.7814,-2.8237,-2.8989,-2.9824,-3.0535,-3.0578,-3.1338,-3.2005,-3.2041,-3.2789,-3.3542,-3.3858,-3.4677,-3.5441,-3.5827,-3.7317,0.0,-3.9405,-4.0516,-4.1754,-4.3089,-4.3375,-4.3283,0.0,0.0,0.0,0.0,0.0,0.0,0.0,-4.0286,-4.0173,-4.0173,-4.0383,-4.0723,-4.1255,-4.1938,-4.2376,-4.2602,-4.2929,-4.3279,-4.3608,-4.3935,0.0,0.0,0.0,0.0,0.0,-4.5665,-4.6024,-4.6406,-4.6931,-4.7151,-4.7214,-4.7554,-4.7717,-4.7717,-4.7717,-4.7717,-4.7717,-4.7717,-4.7717,-4.7609,-4.7065,-4.7265,-4.7591,-4.7029,-4.6124,-4.5055,-4.3987,-4.3318,-4.2901,-4.2901,-4.2901,-4.2901,-4.2901,-4.2901,-4.2901,-4.2901,-4.2901,-4.2901,-4.2901,-4.3012,-4.3104,-4.3104,-4.3287,-4.3411,-4.3412,-4.3481,-4.3513,-4.3496,-4.3515,-4.3515,-4.3515,-4.3515,-4.3515,-4.3515,-4.3515,-4.3515,-4.3515,-4.3736,-4.3754,-4.3515,-4.3736,-4.3754,-4.3515,-4.3515,-4.3515,-4.3515,-4.3515,-4.3515,-2.7696,-2.8124,-2.8641,-2.9109,-2.9909,-3.0648,-3.0788,-3.1426,-3.2113,-3.2586,-3.3266,-3.394,-3.4497,-3.5156,-3.578,-3.616,-3.7696,-3.8927,-3.9173,-4.0832,-4.2224,-4.2819,-4.2974,0.0,0.0,0.0,0.0,0.0,0.0,0.0,0.0,-4.0351,-4.0626,-4.0931,-4.0931,-4.1142,-4.1596,-4.2278,-4.2602,-4.2602,-4.3082,-4.3399,-4.3608,-4.408,0.0,0.0,0.0,0.0,0.0,-4.5537,-4.58,-4.6147,-4.6683,-4.6908,-4.6954,-4.7511,-4.7717,-4.7717,-4.7717,-4.7717,-4.7717,-4.7717,-4.75,-4.7102,-4.6287,-4.6413,-4.6631,-4.5816,-4.5236,-4.4657,-4.386,-4.3498,-4.3335,-4.3335,-4.357,-4.3715,-4.3407,-4.3335,-4.33,-4.3067,-4.2994,-4.2994,-4.305,-4.3142,-4.3215,-4.3215,-4.334,-4.3446,-4.3446,-4.3738,-4.3828,-4.3533,-4.3754,-4.3828,-4.3533,-4.3515,-4.3515,-4.3515,-4.3515,-4.3515,-4.3515,-4.3515,-4.3515,-4.3515,-4.3515,-4.3515,-4.3515,-4.3515,-4.3515,-4.3515,-4.3515,-4.3515,0.0,-2.8539,-2.8884,-2.98,-3.0188,-3.0507,-3.0939,-3.1344,0.0,-3.2874,-3.3408,-3.4034,-3.5003,-3.5887,-3.6439,-3.6439,-3.8187,-3.955,-3.955,-4.126,-4.2554,0.0,-4.2153,0.0,-4.1272,0.0,0.0,0.0,0.0,0.0,0.0,-4.0251,-4.0901,-4.1661,-4.1677,-4.1677,-4.1677,-4.2294,-4.2602,-4.2602,-4.3279,-4.3608,-4.3608,-4.4298,0.0,0.0,0.0,0.0,0.0,-4.5792,-4.6,-4.6116,-4.6637,-4.6863,-4.6954,-4.7511,-4.7717,-4.7717,-4.7717,-4.7717,-4.7678,-4.7645,-4.7083,-4.6269,-4.5454,-4.5254,-4.5128,-4.4331,-4.4095,-4.3896,-4.3118,-4.3498,-4.4095,-4.4095,-4.4711,-4.5073,-4.4258,-4.4115,-4.3937,-4.3306,-4.316,-4.316,-4.3286,-4.3358,-4.3394,-4.3394,-4.3464,-4.3515,-4.3515,-4.4158,-4.4342,-4.3588,-4.4176,-4.4305,-4.3552,-4.3515,-4.3515,-4.3515,-4.3515,-4.3515,-4.3515,-4.3515,-4.3515,-4.3515,-4.3515,-4.3515,-4.3515,-4.3515,-4.3515,-4.3515,-4.3515,-4.3515,-2.8331,0.0,-2.8525,-2.9103,-2.9816,-3.0556,0.0,-3.1874,-3.2494,-3.2753,-3.389,-3.4896,-3.5161,-3.6113,-3.6845,-3.6845,-3.8154,-3.9103,-3.8987,-3.9994,-4.0836,-4.1115,-4.0721,-4.0476,0.0,0.0,0.0,0.0,0.0,0.0,0.0,-4.1272,-4.1646,-4.2327,-4.2344,-4.2344,-4.2344,-4.2522,-4.2602,-4.2602,-4.3279,-4.3608,-4.3608,-4.4298,0.0,0.0,0.0,0.0,-4.4759,-4.4879,-4.5169,-4.5537,-4.6074,-4.6525,-4.6954,-4.7511,-4.7717,-4.7717,-4.7717,-4.7717,-4.7609,-4.6993,-4.625,-4.5436,-4.4621,-4.4802,-4.5128,-4.4331,-4.4095,-4.3896,-4.3118,-4.3498,-4.4095,-4.4095,-4.4711,-4.5073,-4.4258,-4.4211,-4.4088,-4.3287,-4.3196,-4.325,-4.3232,-4.3323,-4.3394,-4.3394,-4.3464,-4.3515,-4.3515,-4.3663,-4.3699,-4.3533,-4.3663,-4.3699,-4.3533,-4.3515,-4.3515,-4.3515,-4.3515,-4.3515,-4.3515,-4.3515,-4.3515,-4.3515,-4.3515,-4.3515,-4.3515,-4.3515,-4.3515,-4.3515,-4.3515,-4.3515,-2.8509,-2.8835,-2.9356,-2.9805,-3.0556,-3.1363,-3.1974,-3.2426,-3.2786,-3.3063,-3.4208,-3.5273,-3.5555,-3.6599,-3.7327,-3.707,-3.8368,-3.9676,-4.0345,-4.0519,-4.0798,-4.1428,-4.1135,0.0,0.0,0.0,0.0,0.0,0.0,0.0,0.0,-4.1417,-4.1774,-4.2132,-4.2148,-4.2294,-4.2602,-4.2602,-4.2602,-4.2602,-4.3279,-4.3608,-4.3608,-4.4298,0.0,0.0,0.0,0.0,-4.4626,-4.4824,-4.5072,-4.5381,-4.6165,-4.6637,-4.6954,-4.7511,-4.7717,-4.7663,-4.7283,-4.7156,-4.7029,-4.6214,-4.5653,-4.5073,-4.3896,-4.3842,-4.4095,-4.3661,-4.3534,-4.3516,-4.3462,-4.4041,-4.4729,-4.511,-4.5816,-4.6108,-4.497,-4.5122,-4.5017,-4.3561,-4.3633,-4.3778,-4.3448,-4.341,-4.3446,-4.3446,-4.348,-4.3626,-4.3993,-4.436,-4.4599,-4.4599,-4.4599,-4.4452,-4.4085,-4.3699,-4.3515,-4.3515,-4.3515,-4.3515,-4.3515,-4.3515,-4.3515,-4.3515,-4.3515,-4.3515,-4.3515,-4.3515,-4.3515,-4.3515,-4.3515,-4.3515,-2.9077,-2.9908,-3.0821,-3.0959,-3.1662,-3.2495,-3.3028,-3.2946,-3.2927,-3.3403,-3.4413,-3.5381,-3.5977,-3.6983,-3.7582,-3.725,-3.8627,0.0,-4.1881,-4.1382,-4.1182,-4.2084,-4.1781,0.0,0.0,0.0,0.0,0.0,0.0,0.0,0.0,-4.1158,-4.1482,-4.1596,-4.1596,-4.1905,-4.2586,-4.2602,-4.2602,-4.2602,-4.3279,-4.3608,-4.3608,-4.4298,-4.4615,0.0,0.0,0.0,-4.4626,-4.5098,-4.5355,-4.5537,-4.6501,-4.6954,-4.7084,-4.7533,-4.7606,-4.7409,-4.6613,-4.6323,-4.6178,-4.5381,-4.511,-4.4838,-4.3335,-4.2901,-4.2901,-4.2901,-4.2992,-4.3245,-4.3914,-4.4784,-4.5653,-4.6341,-4.712,-4.7342,-4.5974,-4.6251,-4.6149,-4.4087,-4.4179,-4.4399,-4.3695,-4.3549,-4.3515,-4.3515,-4.3515,-4.3736,-4.4433,-4.5223,-4.5718,-4.5718,-4.5828,-4.5571,-4.4782,-4.4195,-4.3772,-4.3533,-4.3515,-4.3515,-4.3515,-4.3515,-4.3515,-4.3515,-4.3515,-4.3515,-4.3515,-4.3515,-4.3515,-4.3515,-4.3515,-4.3515,-3.0779,-3.1818,-3.2339,-3.1213,-3.2028,-3.3164,-3.3261,-3.3241,-3.3199,-3.3113,-3.4228,-3.5351,-3.592,-3.6472,-3.7123,-3.7901,-3.856,-3.9394,0.0,0.0,-3.9859,-4.0184,0.0,0.0,0.0,0.0,0.0,0.0,0.0,0.0,0.0,0.0,-4.0934,-4.1579,-4.1596,-4.1905,-4.2586,-4.2602,-4.2602,-4.2602,-4.3279,-4.3608,-4.3608,-4.4298,-4.4615,0.0,0.0,-4.4615,-4.4626,-4.5098,-4.5588,-4.6024,-4.666,-4.7191,-4.7593,-4.7657,-4.7283,-4.6576,-4.5761,-4.549,-4.5345,-4.4548,-4.4277,-4.4095,-4.3172,-4.2901,-4.2901,-4.2901,-4.339,-4.3932,-4.4059,-4.52,-4.6359,-4.6468,-4.72,-4.7627,-4.6721,-4.6791,-4.6524,-4.4766,-4.4599,-4.4504,-4.366,-4.3515,-4.3515,-4.3515,-4.3515,-4.3551,-4.3663,-4.4397,-4.4892,-4.4892,-4.5498,-4.5571,-4.4782,-4.5204,-4.4947,-4.3588,-4.3515,-4.3515,-4.3515,-4.3515,-4.3515,-4.3515,-4.3515,-4.3515,-4.3515,-4.3515,-4.3515,-4.3515,-4.3515,-4.3515,-3.0319,-3.1378,-3.2215,-3.1681,-3.2993,-3.4432,-3.4432,-3.4182,-3.3932,-3.3968,-3.4803,-3.5756,-3.6511,-3.729,-3.8188,-3.9256,-3.9328,-3.9595,-4.0524,-4.0399,-4.0232,0.0,0.0,0.0,0.0,0.0,0.0,0.0,0.0,0.0,0.0,0.0,-4.027,-4.0966,-4.1029,-4.1517,-4.2586,-4.2602,-4.2602,-4.2602,-4.3279,-4.3608,-4.3608,-4.4298,-4.4615,-4.4615,0.0,-4.4731,-4.5008,-4.5511,-4.6049,-4.659,-4.7129,-4.749,-4.7663,-4.721,-4.6269,-4.52,-4.5273,-4.5019,-4.4584,-4.4222,-4.4095,-4.3951,-4.3155,-4.2901,-4.2901,-4.2901,-4.3173,-4.3534,-4.3987,-4.4965,-4.5832,-4.5827,-4.6545,-4.703,-4.623,-4.6572,-4.6689,-4.5535,-4.57,-4.5773,-4.4947,-4.4433,-4.4158,-4.4158,-4.3773,-4.3644,-4.4085,-4.4856,-4.5516,-4.5938,-4.6324,-4.6397,-4.603,-4.5553,-4.4947,-4.4195,-4.3736,-4.3515,-4.3515,-4.3515,-4.3515,-4.3515,-4.3515,-4.3515,-4.3515,-4.3515,-4.3515,-4.3515,-4.3515,-4.3515,-2.9968,-3.0945,-3.1993,-3.2403,-3.3767,-3.5027,-3.5165,-3.4775,-3.4412,-3.4639,-3.5256,-3.6041,-3.6833,-3.7981,-3.906,-3.9849,-3.9844,-3.9965,-4.0696,-4.0765,0.0,0.0,0.0,0.0,0.0,0.0,0.0,0.0,0.0,0.0,0.0,0.0,-3.957,-4.0237,-4.0254,-4.0853,-4.2085,-4.2101,-4.2263,-4.2602,-4.3279,-4.3525,-4.3376,-4.4231,-4.4513,-4.4344,-4.453,-4.4879,-4.5312,-4.5683,-4.6141,-4.665,-4.7003,-4.7156,-4.7047,-4.6232,-4.5164,-4.415,-4.4584,-4.4331,-4.3806,-4.3806,-4.3806,-4.3697,-4.31,-4.2901,-4.2901,-4.2901,-4.29,-4.3062,-4.3857,-4.4652,-4.5228,-4.5206,-4.5836,-4.6323,-4.5925,-4.6463,-4.6872,-4.6287,-4.6672,-4.6837,-4.6049,-4.5388,-4.4929,-4.4728,-4.4176,-4.3993,-4.4618,-4.5406,-4.6214,-4.7003,-4.7278,-4.7296,-4.7113,-4.5627,-4.4691,-4.4691,-4.3938,-4.3515,-4.3515,-4.3515,-4.3515,-4.3515,-4.3515,-4.3515,-4.3515,-4.3515,-4.3515,-4.3515,-4.3515,-4.3515,-3.1036,-3.1696,-3.2354,-3.3495,-3.3739,-3.3891,-3.4448,-3.4251,-3.3988,-3.4204,-3.5051,-3.5941,-3.6297,-3.7657,-3.8649,-3.8561,-3.9205,-3.9965,-4.0696,0.0,0.0,0.0,0.0,0.0,0.0,0.0,0.0,0.0,0.0,0.0,0.0,0.0,0.0,-3.9554,-3.9586,-3.9927,-4.0642,-4.0642,-4.1322,-4.2602,-4.3279,-4.323,-4.2618,-4.3995,-4.4181,-4.3538,-4.4265,-4.4879,-4.5277,-4.5082,-4.5288,-4.5771,-4.5542,-4.5472,-4.5381,-4.4566,-4.4186,-4.3987,-4.3318,-4.3027,-4.2992,-4.2992,-4.2992,-4.2992,-4.2919,-4.2901,-4.2901,-4.2901,-4.2861,-4.2983,-4.3796,-4.4509,-4.5083,-4.5249,-4.5443,-4.5834,-4.6684,-4.7,-4.7094,-4.7021,-4.7058,-4.6837,-4.6049,-4.5847,-4.5571,-4.4801,-4.4636,-4.4635,-4.4691,-4.5406,-4.6214,-4.7003,-4.7755,-4.7901,-4.7168,-4.5627,-4.4691,-4.4691,-4.3938,-4.3515,-4.3515,-4.3515,-4.3515,-4.3515,-4.3515,-4.3515,-4.3515,-4.3515,-4.3515,-4.3515,-4.3515,-4.3515,-3.008,-3.1018,-3.186,-3.2449,-3.2932,-3.353,-3.4618,-3.475,-3.4802,-3.5304,-3.5698,-3.6164,-3.6805,-3.8429,-3.9535,-3.9182,-3.9955,-4.0677,0.0,0.0,0.0,0.0,0.0,0.0,0.0,0.0,0.0,0.0,0.0,0.0,0.0,0.0,0.0,-3.9489,-3.9505,-3.98,-4.048,-4.0496,-4.0772,-4.1306,-4.1946,-4.2088,-4.1839,-4.2768,-4.2997,-4.2787,-4.3866,-4.4371,-4.4429,-4.5105,-4.5427,-4.5444,-4.5339,-4.4983,-4.4512,-4.4204,-4.3769,-4.3318,-4.301,-4.2901,-4.2901,-4.2901,-4.2901,-4.2901,-4.2901,-4.2901,-4.2901,-4.2901,-4.2786,-4.276,-4.3162,-4.375,-4.4178,-4.3833,-4.4261,-4.5016,-4.5914,-4.6249,-4.6654,-4.7645,-4.7846,-4.7736,-4.7443,-4.6985,-4.6526,-4.6232,-4.5333,-4.4892,-4.5388,-4.5718,-4.6214,-4.7003,-4.7369,-4.7223,-4.6434,-4.5351,-4.4488,-4.3993,-4.3663,-4.3515,-4.3515,-4.3515,-4.3515,-4.3515,-4.3515,-4.3515,-4.3515,-4.3515,-4.3515,-4.3515,-4.3515,-4.3515,-2.9964,-3.1012,-3.1938,-3.2068,-3.2631,-3.3523,-3.4906,-3.4991,-3.5047,-3.5908,-3.6032,-3.6258,-3.7148,-3.8568,0.0,0.0,-4.0509,0.0,0.0,0.0,0.0,0.0,0.0,0.0,0.0,0.0,0.0,0.0,0.0,0.0,0.0,0.0,0.0,0.0,-3.9136,-3.9363,-3.9816,-3.9833,-3.9833,-3.9833,-4.0449,-4.0845,-4.1077,-4.1917,-4.2168,-4.2008,-4.3297,-4.3801,-4.3857,-4.4636,-4.4791,-4.453,-4.453,-4.4204,-4.3715,-4.3715,-4.3371,-4.2901,-4.2901,-4.2901,-4.2901,-4.2901,-4.2901,-4.2901,-4.2901,-4.2901,-4.2901,-4.2901,-4.2747,-4.2629,-4.2707,-4.3023,-4.3252,-4.291,-4.3553,-4.4505,-4.5478,-4.6011,-4.6691,-4.8049,-4.8306,-4.8306,-4.8306,-4.7828,-4.7388,-4.7131,-4.6159,-4.5645,-4.6214,-4.6287,-4.6599,-4.7388,-4.7241,-4.6764,-4.5975,-4.5168,-4.436,-4.3551,-4.3515,-4.3515,-4.3515,-4.3515,-4.3515,-4.3515,-4.3515,-4.3515,-4.3515,-4.3515,-4.3515,-4.3515,-4.3515,-4.3515,-3.1168,-3.204,-3.2857,-3.2721,-3.3128,-3.3937,-3.5137,-3.4791,-3.4569,-3.5826,-3.5898,-3.6017,-3.7095,-3.7933,0.0,-3.9748,-4.0578,0.0,0.0,0.0,0.0,0.0,0.0,0.0,0.0,0.0,0.0,0.0,0.0,0.0,0.0,0.0,0.0,0.0,-3.8391,0.0,-3.8391,-3.8391,-3.8391,-3.8408,-3.8952,-3.9587,-4.0343,-4.1675,-4.188,-4.1264,-4.2457,-4.3298,-4.3752,-4.3425,-4.3158,-4.2901,-4.2901,-4.2901,-4.2901,-4.2901,-4.2901,-4.2901,-4.2901,-4.2901,-4.2901,-4.2901,-4.2901,-4.2901,-4.2901,-4.29,-4.29,-4.2901,-4.2767,-4.2609,-4.2609,-4.245,-4.2409,-4.2824,-4.3535,-4.4429,-4.5645,-4.6544,-4.7333,-4.8141,-4.8306,-4.8306,-4.8306,-4.8306,-4.8031,-4.7223,-4.7094,-4.7094,-4.7094,-4.7113,-4.7424,-4.8214,-4.7571,-4.6782,-4.5975,-4.5168,-4.4378,-4.357,-4.3533,-4.3533,-4.3515,-4.3515,-4.3533,-4.3533,-4.3533,-4.3515,-4.3515,-4.3515,-4.3515,-4.3515,-4.3515,-4.3515,-3.0528,-3.1486,-3.2501,-3.1992,-3.2823,-3.4083,-3.5029,-3.5018,-3.5022,-3.5681,-3.6094,-3.6517,-3.7109,-3.8157,0.0,-3.9908,0.0,0.0,0.0,0.0,0.0,0.0,0.0,0.0,0.0,0.0,0.0,0.0,0.0,0.0,0.0,0.0,0.0,0.0,0.0,0.0,-3.8391,-3.8391,-3.8391,-3.8408,-3.8952,-3.9305,-3.9564,-4.038,-4.0637,-4.0519,-4.2116,-4.2561,-4.2233,-4.2788,-4.2967,-4.2901,-4.2901,-4.2901,-4.2901,-4.2901,-4.2901,-4.2901,-4.2901,-4.2901,-4.2882,-4.2842,-4.2823,-4.2823,-4.2823,-4.2765,-4.2728,-4.2956,-4.2899,-4.2783,-4.2918,-4.2842,-4.2749,-4.2863,-4.3612,-4.46,-4.5663,-4.6544,-4.7333,-4.8141,-4.8306,-4.8306,-4.8306,-4.8306,-4.8233,-4.7994,-4.7461,-4.7094,-4.7094,-4.759,-4.8049,-4.8269,-4.7571,-4.7003,-4.6746,-4.6012,-4.5443,-4.5204,-4.5186,-4.4929,-4.4378,-4.4342,-4.4617,-4.5168,-4.4635,-4.4342,-4.4342,-4.3773,-4.3515,-4.3515,-4.3515,-4.3515,-3.1925,-3.2713,-3.3462,-3.2979,-3.3571,-3.4461,-3.523,-3.5446,-3.5541,-3.5682,-3.6253,-3.6807,-3.711,-3.8159,0.0,0.0,0.0,0.0,0.0,0.0,0.0,0.0,0.0,0.0,0.0,0.0,0.0,0.0,0.0,0.0,0.0,0.0,0.0,0.0,0.0,0.0,-3.8391,-3.8391,-3.8391,-3.8408,-3.8952,-3.9206,-3.9232,-3.9825,-4.0096,-4.0163,-4.1603,-4.2163,-4.2098,-4.2673,-4.2901,-4.2901,-4.2901,-4.2901,-4.2901,-4.2901,-4.2901,-4.2901,-4.2901,-4.2901,-4.29,-4.2822,-4.2803,-4.2783,-4.2745,-4.2668,-4.2668,-4.2937,-4.2918,-4.2859,-4.3049,-4.305,-4.3031,-4.3031,-4.3979,-4.5058,-4.5755,-4.6783,-4.7718,-4.8214,-4.8306,-4.8306,-4.8306,-4.8306,-4.8306,-4.8306,-4.7902,-4.7571,-4.7571,-4.8012,-4.8306,-4.8306,-4.7571,-4.7094,-4.7094,-4.6361,-4.5902,-4.5902,-4.5902,-4.5828,-4.5663,-4.5351,-4.5406,-4.5883,-4.5424,-4.5186,-4.5168,-4.4378,-4.3975,-4.3975,-4.3662,-4.3515,-3.4318,-3.486,-3.5204,-3.5133,-3.5048,-3.5124,-3.5588,-3.5857,-3.5924,-3.575,-3.6279,-3.683,-3.7061,-3.784,-3.8554,0.0,0.0,0.0,0.0,0.0,0.0,0.0,0.0,0.0,0.0,0.0,0.0,0.0,0.0,0.0,0.0,0.0,0.0,0.0,0.0,0.0,-3.8391,-3.8391,-3.8391,0.0,-3.8952,-3.9206,-3.9232,-3.9825,-4.0146,-4.0279,-4.1185,-4.2077,-4.2901,-4.2901,-4.2901,-4.2901,-4.2901,-4.2901,-4.2901,-4.2901,-4.2901,-4.2901,-4.2882,-4.29,-4.2881,-4.2803,-4.2764,-4.2745,-4.2629,-4.2589,-4.2629,-4.2862,-4.2861,-4.286,-4.3086,-4.3196,-4.3233,-4.3233,-4.4455,-4.5679,-4.5865,-4.7168,-4.8306,-4.8306,-4.8306,-4.8306,-4.8306,-4.8306,-4.8306,-4.8306,-4.8306,-4.8306,-4.8306,-4.8306,-4.8306,-4.8306,-4.7645,-4.7204,-4.7204,-4.6544,-4.6122,-4.6122,-4.6122,-4.6452,-4.7168,-4.6452,-4.6049,-4.6122,-4.6049,-4.6012,-4.6012,-4.5131,-4.4691,-4.4673,-4.3864,-4.3515,-3.388,-3.4543,-3.5481,-3.5967,-3.6264,-3.6314,-3.579,-3.5357,-3.5207,-3.5615,-3.5703,-3.6043,-3.7136,-3.7218,0.0,0.0,0.0,0.0,0.0,0.0,0.0,0.0,0.0,0.0,0.0,0.0,0.0,0.0,0.0,0.0,0.0,0.0,0.0,0.0,0.0,-3.8391,-3.8391,-3.8391,-3.8391,0.0,-3.8952,-3.9206,-3.9232,-3.9825,-4.049,-4.1213,-4.1803,-4.236,-4.2901,-4.2901,-4.2901,-4.2901,-4.2901,-4.2901,-4.2901,-4.2901,-4.2901,-4.2882,-4.2842,-4.2822,-4.2803,-4.2625,-4.2564,-4.2564,-4.2544,-4.2447,-4.247,-4.2936,-4.2975,-4.2957,-4.3322,-4.3428,-4.3445,-4.3445,-4.4655,-4.5847,-4.5902,-4.7168,-4.8306,-4.8306,-4.8306,-4.8306,-4.8306,-4.8306,-4.8306,-4.8306,-4.8306,-4.8306,-4.8306,-4.8306,-4.8306,-4.8306,-4.8159,-4.8049,-4.8049,-4.7884,-4.7792,-4.7792,-4.7792,-4.7865,-4.8031,-4.7259,-4.7131,-4.7774,-4.7149,-4.6837,-4.6837,-4.5388,-4.4691,-4.4673,-4.3864,-4.3515,-3.4439,-3.513,-3.6053,-3.7002,-3.7339,-3.7171,-3.6092,-3.5889,-3.5781,-3.5452,-3.532,-3.5522,-3.6207,0.0,0.0,0.0,0.0,0.0,0.0,0.0,0.0,0.0,0.0,0.0,0.0,0.0,0.0,0.0,0.0,0.0,0.0,-3.8391,0.0,0.0,-3.8391,-3.8391,-3.8391,-3.8391,-3.8391,-3.8391,-3.8805,-3.9169,-3.9461,-4.0137,-4.0832,-4.1525,-4.2011,-4.2458,-4.2901,-4.2901,-4.2901,-4.2901,-4.2901,-4.2901,-4.2901,-4.2901,-4.2901,-4.29,-4.2861,-4.2841,-4.2764,-4.2588,-4.2544,-4.2483,-4.2425,-4.2366,-4.2409,-4.2861,-4.2938,-4.2976,-4.3392,-4.3515,-4.3515,-4.3515,-4.4727,-4.5902,-4.5902,-4.7168,-4.8306,-4.8306,-4.8306,-4.8306,-4.8306,-4.8306,-4.8306,-4.8306,-4.8306,-4.8306,-4.8306,-4.8306,-4.8306,-4.8306,-4.8306,-4.8306,-4.8306,-4.8306,-4.8306,-4.8306,-4.8306,-4.8306,-4.8306,-4.7901,-4.7865,-4.8306,-4.7902,-4.7663,-4.7663,-4.6067,-4.5278,-4.5259,-4.4048,-4.3515,-3.51,-3.6008,-3.6922,-3.7886,-3.8127,-3.7796,-3.6495,-3.6507,-3.6425,-3.5283,-3.5111,-3.5231,-3.5357,0.0,0.0,0.0,0.0,0.0,0.0,0.0,0.0,0.0,0.0,0.0,0.0,0.0,0.0,0.0,0.0,0.0,-3.8391,0.0,-3.8391,-3.8391,-3.8391,-3.8391,-3.8391,-3.8391,-3.8391,-3.8391,-3.8722,-3.9195,-3.9841,-4.0587,-4.1116,-4.1525,-4.2077,-4.2537,-4.2901,-4.2901,-4.2901,-4.2901,-4.2901,-4.2901,-4.2901,-4.2901,-4.2901,-4.29,-4.29,-4.2842,-4.2745,-4.2609,-4.2528,-4.2445,-4.2369,-4.2348,-4.245,-4.2843,-4.2939,-4.305,-4.3392,-4.3515,-4.3551,-4.3663,-4.4819,-4.5902,-4.5902,-4.7168,-4.8306,-4.8306,-4.8306,-4.8306,-4.8306,-4.8306,-4.8306,-4.8306,-4.8306,-4.8306,-4.8306,-4.8306,-4.8306,-4.8306,-4.8306,-4.8306,-4.8306,-4.8306,-4.8306,-4.8306,-4.8306,-4.8306,-4.8306,-4.8306,-4.8306,-4.8306,-4.8306,-4.8306,-4.8306,-4.6819,-4.6049,-4.5865,-4.4378,-4.3626,-3.4745,-3.6554,-3.8223,-3.8257,-3.8275,-3.8032,-3.7172,-3.6194,-3.5418,0.0,-3.5177,-3.5392,0.0,0.0,0.0,0.0,0.0,0.0,0.0,0.0,0.0,0.0,0.0,0.0,0.0,0.0,0.0,0.0,0.0,0.0,-3.8363,-3.8391,-3.8391,-3.8391,-3.8391,-3.8391,-3.8391,-3.8391,-3.8391,-3.8408,-3.8898,-3.9558,-4.0343,-4.1053,-4.1437,-4.1547,-4.2438,-4.2844,-4.2901,-4.2901,-4.2901,-4.2901,-4.2901,-4.2901,-4.2901,-4.2901,-4.2901,-4.2882,-4.2823,-4.2727,-4.2609,-4.2526,-4.2425,-4.2366,-4.251,-4.257,-4.2631,-4.305,-4.316,-4.3196,-4.3427,-4.3515,-4.368,-4.4378,-4.5241,-4.5902,-4.5902,-4.7168,-4.8306,-4.8306,-4.8306,-4.8306,-4.8306,-4.8306,-4.8306,-4.8306,-4.8306,-4.8306,-4.8306,-4.8306,-4.8306,-4.8306,-4.8306,-4.8306,-4.8306,-4.8306,-4.8306,-4.8306,-4.8306,-4.8306,-4.8306,-4.8306,-4.8306,-4.8306,-4.8306,-4.8306,-4.8306,-4.7369,-4.6581,-4.5883,-4.4966,-4.4176,-3.468,-3.636,-3.7791,-3.8499,-3.8559,-3.8115,-3.6956,-3.6573,-3.6267,-3.5481,-3.5654,0.0,0.0,0.0,0.0,0.0,0.0,0.0,0.0,0.0,0.0,0.0,0.0,0.0,0.0,0.0,0.0,0.0,0.0,-3.8046,-3.8363,-3.8391,-3.8391,-3.8391,-3.8391,-3.8197,-3.7792,-3.7792,-3.7792,-3.7809,-3.8755,-3.9516,-4.0152,-4.0601,-4.1225,-4.1931,-4.2614,-4.2901,-4.2901,-4.2901,-4.2901,-4.2901,-4.2901,-4.2901,-4.2901,-4.2901,-4.2901,-4.29,-4.2822,-4.2725,-4.2589,-4.2506,-4.2405,-4.2348,-4.255,-4.2609,-4.267,-4.3087,-4.3214,-4.3251,-4.3463,-4.3463,-4.3648,-4.4454,-4.5205,-4.5863,-4.6321,-4.7385,-4.8306,-4.8306,-4.8306,-4.8159,-4.77,-4.7626,-4.7626,-4.7626,-4.7626,-4.7791,-4.8251,-4.8306,-4.8306,-4.8306,-4.8306,-4.8306,-4.8306,-4.8306,-4.8306,-4.8306,-4.8306,-4.8306,-4.8306,-4.8306,-4.8306,-4.8306,-4.8306,-4.8306,-4.8306,-4.748,-4.6691,-4.5883,-4.5076,-4.4268,-3.4729,-3.5694,-3.6548,-3.8309,-3.8366,-3.7763,-3.6874,-3.6985,-3.6965,0.0,-3.6116,0.0,0.0,0.0,0.0,0.0,0.0,0.0,0.0,0.0,0.0,0.0,0.0,0.0,0.0,0.0,0.0,0.0,0.0,-3.796,-3.8363,-3.823,-3.8116,-3.8116,-3.797,-3.7614,-3.7036,-3.7198,-3.7431,-3.7692,-3.8817,-3.9563,-3.991,-4.0306,-4.0949,-4.1787,-4.2351,-4.2592,-4.2611,-4.2829,-4.2901,-4.2901,-4.2901,-4.2901,-4.2901,-4.2901,-4.29,-4.2862,-4.2822,-4.2706,-4.2568,-4.2524,-4.2445,-4.2409,-4.2629,-4.2709,-4.2824,-4.3178,-4.3286,-4.3322,-4.3445,-4.3446,-4.365,-4.4675,-4.5296,-4.5933,-4.6937,-4.7584,-4.7974,-4.7993,-4.7829,-4.7498,-4.6892,-4.6801,-4.6856,-4.7076,-4.7094,-4.7388,-4.8214,-4.8306,-4.8306,-4.8306,-4.8306,-4.8306,-4.8306,-4.8306,-4.8306,-4.8306,-4.8306,-4.8306,-4.8306,-4.8306,-4.8306,-4.8306,-4.8306,-4.8306,-4.8306,-4.77,-4.6893,-4.5883,-4.5278,-4.458,-3.474,-3.4649,-3.4618,-3.7358,-3.7312,-3.6753,-3.7322,-3.6968,-3.6538,-3.646,0.0,0.0,0.0,0.0,0.0,0.0,0.0,0.0,0.0,0.0,0.0,0.0,0.0,0.0,0.0,0.0,0.0,0.0,0.0,-3.7711,-3.8379,-3.7744,-3.7344,-3.7344,-3.6756,-3.64,-3.6367,-3.6972,-3.7785,-3.8739,-3.9518,-3.9883,-3.9936,-4.0636,-4.0821,-4.0637,-4.1433,-4.1759,-4.1813,-4.2592,-4.2901,-4.2901,-4.2901,-4.2901,-4.2901,-4.2901,-4.2861,-4.2803,-4.2803,-4.2665,-4.2503,-4.2503,-4.2546,-4.2629,-4.2806,-4.3013,-4.3196,-4.341,-4.3479,-4.348,-4.3411,-4.3412,-4.3797,-4.5352,-4.5754,-4.6211,-4.7785,-4.7565,-4.7072,-4.7149,-4.6562,-4.6012,-4.5975,-4.5957,-4.6214,-4.6984,-4.7094,-4.7388,-4.8214,-4.8306,-4.8306,-4.8306,-4.8306,-4.8306,-4.8306,-4.8306,-4.8306,-4.8306,-4.8306,-4.8306,-4.8306,-4.8306,-4.8306,-4.8306,-4.8306,-4.8306,-4.8306,-4.8269,-4.7443,-4.5902,-4.5865,-4.5406,-3.3628,-3.3695,-3.3867,-3.5775,-3.5512,-3.5079,-3.6196,-3.6152,-3.5845,-3.5845,0.0,0.0,0.0,0.0,0.0,0.0,0.0,0.0,0.0,0.0,0.0,0.0,0.0,0.0,0.0,0.0,0.0,0.0,0.0,0.0,-3.7667,-3.7048,-3.6675,-3.6675,-3.6432,-3.6303,-3.6303,-3.6716,-3.7061,-3.7396,-3.8791,-3.9356,-3.9208,-3.9383,-3.9586,-3.9804,-4.0111,-4.08,-4.1723,-4.1994,-4.2429,-4.2901,-4.2901,-4.2901,-4.2882,-4.2861,-4.2822,-4.2764,-4.2645,-4.2564,-4.2483,-4.2405,-4.2387,-4.247,-4.2746,-4.2918,-4.3068,-4.334,-4.3429,-4.3429,-4.3412,-4.3305,-4.3615,-4.5219,-4.6022,-4.6629,-4.729,-4.7238,-4.6928,-4.6415,-4.6104,-4.5736,-4.5223,-4.5131,-4.5241,-4.5517,-4.6012,-4.6636,-4.7424,-4.7994,-4.8306,-4.8306,-4.8306,-4.8306,-4.8306,-4.8306,-4.8306,-4.8306,-4.8306,-4.8306,-4.8306,-4.8306,-4.8306,-4.8306,-4.8306,-4.8306,-4.8306,-4.8306,-4.7755,-4.6654,-4.614,-4.548,-3.3196,-3.3083,-3.3135,-3.4814,-3.4593,-3.4347,-3.571,-3.5706,-3.5495,-3.5595,0.0,0.0,0.0,0.0,0.0,0.0,0.0,0.0,0.0,0.0,0.0,0.0,0.0,0.0,0.0,0.0,0.0,0.0,0.0,0.0,-3.7311,-3.6675,-3.6076,-3.559,-3.5574,-3.5687,-3.593,-3.6202,-3.6481,-3.6772,-3.8333,-3.8881,-3.8552,-3.8762,-3.8924,-3.9006,-3.9006,-3.9731,-4.0963,-4.1198,-4.1778,-4.2502,-4.2502,-4.2647,-4.2882,-4.2804,-4.2764,-4.2706,-4.2564,-4.2483,-4.2425,-4.2346,-4.2369,-4.251,-4.2746,-4.29,-4.305,-4.3323,-4.3358,-4.3323,-4.3305,-4.3634,-4.4142,-4.4943,-4.6041,-4.6795,-4.6322,-4.625,-4.6103,-4.559,-4.5278,-4.4911,-4.4397,-4.4305,-4.4397,-4.4672,-4.5388,-4.6195,-4.7003,-4.7791,-4.8306,-4.8306,-4.8306,-4.8306,-4.8306,-4.8306,-4.8306,-4.8306,-4.8306,-4.8306,-4.8306,-4.8306,-4.8306,-4.8306,-4.8306,-4.8306,-4.8306,-4.8306,-4.7755,-4.6672,-4.6159,-4.548,0.0,0.0,0.0,-3.4496,-3.4668,-3.4642,-3.5878,0.0,-3.5435,-3.5792,0.0,0.0,0.0,0.0,0.0,0.0,0.0,0.0,0.0,0.0,0.0,0.0,0.0,0.0,0.0,0.0,0.0,0.0,0.0,-3.7676,-3.7295,-3.6627,-3.559,-3.4149,-3.4101,-3.4441,-3.5195,-3.5468,-3.6107,-3.7069,-3.8231,-3.8496,-3.7988,-3.8941,-3.8934,-3.8209,-3.8209,-3.8644,-3.9405,-4.0166,-4.0926,-4.1669,-4.1669,-4.2158,-4.2864,-4.2768,-4.2689,-4.2589,-4.2524,-4.2405,-4.2308,-4.2308,-4.251,-4.2803,-4.2881,-4.305,-4.3233,-4.3376,-4.3305,-4.3178,-4.3123,-4.4325,-4.5366,-4.4601,-4.5736,-4.6599,-4.504,-4.4619,-4.4583,-4.4636,-4.403,-4.3515,-4.3515,-4.3515,-4.3754,-4.4562,-4.5369,-4.6177,-4.6947,-4.7791,-4.8306,-4.8306,-4.8306,-4.8306,-4.8306,-4.8306,-4.8306,-4.8306,-4.8306,-4.8306,-4.8306,-4.8306,-4.8306,-4.8306,-4.8288,-4.8269,-4.8269,-4.8269,-4.7462,-4.592,-4.5883,-4.5424,-3.2896,0.0,0.0,0.0,0.0,0.0,0.0,0.0,-3.4099,-3.4829,0.0,0.0,0.0,0.0,0.0,0.0,0.0,0.0,0.0,0.0,0.0,0.0,0.0,0.0,0.0,0.0,0.0,0.0,-3.7114,-3.6707,-3.6567,-3.5396,-3.4522,-3.4117,-3.4101,-3.4441,-3.5195,-3.5678,-3.6009,-3.6257,-3.758,-3.7854,-3.7235,-3.8133,-3.8408,-3.8209,-3.8209,-3.8336,-3.8589,-3.9369,-4.0148,-4.0836,-4.0836,-4.1288,-4.1955,-4.1823,-4.2104,-4.2506,-4.2387,-4.2328,-4.2308,-4.2308,-4.247,-4.2668,-4.2785,-4.2994,-4.3214,-4.3251,-4.3233,-4.316,-4.2994,-4.3812,-4.4616,-4.4436,-4.4857,-4.5187,-4.4801,-4.4232,-4.3811,-4.3828,-4.3662,-4.3515,-4.3515,-4.3515,-4.3588,-4.3791,-4.5002,-4.5975,-4.6214,-4.7443,-4.8306,-4.8306,-4.8306,-4.8306,-4.8306,-4.8306,-4.8306,-4.8306,-4.8306,-4.8306,-4.8306,-4.8306,-4.8306,-4.8306,-4.7718,-4.7424,-4.7424,-4.7424,-4.7186,-4.6727,-4.5571,-4.4599,-3.3141,-3.2862,-3.2819,-3.308,0.0,0.0,-3.4505,-3.429,0.0,0.0,0.0,0.0,0.0,0.0,0.0,0.0,0.0,0.0,0.0,0.0,0.0,0.0,0.0,0.0,0.0,0.0,0.0,0.0,-3.7447,-3.6918,-3.6335,-3.491,-3.4101,-3.4101,-3.4101,-3.4311,-3.4732,-3.5268,-3.5512,-3.5495,-3.687,-3.7319,-3.6919,-3.7792,-3.8209,-3.8209,-3.8209,-3.8209,-3.8245,-3.8716,-3.9351,-4.0039,-3.9968,-4.0438,-4.1087,-4.0919,-4.1344,-4.1984,-4.1846,-4.2022,-4.2308,-4.2308,-4.247,-4.2688,-4.2804,-4.2994,-4.316,-4.3196,-4.3142,-4.305,-4.292,-4.3611,-4.4233,-4.3924,-4.4199,-4.4455,-4.4198,-4.3794,-4.3463,-4.3479,-4.3515,-4.3515,-4.3515,-4.3515,-4.3515,-4.3515,-4.4856,-4.5902,-4.5902,-4.7297,-4.8306,-4.8306,-4.8306,-4.8306,-4.8306,-4.7975,-4.7938,-4.8288,-4.7975,-4.7957,-4.8306,-4.8306,-4.8141,-4.781,-4.7333,-4.6764,-4.6104,-4.6434,-4.6415,-4.6085,-4.5131,-4.4268,-3.3985,-3.3388,-3.3002,-3.3634,-3.3592,0.0,-3.46,-3.4565,-3.4551,0.0,0.0,0.0,0.0,0.0,0.0,0.0,0.0,0.0,0.0,0.0,0.0,0.0,0.0,0.0,0.0,-3.7648,-3.7897,-3.796,-3.8169,-3.7663,-3.6254,-3.4926,-3.4182,-3.4101,-3.4101,-3.4101,-3.4101,-3.4618,-3.4899,-3.4923,-3.6253,-3.69,-3.6919,-3.7792,-3.8209,-3.8209,-3.8209,-3.8209,-3.8209,-3.8174,-3.8608,-3.9225,-3.9119,-3.9535,-4.0221,-4.0036,-4.0515,-4.1248,-4.1149,-4.1647,-4.2308,-4.2328,-4.255,-4.2822,-4.29,-4.3012,-4.3105,-4.3178,-4.305,-4.2901,-4.2901,-4.352,-4.3977,-4.3268,-4.3688,-4.4108,-4.3523,-4.3412,-4.3429,-4.3497,-4.3515,-4.3515,-4.3515,-4.3515,-4.3515,-4.3515,-4.4782,-4.5792,-4.5883,-4.715,-4.8067,-4.8159,-4.8104,-4.8031,-4.8031,-4.7369,-4.7259,-4.7994,-4.7351,-4.7278,-4.8012,-4.8031,-4.77,-4.6984,-4.6874,-4.6085,-4.4563,-4.5369,-4.5351,-4.458,-4.458,-4.4176,-3.496,-3.5137,-3.5243,-3.4022,-3.4181,0.0,-3.3917,-3.3743,-3.3732,0.0,0.0,0.0,0.0,0.0,0.0,0.0,0.0,0.0,0.0,0.0,0.0,0.0,0.0,0.0,0.0,-3.8693,-3.86,-3.831,-3.7829,-3.6902,-3.5503,-3.5146,-3.47,-3.4117,-3.4101,-3.4101,-3.4101,-3.4618,-3.4899,-3.4923,-3.6253,-3.69,-3.6919,-3.7792,-3.8209,-3.8209,-3.8209,-3.8209,-3.8192,-3.807,-3.8126,-3.8271,-3.8235,-3.8617,-3.9192,-3.9137,-3.9975,-4.1149,-4.1109,-4.1705,-4.2465,-4.251,-4.2707,-4.29,-4.303,-4.3123,-4.316,-4.3123,-4.3012,-4.2901,-4.2901,-4.3028,-4.3156,-4.3122,-4.3269,-4.3415,-4.3395,-4.3446,-4.348,-4.3497,-4.3515,-4.3515,-4.3515,-4.3515,-4.3515,-4.3515,-4.4323,-4.5168,-4.581,-4.6177,-4.6617,-4.7259,-4.6764,-4.6379,-4.6379,-4.6214,-4.6195,-4.6361,-4.6214,-4.6195,-4.6361,-4.6379,-4.6287,-4.614,-4.5498,-4.4709,-4.3736,-4.4544,-4.4525,-4.3718,-4.3718,-4.3662,-3.583,-3.5687,-3.5545,-3.5013,0.0,0.0,0.0,-3.3811,-3.3756,-3.4436,-3.4286,0.0,0.0,0.0,0.0,0.0,0.0,0.0,0.0,0.0,0.0,0.0,0.0,0.0,0.0,-3.8595,-3.855,-3.8396,-3.7728,-3.6972,-3.6287,-3.56,-3.5033,-3.4651,-3.4279,-3.4101,-3.4101,-3.4618,-3.4984,-3.5214,-3.6357,-3.7017,-3.7227,-3.7898,-3.8209,-3.8209,-3.8209,-3.8157,-3.8105,-3.8036,-3.7932,-3.7845,-3.7845,-3.8043,-3.8294,-3.8276,-3.9203,-4.0503,-4.0579,-4.1443,-4.2503,-4.2588,-4.2785,-4.2994,-4.2994,-4.3086,-4.3142,-4.3031,-4.2938,-4.2901,-4.2901,-4.2901,-4.2919,-4.2994,-4.3031,-4.3087,-4.3251,-4.3322,-4.3375,-4.3479,-4.3515,-4.3515,-4.3515,-4.3515,-4.3515,-4.3515,-4.4176,-4.4856,-4.5259,-4.5645,-4.6049,-4.6471,-4.614,-4.5902,-4.5902,-4.5535,-4.548,-4.5865,-4.5516,-4.548,-4.5883,-4.5902,-4.5718,-4.5314,-4.4507,-4.3901,-4.3515,-4.3901,-4.3883,-4.3515,-4.3515,-4.3515,0.0,0.0,-3.5386,0.0,0.0,-3.4041,0.0,0.0,0.0,-3.4953,0.0,0.0,0.0,0.0,0.0,0.0,0.0,0.0,0.0,0.0,0.0,0.0,0.0,0.0,0.0,-3.8387,-3.8278,-3.8391,-3.7857,-3.7441,-3.7295,-3.6092,-3.5357,-3.5211,-3.4473,-3.4126,-3.4176,-3.4667,-3.5131,-3.5587,-3.6484,-3.7113,-3.7523,-3.8003,-3.8209,-3.8209,-3.8174,-3.8105,-3.8001,-3.7949,-3.7845,-3.7703,-3.7703,-3.7685,-3.7667,-3.7613,-3.8487,-3.97,-3.9815,-4.0929,-4.2293,-4.2413,-4.2734,-4.3086,-4.2975,-4.2994,-4.303,-4.2938,-4.2901,-4.2901,-4.2901,-4.2901,-4.2901,-4.2901,-4.2919,-4.2975,-4.3142,-4.3214,-4.3286,-4.3445,-4.3497,-4.3515,-4.3515,-4.3515,-4.3515,-4.3515,-4.4048,-4.4525,-4.4673,-4.5131,-4.5498,-4.5645,-4.5535,-4.5443,-4.5443,-4.4837,-4.4745,-4.5388,-4.4837,-4.4764,-4.5406,-4.5443,-4.5131,-4.4488,-4.3828,-4.3515,-4.3515,-4.3515,-4.3515,-4.3515,-4.3515,-4.3515,0.0,0.0,0.0,0.0,-3.5152,0.0,0.0,0.0,-3.3667,-3.3018,0.0,0.0,0.0,0.0,0.0,0.0,0.0,0.0,0.0,0.0,0.0,0.0,0.0,0.0,0.0,0.0,0.0,-3.8391,-3.8327,-3.8003,-3.7328,-3.6594,-3.5882,-3.5228,-3.4473,-3.4226,-3.4448,-3.4739,-3.5224,-3.5868,-3.6563,-3.7113,-3.7523,-3.8003,-3.8209,-3.8192,-3.807,-3.8001,-3.7984,-3.781,-3.7721,-3.7703,-3.7703,-3.7649,-3.7613,-3.7595,-3.8148,-3.8933,-3.9009,-4.0124,-4.1548,-4.1738,-4.2394,-4.3104,-4.3086,-4.2994,-4.2919,-4.2901,-4.2901,-4.2901,-4.2901,-4.2901,-4.2901,-4.2901,-4.2994,-4.3086,-4.3104,-4.3251,-4.3376,-4.3412,-4.3445,-4.3515,-4.3515,-4.3515,-4.3515,-4.3515,-4.3588,-4.3883,-4.4617,-4.4158,-4.4048,-4.4764,-4.4195,-4.3772,-4.3772,-4.3698,-4.368,-4.3772,-4.3698,-4.368,-4.3772,-4.3772,-4.3718,-4.3626,-4.3551,-4.3515,-4.3515,-4.3515,-4.3515,-4.3515,-4.3515,-4.3515,0.0,0.0,0.0,0.0,0.0,0.0,-3.3709,0.0,-3.3354,0.0,0.0,0.0,0.0,0.0,0.0,0.0,0.0,0.0,0.0,0.0,0.0,0.0,0.0,0.0,0.0,0.0,0.0,0.0,0.0,-3.8497,-3.797,-3.7274,-3.6562,-3.5849,-3.5259,-3.4823,-3.4497,-3.5155,-3.5737,-3.626,-3.6923,-3.7487,-3.7897,-3.8106,-3.8209,-3.8192,-3.8053,-3.7984,-3.7933,-3.7775,-3.7774,-3.7862,-3.7828,-3.7739,-3.7613,-3.7757,-3.8259,-3.8884,-3.9031,-3.9842,-4.0942,-4.1633,-4.205,-4.2395,-4.2978,-4.305,-4.2901,-4.2901,-4.2901,-4.2901,-4.2901,-4.2901,-4.2901,-4.2901,-4.2938,-4.3012,-4.3086,-4.316,-4.3269,-4.3376,-4.3411,-4.3445,-4.3497,-4.3515,-4.3515,-4.3515,-4.3515,-4.3608,-4.3956,-4.3699,-4.3643,-4.3975,-4.3699,-4.3515,-4.3515,-4.3515,-4.3515,-4.3515,-4.3515,-4.3515,-4.3515,-4.3515,-4.3515,-4.3515,-4.3515,-4.3515,-4.3515,-4.3515,-4.3515,-4.3515,-4.3515,-4.3515,-3.7363,0.0,0.0,0.0,0.0,0.0,0.0,0.0,0.0,0.0,0.0,0.0,0.0,0.0,0.0,0.0,0.0,0.0,0.0,0.0,0.0,0.0,0.0,0.0,0.0,0.0,0.0,0.0,0.0,0.0,-3.892,-3.8019,-3.7236,-3.6623,-3.5946,-3.5317,-3.4778,-3.5515,-3.6194,-3.677,-3.7267,-3.7756,-3.8209,-3.8209,-3.8174,-3.814,-3.8019,-3.7915,-3.7828,-3.7739,-3.781,-3.7967,-3.7968,-3.7845,-3.7739,-3.7932,-3.8275,-3.8654,-3.8797,-3.9553,-4.0601,-4.165,-4.2014,-4.2158,-4.2941,-4.3031,-4.2901,-4.2901,-4.2901,-4.2901,-4.2901,-4.2901,-4.2901,-4.2901,-4.2901,-4.2938,-4.3012,-4.3068,-4.316,-4.3305,-4.3358,-4.3484,-4.3774,-4.3662,-4.3515,-4.3515,-4.3515,-4.3515,-4.3515,-4.3515,-4.3515,-4.3515,-4.3515,-4.3515,-4.3515,-4.3515,-4.3515,-4.3515,-4.3515,-4.3515,-4.3515,-4.3515,-4.3515,-4.3515,-4.3515,-4.3515,-4.3515,-4.3515,-4.3515,-4.3515,-4.3515,-4.3515,0.0,0.0,0.0,-3.524,0.0,0.0,0.0,0.0,-3.4079,0.0,0.0,0.0,0.0,0.0,-3.4901,-3.4189,0.0,0.0,0.0,0.0,0.0,0.0,0.0,0.0,0.0,0.0,0.0,0.0,0.0,0.0,-4.0199,-3.8857,-3.7876,-3.7375,-3.6208,-3.557,-3.5476,-3.5759,-3.6422,-3.7469,-3.7487,-3.7756,-3.8209,-3.8209,-3.814,-3.8001,-3.7933,-3.7828,-3.7703,-3.7703,-3.7775,-3.7916,-3.8035,-3.8052,-3.7984,-3.8001,-3.7968,-3.7935,-3.8021,-3.9118,-4.0655,-4.1597,-4.2341,-4.2883,-4.3049,-4.3012,-4.2901,-4.2901,-4.2901,-4.2901,-4.2901,-4.2901,-4.2901,-4.2901,-4.2901,-4.2901,-4.2919,-4.3012,-4.3123,-4.3196,-4.3323,-4.3667,-4.4526,-4.4011,-4.3515,-4.3515,-4.3515,-4.3515,-4.3515,-4.3515,-4.3515,-4.3515,-4.3515,-4.3515,-4.3515,-4.3515,-4.3515,-4.3515,-4.3515,-4.3515,-4.3515,-4.3515,-4.3515,-4.3515,-4.3515,-4.3515,-4.3515,-4.3515,-4.3515,-4.3515,-4.3515,-4.3515,0.0,0.0,-3.4871,-3.5445,0.0,0.0,0.0,0.0,0.0,0.0,0.0,0.0,0.0,0.0,-3.5912,-3.567,-3.5369,-3.5243,0.0,0.0,0.0,0.0,0.0,0.0,0.0,0.0,0.0,0.0,0.0,0.0,0.0,-4.0099,-3.9286,-3.81,-3.7837,-3.7232,-3.618,-3.6689,-3.7135,-3.7505,-3.7288,-3.7208,-3.7275,-3.6768,-3.6788,-3.7206,-3.7124,-3.7413,-3.7897,-3.7897,-3.8002,-3.8174,-3.8223,-3.8254,-3.8252,-3.8204,-3.8105,-3.7984,-3.8088,-3.8845,-3.9912,-4.0833,-4.1561,-4.2231,-4.2904,-4.3012,-4.2901,-4.2901,-4.2901,-4.2901,-4.2901,-4.2901,-4.2901,-4.2901,-4.2901,-4.2901,-4.2901,-4.2938,-4.3176,-4.3871,-4.4035,-4.42,-4.4636,-4.447,-4.4287,-4.4287,-4.3828,-4.3515,-4.3515,-4.3515,-4.3515,-4.3515,-4.3515,-4.3515,-4.3515,-4.3515,-4.3515,-4.3515,-4.3515,-4.3515,-4.3515,-4.3515,-4.3515,-4.3515,-4.3515,-4.3515,-4.3515,-4.3515,-4.3515,-4.3515,-4.3515,-4.3515,-3.5344,-3.4948,0.0,-3.5204,-3.457,0.0,-3.4477,0.0,0.0,0.0,0.0,0.0,0.0,0.0,-3.7063,-3.6498,-3.6411,-3.6394,0.0,-3.6779,0.0,0.0,0.0,0.0,0.0,0.0,-3.9009,-3.982,0.0,0.0,0.0,0.0,-4.0311,-3.8833,-3.879,-3.8122,-3.6731,-3.7248,-3.7435,-3.7326,-3.7045,-3.6749,-3.6376,-3.5923,-3.5927,-3.6346,-3.6619,-3.7033,-3.7571,-3.7875,-3.8104,-3.8239,-3.8257,-3.8323,-3.8352,-3.8323,-3.8206,-3.807,-3.8174,-3.8898,-3.9894,-4.0454,-4.1307,-4.223,-4.2848,-4.2975,-4.2901,-4.2901,-4.2901,-4.2901,-4.2901,-4.2901,-4.2901,-4.2901,-4.2901,-4.2901,-4.2901,-4.2901,-4.3121,-4.3834,-4.4199,-4.4547,-4.504,-4.5131,-4.4929,-4.436,-4.3828,-4.3515,-4.3515,-4.3515,-4.3515,-4.3515,-4.3515,-4.3515,-4.3515,-4.3515,-4.3515,-4.3515,-4.3515,-4.3515,-4.3515,-4.3515,-4.3515,-4.3515,-4.3515,-4.3515,-4.3515,-4.3515,-4.3515,-4.3515,-4.3515,-4.3515]},{"header":{"parameterUnit":"m.s-1","parameterCategory":1,"la1":30.6,"la2":29.2853,"lo1":-89.7004,"lo2":-87.6739,"dy":0.0162,"dx":0.0183,"nx":112,"ny":82,"refTime":"2024-06-28T12:00:00:Z","depth":0,"parameterNumber":3,"parameterNumberName":"V-component_of_WINDS"},"data":[0.0,0.0,0.0,0.0,0.0,0.0,0.0,0.0,0.0,0.0,0.0,0.0,0.0,0.0,0.0,0.0,0.0,0.0,0.0,0.0,0.0,0.0,0.0,0.0,0.0,0.0,0.0,0.0,0.0,0.0,0.0,0.0,0.0,0.0,0.0,0.0,0.0,0.0,0.0,0.0,0.0,0.0,0.0,0.0,0.0,0.0,0.0,0.0,0.0,0.0,0.0,0.0,0.0,0.0,0.0,0.0,0.0,0.0,0.0,0.0,0.0,0.0,0.0,0.0,0.0,0.0,0.0,0.0,0.0,0.0,0.0,0.0,0.0,0.0,0.0,0.0,0.0,0.0,0.0,0.0,0.0,0.0,0.0,0.0,0.0,0.0,0.0,0.0,0.0,0.0,1.7697,1.7172,1.537,1.4196,1.4196,1.4137,1.3729,1.2872,0.0,0.0,0.0,0.0,0.0,0.0,0.0,0.0,0.0,0.0,0.0,0.0,0.0,0.0,0.0,0.0,0.0,0.0,0.0,0.0,0.0,0.0,0.0,0.0,0.0,0.0,0.0,0.0,0.0,0.0,0.0,0.0,0.0,0.0,0.0,0.0,0.0,0.0,0.0,0.0,0.0,0.0,0.0,0.0,0.0,0.0,0.0,0.0,0.0,0.0,0.0,0.0,0.0,0.0,0.0,0.0,0.0,0.0,0.0,0.0,0.0,0.0,0.0,0.0,0.0,0.0,0.0,0.0,0.0,0.0,0.0,0.0,0.0,0.0,0.0,0.0,0.0,0.0,0.0,0.0,0.0,0.0,0.0,0.0,0.0,0.0,0.0,0.0,0.0,0.0,0.0,0.0,0.0,0.0,0.0,0.0,0.0,0.0,0.0,0.0,0.0,0.0,0.0,0.0,1.8186,1.7576,1.5535,1.4196,1.4196,1.3916,1.3514,1.2824,0.0,0.0,0.0,0.0,0.0,0.0,0.0,0.0,0.0,0.0,0.0,0.0,0.0,0.0,0.0,0.0,0.0,0.0,0.0,0.0,0.0,0.0,0.0,0.0,0.0,0.0,0.0,0.0,0.0,0.0,0.0,0.0,0.0,0.0,0.0,0.0,0.0,0.0,0.0,0.0,0.0,0.0,0.0,0.0,0.0,0.0,0.0,0.0,0.0,0.0,0.0,0.0,0.0,0.0,0.0,0.0,0.0,0.0,0.0,0.0,0.0,0.0,0.0,0.0,0.0,0.0,0.0,0.0,0.0,0.0,0.0,0.0,0.0,0.0,0.0,0.0,0.0,0.0,0.0,0.0,0.0,0.0,0.0,0.0,0.0,0.0,0.0,0.0,0.0,0.0,0.0,0.0,0.0,0.0,0.0,0.0,0.0,0.0,0.0,0.0,0.0,0.0,0.0,1.7606,1.7096,1.6727,1.4917,1.3867,1.4196,1.3645,1.3146,1.2824,1.2212,0.0,0.0,0.0,0.0,0.0,0.0,0.0,0.0,0.0,0.0,0.0,0.0,0.0,0.0,0.0,0.0,0.0,0.0,0.0,0.0,0.0,0.0,0.0,0.0,0.0,0.0,0.0,0.0,0.0,0.0,0.0,0.0,0.0,0.0,0.0,0.0,0.0,0.0,0.0,0.0,0.0,0.0,0.0,0.0,0.0,0.0,0.0,0.0,0.0,0.0,0.0,0.0,0.0,0.0,0.0,0.0,0.0,0.0,0.0,0.0,0.0,0.0,0.0,0.0,0.0,0.0,0.0,0.0,0.0,0.0,0.0,0.0,0.0,0.0,0.0,0.0,0.0,0.0,0.0,0.0,0.0,0.0,0.0,0.0,0.0,0.0,0.0,0.0,0.0,0.0,0.0,0.0,0.0,0.0,0.0,0.0,0.0,0.0,0.0,0.0,0.0,0.0,1.747,1.6747,1.6343,1.475,1.3802,1.3975,1.3165,1.2611,1.252,1.1767,0.0,0.0,0.0,0.0,0.0,0.0,0.0,0.0,0.0,0.0,0.0,0.0,0.0,0.0,0.0,0.0,0.0,0.0,0.0,0.0,0.0,0.0,0.0,0.0,0.0,0.0,0.0,0.0,0.0,0.0,0.0,0.0,0.0,0.0,0.0,0.0,0.0,0.0,0.0,0.0,0.0,0.0,0.0,0.0,0.0,0.0,0.0,0.0,0.0,0.0,0.0,0.0,0.0,0.0,0.0,0.0,0.0,0.0,0.0,0.0,0.0,0.0,0.0,0.0,0.0,0.0,0.0,0.0,0.0,0.0,0.0,0.0,0.0,0.0,0.0,0.0,0.0,0.0,0.0,0.0,0.0,0.0,0.0,0.0,0.0,0.0,0.0,0.0,0.0,0.0,0.0,0.0,0.0,0.0,0.0,0.0,0.0,0.0,0.0,0.0,0.0,0.0,1.8771,1.8599,1.7601,1.5908,1.4482,1.3478,1.2456,1.1824,1.1609,1.1008,0.0,0.0,0.0,0.0,0.0,0.0,0.0,0.0,0.0,0.0,0.0,0.0,0.0,0.0,0.0,0.0,0.0,0.0,0.0,0.0,0.0,0.0,0.0,0.0,0.0,0.0,0.0,0.0,0.0,0.0,0.0,0.0,0.0,0.0,0.0,0.0,0.0,0.0,0.0,0.0,0.0,0.0,0.0,0.0,0.0,0.0,0.0,0.0,0.0,0.0,0.0,0.0,0.0,0.0,0.0,0.0,0.0,0.0,0.0,0.0,0.0,0.0,0.0,0.0,0.0,0.0,0.0,0.0,0.0,0.0,0.0,0.0,0.0,0.0,0.0,0.0,0.0,0.0,0.0,0.0,0.0,0.0,0.0,0.0,0.0,0.0,0.0,0.0,0.0,0.0,0.0,0.0,0.0,0.0,0.0,0.0,0.0,0.0,0.0,0.0,0.0,0.0,1.8667,1.8433,0.0,1.7055,1.5902,1.5446,1.411,1.3088,1.264,0.0,0.0,0.0,0.0,0.0,0.0,0.0,0.0,0.0,0.0,0.0,0.0,0.0,0.0,0.0,0.0,0.0,0.0,0.0,0.0,0.0,0.0,0.0,0.0,0.0,0.0,0.0,0.0,0.0,0.0,0.0,0.0,0.0,0.0,0.0,0.0,0.0,0.0,0.0,0.0,0.0,0.0,0.0,0.0,0.0,0.0,0.0,0.0,0.0,0.0,0.0,0.0,0.0,0.0,0.0,0.0,0.0,0.0,0.0,0.0,0.0,0.0,0.0,0.0,0.0,0.0,0.0,0.0,0.0,0.0,0.0,0.0,0.0,0.0,0.0,0.0,0.0,0.0,0.0,0.0,0.0,0.0,0.0,0.0,0.0,0.0,0.0,0.0,0.0,0.0,0.0,0.0,0.0,0.0,0.0,0.0,0.0,0.0,0.0,0.0,0.0,0.0,1.9201,1.9063,1.8955,0.0,1.8,1.7068,1.659,1.5293,1.4153,1.3412,0.0,0.0,0.0,0.0,0.0,0.0,0.0,0.0,0.0,0.0,0.0,0.0,0.0,0.0,0.0,0.0,0.0,0.0,0.0,0.0,0.0,0.0,0.0,0.0,0.0,0.0,0.0,0.0,0.0,0.0,0.0,0.0,0.0,0.0,0.0,0.0,0.0,0.0,0.0,0.0,0.0,0.0,0.0,0.0,0.0,0.0,0.0,0.0,0.0,0.0,0.0,0.0,0.0,0.0,0.0,0.0,0.0,0.0,0.0,0.0,0.0,0.0,0.0,0.0,0.0,0.0,0.0,0.0,0.0,0.0,0.0,0.0,0.0,0.0,0.0,0.0,0.0,0.0,0.0,0.0,0.0,0.0,0.0,0.0,0.0,0.0,0.0,0.0,0.0,0.0,0.0,0.0,0.0,0.0,0.0,0.0,0.0,0.0,0.0,0.0,0.0,0.0,1.9288,2.0281,2.0439,1.9332,1.8731,1.7818,1.6349,1.5557,1.4688,0.0,0.0,0.0,0.0,0.0,0.0,0.0,0.0,0.0,0.0,0.0,0.0,0.0,0.0,0.0,0.0,0.0,0.0,0.0,0.0,0.0,0.0,0.0,0.0,0.0,0.0,0.0,0.0,0.0,0.0,0.0,0.0,0.0,0.0,0.0,0.0,0.0,0.0,0.0,0.0,0.0,0.0,0.0,0.0,0.0,0.0,0.0,0.0,0.0,0.0,0.0,0.0,0.0,0.0,0.0,0.0,0.0,0.0,0.0,0.0,0.0,0.0,0.0,0.0,0.0,0.0,0.0,0.0,0.0,0.0,0.0,0.0,0.0,0.0,0.0,0.0,0.0,0.0,0.0,0.0,0.0,0.0,0.0,0.0,0.0,0.0,0.0,0.0,0.0,0.0,0.0,0.0,0.0,0.0,0.0,0.0,0.0,0.0,0.0,0.0,0.0,0.0,0.0,1.9566,2.0202,2.0487,2.0416,2.0277,1.9728,1.8695,1.7875,1.6608,1.4675,0.0,0.0,0.0,0.0,0.0,0.0,0.0,0.0,0.0,0.0,0.0,0.0,0.0,0.0,0.0,0.0,0.0,0.0,0.0,0.0,0.0,0.0,0.0,0.0,0.0,0.0,0.0,0.0,0.0,0.0,0.0,0.0,0.0,0.0,0.0,0.0,0.0,0.0,0.0,0.0,0.0,0.0,0.0,0.0,0.0,0.0,0.0,0.0,0.0,0.0,0.0,0.0,0.0,0.0,0.0,0.0,0.0,0.0,0.0,0.0,0.0,0.0,0.0,0.0,0.0,0.0,0.0,0.0,0.0,0.0,0.0,0.0,0.0,0.0,0.0,0.0,0.0,0.0,0.0,0.0,0.0,0.0,0.0,0.0,0.0,0.0,0.0,0.0,0.0,0.0,0.0,0.0,0.0,0.0,0.0,0.0,0.0,0.0,0.0,0.0,0.0,0.0,1.9383,1.9914,2.0265,2.048,2.0496,2.0211,1.9584,1.9059,1.797,1.603,0.0,0.0,0.0,0.0,0.0,0.0,0.0,0.0,0.0,0.0,0.0,0.0,0.0,0.0,0.0,0.0,0.0,0.0,0.0,0.0,0.0,0.0,0.0,0.0,0.0,0.0,0.0,0.0,0.0,0.0,0.0,0.0,0.0,0.0,0.0,0.0,0.0,0.0,0.0,0.0,0.0,0.0,0.0,0.0,0.0,0.0,0.0,0.0,0.0,0.0,0.0,0.0,0.0,0.0,0.0,0.0,0.0,0.0,0.0,0.0,0.0,0.0,0.0,0.0,0.0,0.0,0.0,0.0,0.0,0.0,0.0,0.0,0.0,0.0,0.0,0.0,0.0,0.0,0.0,0.0,0.0,0.0,0.0,0.0,0.0,0.0,0.0,0.0,0.0,0.0,0.0,0.0,0.0,0.0,0.0,0.0,0.0,0.0,0.0,0.0,0.0,0.0,1.884,1.951,1.9877,1.9909,1.9917,1.9781,1.9447,1.9423,1.8772,1.7366,0.0,0.0,0.0,0.0,0.0,0.0,0.0,0.0,0.0,0.0,0.0,0.0,0.0,0.0,0.0,0.0,0.0,0.0,0.0,0.0,0.0,0.0,0.0,0.0,0.0,0.0,0.0,0.0,0.0,0.0,0.0,0.0,0.0,0.0,0.0,0.0,0.0,0.0,0.0,0.0,0.0,0.0,0.0,0.0,0.0,0.0,0.0,0.0,0.0,0.0,0.0,0.0,0.0,0.0,0.0,0.0,0.0,0.0,0.0,0.0,1.7849,0.0,0.0,0.0,0.0,0.0,0.0,0.0,0.0,0.0,0.0,0.0,0.0,0.0,0.0,0.0,0.0,0.0,0.0,0.0,0.0,0.0,0.0,0.0,0.0,0.0,0.0,0.0,0.0,0.0,0.0,0.0,0.0,0.0,0.0,0.0,0.0,0.0,0.0,0.0,0.0,0.0,1.8672,1.9248,1.963,1.9885,1.9917,1.9781,1.9447,1.9423,1.8726,1.7145,1.6812,0.0,0.0,0.0,0.0,0.0,0.0,0.0,0.0,0.0,0.0,0.0,0.0,0.0,0.0,0.0,0.0,0.0,0.0,0.0,0.0,0.0,0.0,0.0,0.0,0.0,0.0,0.0,0.0,0.0,0.0,0.0,0.0,0.0,0.0,0.0,0.0,0.0,0.0,0.0,0.0,0.0,0.0,0.0,0.0,0.0,0.0,0.0,0.0,0.0,0.0,0.0,0.0,0.0,0.0,0.0,0.0,0.0,0.0,0.0,0.0,1.7984,0.0,0.0,0.0,0.0,0.0,0.0,0.0,0.0,0.0,0.0,0.0,0.0,0.0,0.0,0.0,0.0,0.0,0.0,0.0,0.0,0.0,0.0,0.0,0.0,0.0,0.0,0.0,0.0,0.0,0.0,0.0,0.0,0.0,0.0,0.0,0.0,0.0,0.0,0.0,0.0,1.8121,1.8752,1.9177,1.9344,1.9368,1.9296,1.9129,1.9105,1.8678,1.7687,1.7151,0.0,0.0,0.0,0.0,0.0,0.0,0.0,0.0,0.0,0.0,0.0,0.0,0.0,0.0,0.0,0.0,0.0,0.0,0.0,0.0,0.0,0.0,0.0,0.0,0.0,0.0,0.0,0.0,0.0,0.0,0.0,0.0,0.0,0.0,0.0,0.0,0.0,0.0,0.0,0.0,0.0,0.0,0.0,0.0,0.0,0.0,0.0,0.0,0.0,0.0,0.0,0.0,0.0,2.2906,2.2355,1.9641,2.0611,2.0448,1.9398,1.8927,1.8784,1.873,0.0,0.0,0.0,0.0,0.0,0.0,0.0,0.0,0.0,0.0,0.0,0.0,0.0,0.0,0.0,0.0,0.0,0.0,0.0,0.0,0.0,0.0,0.0,0.0,0.0,1.7706,1.7585,0.0,0.0,0.0,0.0,0.0,0.0,0.0,0.0,0.0,0.0,0.0,0.0,1.7594,1.8345,1.8781,1.8781,1.8781,1.8781,1.8781,1.8781,1.8676,1.8319,1.7577,1.6797,0.0,0.0,0.0,0.0,0.0,0.0,0.0,0.0,0.0,0.0,0.0,0.0,0.0,0.0,0.0,0.0,0.0,0.0,0.0,0.0,0.0,0.0,0.0,0.0,0.0,0.0,0.0,0.0,0.0,0.0,0.0,0.0,2.4146,2.3826,0.0,0.0,0.0,0.0,0.0,0.0,0.0,0.0,0.0,0.0,0.0,0.0,0.0,2.4734,2.464,2.5121,2.5218,2.4965,2.5276,2.5169,2.4712,2.3947,2.3015,2.1963,2.0961,0.0,1.8782,1.865,0.0,0.0,0.0,0.0,0.0,0.0,0.0,0.0,0.0,0.0,0.0,0.0,0.0,0.0,0.0,0.0,0.0,0.0,0.0,0.0,0.0,0.0,1.8525,1.824,1.84,1.851,0.0,1.7623,1.7131,1.7244,0.0,0.0,0.0,0.0,0.0,0.0,0.0,0.0,1.77,1.8377,1.8781,1.8781,1.8781,1.8781,1.8781,1.8781,1.8676,1.8319,1.7922,1.7304,1.6453,1.5559,0.0,0.0,0.0,0.0,0.0,0.0,0.0,0.0,0.0,0.0,0.0,0.0,0.0,0.0,0.0,0.0,0.0,0.0,0.0,0.0,0.0,0.0,0.0,0.0,0.0,0.0,0.0,0.0,0.0,2.4012,2.4518,2.4633,2.5026,2.4966,0.0,0.0,0.0,0.0,0.0,0.0,0.0,0.0,0.0,2.5468,2.5721,2.581,2.581,2.6006,2.5662,2.4805,2.4805,2.451,2.3908,2.3393,2.2935,2.2484,2.1988,2.1095,1.9944,1.9109,1.854,1.813,0.0,0.0,0.0,0.0,0.0,1.7457,1.7457,1.7545,0.0,0.0,0.0,0.0,0.0,0.0,0.0,0.0,0.0,0.0,0.0,0.0,0.0,1.8525,1.867,1.8872,1.9396,1.8716,1.8063,0.0,1.8231,1.7893,1.6653,0.0,0.0,0.0,0.0,1.7627,1.788,1.8427,1.8781,1.8781,1.8781,1.8781,1.8781,1.8781,1.8764,1.8605,1.8081,1.7593,1.7087,1.6218,1.5474,0.0,0.0,0.0,0.0,0.0,0.0,0.0,0.0,0.0,0.0,0.0,0.0,0.0,0.0,0.0,0.0,0.0,0.0,0.0,0.0,0.0,0.0,0.0,0.0,0.0,0.0,0.0,0.0,2.45,2.5013,2.5523,2.5865,2.5747,0.0,0.0,0.0,0.0,0.0,0.0,2.6336,2.6556,2.6678,2.6633,2.6864,2.6983,2.6983,2.6884,2.6142,2.4888,2.4784,2.4245,2.3302,2.3302,2.3194,2.2885,2.2634,2.2038,2.1218,1.9854,1.9109,1.8767,1.8525,1.8379,1.8299,1.8299,1.8299,1.8299,1.8299,1.8299,1.8196,1.7607,0.0,1.7108,1.6184,0.0,0.0,0.0,0.0,1.7208,1.7691,0.0,1.8064,1.8547,1.8715,1.8925,1.9621,1.9295,1.8927,0.0,1.9067,1.8769,1.7532,0.0,0.0,0.0,0.0,1.8168,1.8094,1.8476,1.8781,1.8781,1.8781,1.8781,1.8781,1.8781,1.8781,1.8781,1.8247,1.7826,1.7614,1.6912,1.6199,1.5496,0.0,0.0,0.0,0.0,0.0,0.0,0.0,0.0,0.0,0.0,0.0,0.0,0.0,0.0,0.0,0.0,0.0,0.0,0.0,0.0,0.0,0.0,0.0,0.0,0.0,0.0,0.0,0.0,0.0,2.6444,2.6563,0.0,0.0,0.0,0.0,2.7497,2.8039,2.8571,2.9252,2.9246,2.9218,2.919,2.8804,2.8566,2.8566,2.8152,2.7631,2.703,2.658,2.6062,2.5538,2.5538,2.4971,2.3939,2.2935,2.2492,2.2341,2.1218,2.0018,1.8789,1.8774,1.8577,1.8299,1.8299,1.8299,1.8299,1.8299,1.8299,1.8343,1.8606,1.8482,1.8101,1.7388,1.7198,0.0,0.0,1.7296,1.7772,1.7808,1.805,1.8284,1.8321,1.8518,1.8716,1.878,1.9109,1.9527,0.0,1.913,1.8434,1.8006,0.0,1.7864,1.752,1.7778,1.8094,1.8258,1.8613,1.8781,1.8781,1.8781,1.8781,1.8781,1.8781,1.8781,1.8781,1.8478,1.8145,1.7875,1.7614,1.697,1.5974,1.5812,0.0,0.0,0.0,0.0,0.0,0.0,0.0,0.0,0.0,0.0,0.0,0.0,0.0,0.0,0.0,0.0,0.0,0.0,0.0,0.0,0.0,0.0,0.0,0.0,0.0,0.0,0.0,0.0,2.6846,2.7071,0.0,2.6854,2.732,2.7768,2.8125,2.8766,2.9196,2.9429,2.9714,2.9709,2.9335,2.9485,2.9393,2.9072,2.8647,2.8175,2.769,2.6901,2.64,2.6217,2.5878,2.5479,2.5069,2.3998,2.3135,2.2433,2.1336,2.0609,2.0151,2.0151,1.9681,1.8928,1.8928,1.8928,1.8928,1.8928,1.8928,1.8913,1.8818,1.8569,1.8255,1.8028,1.7808,1.7618,1.7508,1.7486,1.7501,1.7501,1.7589,1.7728,1.794,1.8033,1.823,1.8641,1.8675,1.8773,1.9247,1.9201,1.8862,1.8106,1.8283,1.8352,1.7872,1.8204,1.8553,1.8591,1.8748,1.8781,1.8781,1.8781,1.8781,1.8781,1.8621,1.8403,1.8275,1.7733,1.7282,1.708,1.6757,1.6331,1.5824,1.5703,1.518,0.0,0.0,0.0,0.0,0.0,0.0,0.0,0.0,0.0,0.0,0.0,0.0,0.0,0.0,0.0,0.0,0.0,0.0,0.0,0.0,0.0,0.0,0.0,0.0,0.0,0.0,2.6898,2.7076,2.7406,2.7494,2.7157,2.7889,2.8506,2.8762,2.9361,2.9791,2.9913,3.0346,3.044,3.0113,3.0378,3.0399,3.0062,2.946,2.8908,2.8457,2.7503,2.6822,2.6496,2.612,2.5975,2.5917,2.4648,2.3989,2.3741,2.2089,2.1438,2.1387,2.0637,1.9931,1.9279,1.9279,1.9279,1.9279,1.9279,1.9279,1.9242,1.9023,1.8803,1.8613,1.8503,1.8313,1.8116,1.8013,1.7743,1.7494,1.7494,1.7359,1.7384,1.7604,1.7655,1.7754,1.816,1.8097,1.8145,1.8612,1.8902,1.891,1.8391,1.8539,1.8664,1.8298,1.8547,1.8781,1.8781,1.8781,1.8781,1.8781,1.8781,1.8781,1.8781,1.8502,1.8306,1.8259,1.7411,1.6889,1.6919,1.6499,1.6088,1.5787,1.5714,1.5383,1.4791,0.0,0.0,0.0,0.0,0.0,0.0,0.0,0.0,0.0,0.0,0.0,0.0,0.0,0.0,0.0,0.0,0.0,0.0,0.0,0.0,0.0,0.0,0.0,2.6993,2.7155,2.7338,2.7342,2.7489,2.7726,2.7998,2.8243,2.8741,2.9467,2.9947,3.0417,3.0898,3.1367,3.1618,3.1618,3.1618,3.1618,3.1618,3.0679,2.9965,2.9402,2.8445,2.7478,2.6544,2.6496,2.6496,2.64,2.4796,2.4992,2.6197,2.3592,2.2484,2.2282,2.0181,1.9331,1.9279,1.9279,1.9279,1.9279,1.9279,1.9279,1.9279,1.9279,1.9279,1.9213,1.8899,1.8796,1.8723,1.8408,1.8079,1.783,1.7816,1.7582,1.7293,1.7286,1.7279,1.7279,1.7279,1.7527,1.7768,1.804,1.8288,1.8566,1.8781,1.8781,1.8781,1.8781,1.8781,0.0,1.8781,1.8781,1.8781,1.8781,1.8781,1.8781,1.8781,1.8502,1.8438,1.8726,1.7564,1.7082,1.7514,1.6934,1.6392,1.5928,1.5859,1.5962,1.6327,0.0,0.0,0.0,0.0,0.0,0.0,0.0,0.0,0.0,0.0,0.0,0.0,0.0,0.0,0.0,0.0,0.0,0.0,0.0,0.0,0.0,2.8885,2.9185,2.8143,2.7693,2.7719,2.8315,2.8092,2.8045,2.8524,2.8664,2.9059,2.9947,3.0144,3.057,3.1378,3.1553,3.1618,3.1618,3.1618,3.1618,3.1618,3.0679,3.0112,2.9954,2.8635,2.7657,2.7003,2.664,2.6304,2.5868,2.4648,2.4335,2.4639,2.3135,2.2484,2.2341,2.0979,1.9983,1.9279,1.9279,1.9279,1.9279,1.9279,1.9279,1.9279,1.9279,1.9279,1.9257,1.9169,1.8979,1.8767,1.8679,1.8423,1.8116,1.7874,1.775,1.7618,1.7337,1.7279,1.7279,1.7279,1.7527,1.7721,1.7815,1.8048,1.8319,1.8735,1.8781,1.8781,1.8781,1.8781,0.0,1.8781,1.8781,1.8781,1.8781,1.8781,1.8781,1.8781,1.8502,1.8195,1.7867,1.7141,1.6667,1.6583,1.626,1.6318,1.676,1.6193,1.6074,0.0,0.0,0.0,0.0,0.0,0.0,0.0,0.0,0.0,0.0,0.0,0.0,0.0,0.0,0.0,0.0,0.0,0.0,0.0,0.0,0.0,0.0,2.9557,2.9913,2.9161,2.8479,2.8186,2.842,2.8092,2.7951,2.829,2.8661,2.9237,2.9998,3.0335,3.0832,3.1586,3.1618,3.1618,3.1618,3.1618,3.1618,3.1618,3.0679,3.0209,3.0199,2.8931,2.7951,2.7183,2.7146,2.6726,0.0,2.5401,2.5089,2.4992,2.3692,2.3185,0.0,0.0,0.0,0.0,0.0,1.9279,1.9279,1.9279,1.9279,1.9279,1.9279,1.9279,1.9279,1.9279,1.914,1.8994,1.8994,1.876,1.843,1.8101,1.7918,1.7735,1.7359,1.7279,1.7279,1.7279,1.7426,1.7574,1.7675,0.0,0.0,1.8604,1.8651,1.8697,1.8781,1.8781,1.8781,0.0,1.8781,1.8781,1.8781,1.8781,1.8781,1.8781,1.8502,0.0,0.0,0.0,1.6797,1.6494,1.6234,0.0,0.0,0.0,0.0,0.0,0.0,0.0,0.0,1.6766,1.675,0.0,0.0,0.0,0.0,0.0,0.0,0.0,0.0,0.0,0.0,0.0,0.0,0.0,0.0,0.0,0.0,2.9671,2.9886,2.9852,2.9076,2.843,2.8164,2.7814,2.7615,2.7678,2.854,2.93,2.9813,3.0476,3.1105,3.1545,0.0,0.0,0.0,0.0,3.1618,3.1618,3.0679,3.0209,3.0199,2.9263,2.8279,2.7326,2.7704,2.7384,2.6496,2.6448,2.64,2.6304,2.4845,2.4196,2.389,2.1887,2.0987,2.0783,1.9828,1.9376,0.0,0.0,0.0,0.0,1.9279,1.9279,1.9279,1.9279,1.9279,1.9279,1.9279,1.9038,1.8708,1.8386,1.8057,1.7735,1.7359,1.7279,1.7279,1.7279,1.7279,1.738,1.7628,1.7628,1.7815,1.8342,1.8435,1.8566,1.8781,1.8781,0.0,1.8781,1.8781,1.8781,1.8781,0.0,0.0,1.8781,1.8541,1.8478,1.8756,1.7969,1.7324,1.6846,1.6647,1.675,1.7228,1.7235,1.7377,1.7675,1.7675,1.7628,1.766,1.692,1.6881,0.0,0.0,0.0,0.0,0.0,0.0,0.0,0.0,0.0,0.0,0.0,0.0,0.0,0.0,0.0,3.1311,3.0442,2.9717,2.9363,2.8333,2.7917,2.8797,2.812,2.7757,2.8211,2.8741,2.9407,3.0079,3.0586,3.1105,3.1545,3.1618,0.0,3.1618,3.1618,3.1618,3.1618,3.0679,3.0209,3.0199,0.0,0.0,2.7846,2.7515,2.7051,2.6506,2.6024,2.583,2.583,2.5528,2.4864,2.3989,2.2685,2.1633,2.0885,2.0688,2.0034,1.9279,1.9279,1.9279,1.9279,1.9279,1.9279,1.9279,1.9279,1.9279,0.0,1.9279,1.9038,1.8708,1.8386,1.8057,1.7735,1.7359,1.7279,1.7279,1.7279,1.7279,1.7333,1.738,1.738,1.7473,1.7815,1.8202,1.8566,1.8781,1.8781,1.8781,1.8781,1.8781,1.8781,1.8781,1.8781,1.8781,1.8781,1.8718,1.8637,1.8414,1.8055,1.7626,1.7131,1.7339,1.7511,1.7585,1.7385,1.7414,1.7675,1.7473,1.738,1.7387,1.77,1.7888,0.0,0.0,0.0,0.0,0.0,0.0,0.0,0.0,0.0,0.0,0.0,3.2124,3.2542,0.0,3.2421,3.2237,3.1062,3.0082,2.9887,2.837,2.758,2.8322,2.7506,2.7176,2.7945,2.8598,2.9262,2.997,3.0754,3.1367,3.1607,3.1618,3.1618,3.1618,3.1618,3.1509,3.1258,3.0559,3.0089,2.9838,2.9153,2.8513,2.7998,2.7704,2.7194,2.6496,2.6217,2.5975,2.5693,2.5693,2.5069,2.4038,2.3493,2.2341,2.0834,2.0285,1.9783,1.9279,1.9279,1.9279,1.9279,1.9279,1.9279,1.9279,1.9279,1.9279,1.9294,1.9074,1.8913,1.8672,1.8182,1.794,1.7735,1.7359,1.7279,1.7279,1.7279,1.7279,1.7279,1.7279,1.7279,1.738,1.7628,1.7916,1.8241,1.8612,1.8743,1.8781,1.8781,1.8781,1.8781,1.8781,1.8781,1.8781,1.8781,1.8781,1.8756,1.8573,1.8345,1.8079,1.785,1.7732,1.7675,1.7675,1.7434,1.738,1.7481,1.738,1.738,1.7488,1.7988,1.8282,0.0,0.0,0.0,0.0,0.0,0.0,0.0,3.1443,3.175,3.2678,3.2877,3.2987,3.3374,3.3448,3.3302,3.2734,3.1405,3.0405,3.0072,2.8357,2.7237,2.7435,2.6793,2.6617,2.7421,2.8248,2.9058,2.9753,3.0834,3.152,3.1618,3.1618,3.1618,3.1618,3.1618,3.1389,3.0898,3.0439,2.9969,2.9478,2.9033,2.856,2.8139,2.7951,2.7384,2.664,2.6448,2.612,2.5693,2.5693,2.5069,2.4088,2.389,2.2593,2.0783,1.9931,1.948,1.9279,1.9279,1.9279,1.9279,1.9279,1.9279,1.9279,1.9279,1.9279,1.9206,1.8884,1.8745,1.8555,1.7969,1.7765,1.7655,1.7344,1.7279,1.7279,1.7279,1.7279,1.7279,1.7279,1.7279,1.738,1.7581,1.7675,1.7869,1.8342,1.8612,1.8743,1.8743,1.8789,1.8781,1.8781,1.8781,1.8781,1.8781,1.8781,1.8743,1.8781,1.8612,1.8481,1.8481,1.8009,1.7768,1.7675,1.7434,1.7279,1.7279,1.7279,1.7426,1.7636,1.7948,1.8286,2.8625,2.9003,2.9722,3.0813,3.124,3.1819,0.0,3.3542,3.3499,3.4075,3.437,3.4546,3.4583,3.4774,3.4402,3.2907,3.1441,3.0013,2.8576,2.7389,2.6693,2.6726,2.6781,2.6873,2.7037,2.8047,2.8988,2.9753,3.0519,3.1171,3.1607,3.1618,3.1618,3.1618,3.1618,3.1389,3.0898,3.0439,2.9969,2.9478,2.9033,2.8757,2.8664,2.7704,2.7231,2.7098,2.6159,2.5742,2.5693,2.5693,2.5069,2.3989,2.3035,2.1937,2.0885,2.0783,2.013,1.9279,1.9279,1.9279,1.9279,1.9279,1.9279,1.9279,1.9279,1.9279,1.9206,1.8884,1.8584,1.8277,1.7911,1.7604,1.7377,1.7286,1.7279,1.7279,1.7279,1.7279,1.7279,1.7279,1.7279,1.7333,1.7333,1.7527,1.7815,1.8087,1.8381,1.8527,1.8527,1.8697,1.8781,1.8781,1.8781,1.8781,1.8781,1.8658,1.8612,1.8781,1.8612,1.8481,1.8481,1.8187,1.7947,1.7675,1.7434,1.7279,1.7279,1.7279,1.7333,1.734,1.771,1.7982,2.9513,3.0038,3.0614,3.155,3.2275,3.2979,3.3836,3.4165,3.4366,3.4596,3.4577,3.4701,3.5086,3.5127,3.5055,0.0,3.2532,3.0545,3.024,2.8137,2.6476,2.6223,2.6734,2.7256,2.7528,2.8025,2.8689,2.9547,3.0171,3.0581,3.0788,3.081,3.081,3.081,3.081,3.057,3.0078,2.9882,2.9543,2.911,2.8902,2.8803,2.8746,2.7704,2.6907,2.6294,2.5878,2.5693,2.5693,2.5693,2.4716,2.3135,2.2685,2.1438,1.9983,1.9983,1.968,1.9279,1.9279,1.9279,1.9279,1.9279,1.9279,1.9279,1.9279,1.914,1.8921,1.8599,1.8269,1.7947,1.7618,1.7428,1.7279,1.7279,1.7279,1.7279,1.7279,1.7279,1.7279,1.7279,1.7279,1.7279,1.7279,1.738,1.7527,1.7613,1.7994,1.828,1.828,1.8319,1.8411,1.8411,1.8643,1.8735,1.8658,1.8658,1.8697,1.8781,1.8612,1.8574,1.8658,1.8319,1.804,1.7947,1.7667,1.7481,1.7279,1.7279,1.7279,1.7286,1.7417,1.7585,3.0107,3.0736,3.1324,3.2207,3.302,3.367,3.3987,3.4324,3.4563,3.4591,3.4451,3.4504,3.5127,3.5154,3.5354,3.6041,3.3403,3.129,3.1522,2.9036,2.7019,2.6373,2.7019,2.7636,2.7966,2.8055,2.8447,2.9313,2.9768,3.0067,3.0209,3.0209,3.0209,3.0209,3.0209,2.998,2.9489,2.9489,2.9237,2.8803,2.8803,2.8803,2.8746,2.7704,2.6668,2.5693,2.5693,2.5693,2.5693,2.5693,2.4412,2.2484,2.2484,2.1183,1.9279,1.9279,1.9279,1.9279,1.9279,1.9279,1.9279,1.9279,1.9279,1.9279,1.9279,1.9111,1.884,1.8423,1.813,1.7852,1.7388,1.7279,1.7279,1.7279,1.7279,1.7279,1.7279,1.7279,1.7279,1.7279,1.7279,1.7279,1.7279,1.7279,1.7279,1.7279,1.7613,1.79,1.7994,1.804,1.8133,1.8179,1.8458,1.8604,1.8527,1.8512,1.8596,1.8781,1.8558,1.852,1.8781,1.8419,1.8179,1.8087,1.7861,1.7574,1.7279,1.7279,1.7279,1.7279,1.7192,1.7142,3.0379,3.1077,3.1938,3.3009,3.3439,3.3772,3.4341,3.4189,3.3981,3.4073,3.4113,3.4259,3.4733,3.4962,3.5052,3.4959,3.3498,3.2057,3.1233,2.9819,2.8457,2.7404,2.7689,2.7977,2.7998,2.7998,2.8295,2.9084,2.9356,2.9718,3.0188,3.0209,3.0209,3.0209,3.0209,2.998,2.9489,2.9489,2.9237,2.8803,2.8803,2.8803,2.8746,2.7704,2.6668,2.5693,2.5693,2.5693,2.5693,2.5693,2.4412,2.2484,2.2484,2.1183,1.9279,1.9279,1.9279,1.9279,1.9279,1.9279,1.9279,1.9279,1.9279,1.9279,1.9279,1.9264,1.9125,1.8482,1.8291,1.8138,1.7447,1.7279,1.7279,1.7279,1.7279,1.7279,1.7279,1.7279,1.7279,1.7279,1.7279,1.7279,1.7279,1.7279,1.7279,1.7279,1.7326,1.7426,1.7675,1.7947,1.8187,1.8481,1.828,1.8234,1.8481,1.8009,1.8048,1.8735,1.8365,1.8319,1.8781,1.8612,1.8381,1.8087,1.7861,1.7574,1.7279,1.7279,1.7279,1.7279,1.6817,1.6742,3.0881,3.1349,3.1847,3.3016,3.3647,3.3991,3.3905,3.3812,3.3676,3.3579,3.3236,3.3223,3.4057,3.4391,3.4765,3.5681,3.356,3.1726,3.1534,2.9964,2.8317,2.6992,2.8224,2.9,2.8487,2.8179,0.0,2.8845,2.9256,2.9412,2.9296,2.9554,2.9576,2.9259,2.9296,2.9219,2.9044,2.9044,2.8967,2.8803,2.8803,2.8258,2.7252,2.7228,2.6668,2.5693,2.5693,2.5693,2.5693,2.5693,2.4412,2.2484,2.2484,2.1183,1.9279,1.9279,1.9279,1.9279,1.9279,1.9279,1.9279,1.9279,1.9279,1.9279,1.9279,1.9125,1.8906,1.8686,1.8313,1.7933,1.7706,1.7494,1.7279,1.7279,1.7279,1.7279,1.7279,1.7279,1.7279,1.7279,1.7279,1.7279,1.7279,1.7279,1.7279,1.7279,1.7426,1.7581,1.7675,1.8102,1.8334,1.8234,1.8411,1.8558,1.8481,1.8465,1.855,1.8781,1.8512,1.8512,1.8781,1.8612,1.8381,1.8087,1.7994,1.7753,1.7279,1.7279,1.7279,1.7286,1.6975,1.6833,3.0843,3.1148,3.1387,3.2412,3.3094,3.3472,3.3223,3.3354,3.3468,3.3436,3.3109,3.3051,3.3821,3.4166,3.4714,3.6002,3.4327,3.2819,3.2513,3.1234,2.961,2.7807,2.8908,2.9569,2.8987,2.8775,0.0,2.9281,2.9401,2.9394,2.9077,2.9197,2.9121,2.8814,2.8803,2.8803,2.8803,2.8803,2.8716,2.8506,2.8727,2.7975,2.6512,2.6977,2.6668,2.5693,2.5693,2.5693,2.5693,2.5693,2.4412,2.2484,2.2484,2.1183,1.9279,1.9279,1.9279,1.9279,1.9279,1.9279,1.9279,1.9279,1.9279,1.9279,1.9279,1.9133,1.8935,1.8818,1.8401,1.7962,1.7845,1.7574,1.7279,1.7279,1.7279,1.7279,1.7279,1.7279,1.7279,1.7279,1.7279,1.7279,1.7279,1.7279,1.7279,1.7279,1.7527,1.7675,1.7675,1.8009,1.8195,1.8087,1.8272,1.8419,1.8481,1.8512,1.8596,1.8781,1.8612,1.8566,1.8781,1.8697,1.8465,1.8087,1.8087,1.7846,1.7279,1.7279,1.7192,1.7052,1.6737,1.6443,3.0256,3.0498,3.067,3.1331,3.1949,3.2412,3.2412,3.2848,3.3311,3.3514,3.3537,3.3608,3.3939,3.4286,3.4781,3.5795,3.5583,3.4958,3.3962,3.331,3.205,2.9661,2.9681,2.9762,2.9455,2.9713,0.0,3.0237,0.0,2.9532,2.9489,2.911,2.8858,2.8803,2.8803,2.8803,2.8803,2.8803,2.8495,2.7958,2.8517,2.7964,2.6527,2.7013,2.6678,2.5742,2.5684,2.5693,2.5693,2.5693,2.4412,2.2484,2.2484,2.1183,1.9279,1.9279,1.9279,1.9279,1.9279,1.9279,1.9279,1.9279,1.9279,1.9279,1.9279,1.9279,1.9213,1.8906,1.8562,1.8233,1.7918,1.7582,1.7279,1.7279,1.7279,1.7279,1.7279,1.7279,1.7279,1.7279,1.7279,1.7279,1.7279,1.7279,1.7279,1.7279,1.7527,1.7721,1.7675,1.7721,1.7815,1.8087,1.7861,1.7962,1.8435,1.828,1.8319,1.8781,1.8612,1.8612,1.8781,1.8781,1.8596,1.8133,1.8087,1.78,1.7279,1.7232,1.7005,1.6541,1.6035,1.5663,3.0305,3.0498,3.067,3.1331,3.1949,3.2412,3.2412,3.2525,3.2702,3.2899,3.2579,3.242,3.2952,3.3607,3.4334,3.5113,3.4323,0.0,3.3114,3.2312,3.1028,2.909,3.0206,3.0813,3.0027,3.0507,0.0,0.0,3.081,3.0231,2.9521,2.9707,2.951,2.8825,2.8803,2.8803,2.8803,2.8803,2.8377,2.7512,2.8399,2.8034,2.6591,2.7009,2.686,2.6255,2.5878,2.5693,2.5693,2.5693,2.4412,2.2484,2.2484,2.1183,1.9279,1.9279,1.9279,1.9279,1.9279,1.9279,1.9279,1.9279,1.9279,1.9279,1.9279,1.9279,1.9257,1.9177,1.8738,1.8284,1.8196,1.7757,1.7279,1.7279,1.7279,1.7279,1.7279,1.7279,1.7279,1.7279,1.7279,1.7279,1.7279,1.7279,1.7279,1.7279,1.7707,1.7955,1.7721,1.7854,1.804,1.8087,1.8241,1.8342,1.8481,1.8558,1.8689,1.8781,1.8735,1.8743,1.8781,1.8781,1.8651,1.8381,1.7807,1.7372,1.7091,1.6487,1.6109,1.6021,1.5722,1.5457,2.9577,2.9746,2.9876,3.021,3.1148,3.1968,3.1739,3.2283,3.2785,3.2688,3.2542,3.2581,3.2898,3.3563,3.4179,3.4687,3.4358,3.3836,3.3445,3.2852,3.1854,3.0175,3.1026,3.1469,3.0649,3.1068,3.1424,0.0,3.1171,3.0581,2.9838,2.986,2.9543,2.8825,2.8803,2.8803,2.8803,2.8803,2.8375,2.7598,2.8156,2.78,2.6571,2.6779,2.663,2.612,0.0,2.5693,2.5635,2.5167,2.4007,2.2433,2.1988,2.0783,1.9279,1.9279,1.9279,1.9279,1.9279,1.9279,1.9279,1.9279,1.9279,1.9279,1.9279,1.9279,1.9279,1.9279,1.8803,1.8299,1.8299,1.7816,1.7279,1.7279,1.7279,1.7279,1.7279,1.7279,1.7279,1.7279,1.7279,1.7279,1.7279,1.7279,1.7279,1.7279,1.7567,1.7761,1.7721,1.8048,1.8288,1.8288,1.8427,1.8527,1.8612,1.855,1.8596,1.8781,1.8411,1.8265,1.8458,1.8265,1.804,1.7869,1.7293,1.6857,1.6662,1.6062,1.5689,1.5506,1.5387,1.5181,2.8641,2.878,2.884,2.8719,3.007,3.1317,3.0881,3.2041,3.31,3.2673,3.298,3.3268,3.3253,3.3786,3.4251,3.4299,3.4712,3.4786,3.4077,3.3887,3.3231,3.1761,3.1874,3.1823,3.1281,3.1424,3.1545,3.1531,3.1138,3.0701,3.0242,2.9751,2.9259,2.8814,2.8803,2.8771,2.8705,2.8771,2.8484,2.7903,2.7975,2.7509,2.6604,2.6523,2.6265,2.5781,0.0,0.0,2.5635,2.455,2.3493,2.2383,2.1336,2.0233,1.9279,1.9279,1.9279,1.9279,1.9279,1.9279,1.9279,1.9279,1.9279,1.9279,1.9279,1.9279,1.9264,1.9272,1.8774,1.8291,1.8247,1.7786,1.7279,1.7279,1.7279,1.7279,1.7279,1.7279,1.7279,1.7279,1.7279,1.7279,1.7279,1.7279,1.7279,1.7279,1.738,1.7473,1.7675,1.8055,1.8295,1.8334,1.8388,1.8473,1.8643,1.8319,1.8272,1.8689,1.7846,1.752,1.7994,1.7567,1.7239,1.7019,1.6683,1.6393,1.615,1.5778,1.5404,1.4987,1.5035,1.4933,2.8551,2.8719,2.8719,2.8719,2.9826,3.0895,3.0814,3.1801,3.2701,3.2622,3.298,3.3199,3.2856,3.3707,3.4199,3.3471,3.35,3.3621,3.3446,3.3023,3.2469,3.1677,3.2015,3.2015,3.127,3.123,0.0,0.0,0.0,3.0701,3.0242,2.9751,2.9259,2.8814,2.8803,2.8606,2.8122,2.8606,2.8355,2.7446,2.7814,2.7706,2.7154,2.6723,2.6448,2.6352,0.0,0.0,2.5635,2.455,2.3493,2.2383,2.1336,2.0233,1.9279,1.9279,1.9279,1.9279,1.9279,1.9279,1.9279,1.9279,1.9279,1.9279,1.9279,1.9279,1.922,1.895,1.8599,1.824,1.7969,1.7571,1.7279,1.7279,1.7279,1.7279,1.7279,1.7279,1.7279,1.7279,1.7279,1.7279,1.7279,1.7279,1.7279,1.7279,1.766,1.79,1.7721,1.7448,1.7301,1.7473,1.7721,1.7861,1.7908,1.804,1.8133,1.8226,1.766,1.7326,1.7419,1.7326,1.7279,1.7239,1.6393,1.592,1.5872,1.4968,1.4538,1.4442,1.4688,1.4742,2.7749,2.7764,2.7962,2.8565,2.9532,3.0421,3.081,3.1768,3.2543,3.2298,3.2706,3.3037,3.2739,3.3527,3.4027,3.3595,3.3305,3.3314,3.3825,3.3112,3.2377,3.2072,3.2392,3.228,3.1476,3.1197,3.0997,3.0908,0.0,3.0067,2.9838,2.9368,2.9044,2.8814,2.8517,2.8386,2.8418,2.8386,2.8276,2.8069,2.8018,2.774,2.7212,2.673,2.6362,2.6072,2.583,0.0,2.5586,2.3949,2.2935,2.2341,2.068,1.9724,1.9279,1.9279,1.9279,1.9279,1.9279,1.9279,1.9279,1.9279,1.9279,1.9279,1.9279,1.9279,1.9294,1.9089,1.8686,1.8262,1.8108,1.7699,1.7279,1.7279,1.7279,1.7279,1.7279,1.7279,1.7279,1.7279,1.7279,1.7279,1.7279,1.7279,1.7279,1.7279,1.7621,1.7861,1.7721,1.716,1.6965,1.7481,1.7481,1.7481,1.7481,1.7387,1.7426,1.766,1.6951,1.6629,1.6911,1.6676,1.6534,1.6534,1.592,1.5635,1.5635,1.5022,1.4742,1.4742,1.4838,1.4981,2.7187,2.7004,2.723,2.841,2.9306,3.0083,3.0834,3.1848,3.2458,3.1966,3.2481,3.2917,3.2668,3.3342,3.3908,3.3663,3.3428,3.3506,3.4131,3.3265,3.2566,3.2516,3.2605,3.2336,3.1516,3.1116,0.0,3.0603,0.0,0.0,2.9372,2.9011,2.8749,2.865,2.8233,2.8167,2.8497,2.8178,2.8222,2.8604,2.8179,2.7704,2.7183,2.6726,2.6217,2.5693,2.5693,0.0,0.0,2.3402,2.2484,2.2291,2.013,1.9279,1.9279,1.9279,1.9279,1.9279,1.9279,1.9279,1.9279,1.9279,1.9279,1.9279,1.9279,1.9279,1.9309,1.9191,1.8752,1.8284,1.8218,1.7765,1.7279,1.7279,1.7279,1.7279,1.7279,1.7279,1.7279,1.7279,1.7279,1.7279,1.7279,1.7279,1.7279,1.7279,1.7434,1.7535,1.7535,1.6965,1.673,1.7301,1.7192,1.7091,1.7145,1.6817,1.677,1.7138,1.6298,1.5974,1.6393,1.6082,1.5844,1.5784,1.5653,1.5551,1.5493,1.522,1.5083,1.5083,1.5178,1.5315,2.7769,2.7385,2.7116,2.838,2.9261,3.0023,3.0834,3.1848,3.2424,3.1834,3.2412,3.2881,3.2489,3.3379,3.3856,3.2896,3.3584,3.4007,3.3341,3.2952,3.2698,3.2526,3.23,3.187,3.1063,3.0919,3.0537,0.0,0.0,0.0,2.8869,2.8825,2.8606,2.8078,2.8023,2.7805,2.7446,2.7794,2.8012,2.8067,2.8029,2.7704,2.7183,2.6726,2.6217,2.5693,0.0,0.0,0.0,2.3402,2.2484,2.2291,2.013,1.9279,1.9279,1.9279,1.9279,1.9279,1.9279,1.9279,1.9279,1.9279,1.9279,1.9279,1.9279,1.9279,1.9213,1.8921,1.8577,1.8233,1.7933,1.7549,1.7279,1.7279,1.7279,1.7279,1.7279,1.7279,1.7279,1.7279,1.7279,1.7279,1.7279,1.7279,1.7279,1.7279,1.7185,1.7052,1.7066,1.6581,1.6244,1.6312,1.6298,1.6386,1.6629,1.6629,1.6629,1.6676,1.6109,1.5825,1.5872,1.6134,1.6106,1.5832,1.5844,1.5754,1.5493,1.522,1.5083,1.5131,1.5356,1.5493,2.8139,2.8081,2.836,2.9645,3.0188,3.069,3.173,3.2273,3.2503,3.2148,3.2472,3.2739,3.2453,3.2894,3.3309,3.3364,3.3083,3.2991,3.3407,3.2596,3.1996,3.2009,3.1803,3.1465,0.0,0.0,2.9773,0.0,0.0,0.0,2.8342,2.8331,2.8244,2.8002,2.7707,2.7609,2.7707,2.7893,2.8143,2.8473,2.8473,2.8034,2.7183,2.7003,2.6486,2.5693,0.0,0.0,0.0,2.3144,2.2139,2.1387,1.9879,1.9279,1.9279,1.9279,1.9279,1.9279,1.9279,1.9279,1.9279,1.9279,1.9279,1.9279,1.9279,1.9279,1.925,1.9118,1.8847,1.8518,1.8196,1.7721,1.7279,1.7279,1.7279,1.7279,1.7279,1.7279,1.7279,1.7279,1.7279,1.7279,1.7279,1.7279,1.7279,1.7279,1.7232,1.7145,1.7026,1.6534,1.6197,1.6218,1.6069,1.6015,1.6109,1.6109,1.6109,1.6109,1.5927,1.5784,1.5784,1.5945,1.5952,1.5784,1.5843,1.5802,1.5683,1.5594,1.5499,1.5499,1.5635,1.5683,2.8796,2.8822,2.9242,3.0687,3.1069,3.1371,3.2535,3.2885,3.2868,3.2384,3.2556,3.2704,3.2395,3.2691,3.3127,0.0,3.3044,3.2712,3.3521,3.2376,3.1507,3.1574,3.1332,3.1019,0.0,2.9799,2.9063,0.0,0.0,0.0,0.0,2.7653,2.7576,2.7576,2.738,2.7479,2.7773,2.7925,2.8287,2.8803,2.8653,2.8092,2.7183,2.7051,2.6534,2.5684,0.0,0.0,0.0,2.2584,2.1582,2.0783,1.9732,1.9279,1.9279,1.9279,1.9279,1.9279,1.9279,1.9279,1.9279,1.9279,1.9279,1.9279,1.9279,1.9279,1.9279,1.9279,1.8972,1.8547,1.8123,1.7669,1.7279,1.7279,1.7279,1.7279,1.7279,1.7279,1.7279,1.7279,1.7279,1.7279,1.7279,1.7239,1.7192,1.7192,1.7005,1.6817,1.6791,1.6298,1.6015,1.6076,1.5927,1.5784,1.5784,1.5784,1.5784,1.5784,1.5784,1.5784,1.5784,1.5912,1.5919,1.5784,1.5912,1.5919,1.5784,1.5784,1.5784,1.5784,1.5784,1.5784,2.9956,2.9505,2.9341,3.1225,3.1693,3.1961,3.2967,3.3546,3.3593,3.2517,3.266,3.281,3.2314,3.2958,3.3599,3.3613,3.3789,3.3837,3.3451,3.2361,3.1539,3.1342,3.0871,3.0435,2.995,2.925,0.0,0.0,0.0,0.0,0.0,2.6889,2.6595,2.6595,2.7075,2.7315,2.7315,2.7762,2.8287,2.8803,2.8279,2.7704,2.7183,2.6726,2.6217,0.0,0.0,0.0,0.0,2.1785,2.0936,2.0783,1.9732,1.9279,1.9279,1.9279,1.9279,1.9279,1.9279,1.9279,1.9279,1.9279,1.9279,1.9279,1.9279,1.9279,1.9279,1.9279,1.8811,1.8152,1.7461,1.7333,1.7279,1.7279,1.7279,1.7279,1.7279,1.7279,1.7279,1.7279,1.7279,1.7279,1.7279,1.7106,1.6979,1.6979,1.6305,1.5927,1.6177,1.5784,1.5588,1.5784,1.5784,1.5784,1.5784,1.5784,1.5784,1.5784,1.5784,1.5784,1.5784,1.6112,1.6126,1.5791,1.6119,1.6126,1.5784,1.5784,1.5784,1.5784,1.5784,1.5784,3.0494,3.0621,3.0816,3.1292,3.1982,3.2601,3.2935,3.324,3.336,3.2891,3.3004,3.3106,3.2839,3.3341,3.3927,3.4372,3.3454,0.0,3.3285,3.1797,3.0685,3.0806,3.0231,2.9678,0.0,0.0,0.0,0.0,0.0,0.0,0.0,2.7173,2.7097,2.7097,2.7239,2.7468,2.7762,2.8287,2.865,2.8803,2.8279,2.7704,2.7183,2.6726,0.0,0.0,0.0,0.0,0.0,2.3393,2.2634,2.1887,2.0834,2.038,2.0285,1.9576,1.9279,1.9279,1.9279,1.9279,1.9279,1.9279,1.9279,1.9235,1.9016,1.9096,1.9228,1.9001,1.8635,1.8203,1.7772,1.7447,1.7279,1.7279,1.7279,1.7279,1.7279,1.7279,1.7279,1.7279,1.7279,1.7279,1.7279,1.7106,1.6979,1.6979,1.6454,1.6123,1.6177,1.5933,1.573,1.5778,1.5784,1.5784,1.5784,1.5784,1.5784,1.5784,1.5784,1.5784,1.5784,1.5919,1.5925,1.5784,1.5919,1.5925,1.5784,1.5784,1.5784,1.5784,1.5784,1.5784,3.0963,3.1235,3.1531,3.1977,3.2569,3.3083,3.3379,3.348,3.3473,3.3451,3.3412,3.3426,3.3387,3.3801,3.4251,3.4616,3.3351,3.2519,3.3016,3.1615,3.0537,3.0613,3.0021,0.0,0.0,0.0,0.0,0.0,0.0,0.0,0.0,2.7217,2.7403,2.7544,2.7544,2.7685,2.7991,2.8517,2.8803,2.8803,2.8045,2.7515,2.7183,2.6486,0.0,0.0,0.0,0.0,0.0,2.3642,2.3085,2.2383,2.1336,2.0885,2.0783,1.968,1.9279,1.9279,1.9279,1.9279,1.9279,1.9279,1.9191,1.903,1.8701,1.8752,1.884,1.8511,1.8277,1.8043,1.7721,1.7574,1.7508,1.7508,1.7604,1.7662,1.7538,1.7508,1.7385,1.7073,1.7099,1.7099,1.6904,1.6777,1.6697,1.6697,1.6312,1.6028,1.6028,1.6027,1.5952,1.5791,1.5925,1.5952,1.5791,1.5784,1.5784,1.5784,1.5784,1.5784,1.5784,1.5784,1.5784,1.5784,1.5784,1.5784,1.5784,1.5784,1.5784,1.5784,1.5784,1.5784,0.0,3.1281,3.1521,3.288,3.3161,3.3293,3.4062,3.3982,0.0,3.4042,3.3848,3.3665,3.3876,3.428,3.4579,3.4579,3.3563,3.2747,3.2747,3.1731,3.0847,0.0,3.0067,0.0,2.8432,0.0,0.0,0.0,0.0,0.0,0.0,2.7086,2.7588,2.8034,2.8045,2.8045,2.8045,2.8528,2.8803,2.8803,2.7704,2.7183,2.7183,2.6159,0.0,0.0,0.0,0.0,0.0,2.3144,2.2685,2.2492,2.1438,2.0987,2.0783,1.968,1.9279,1.9279,1.9279,1.9279,1.9324,1.925,1.9023,1.8694,1.8364,1.8284,1.8233,1.7911,1.7816,1.7735,1.7366,1.7574,1.7816,1.7816,1.8064,1.8211,1.7882,1.7768,1.7529,1.6786,1.6784,1.6784,1.6292,1.6211,1.6224,1.6224,1.5981,1.5784,1.5784,1.6072,1.6139,1.5811,1.6079,1.6126,1.5852,1.5784,1.5784,1.5784,1.5784,1.5784,1.5784,1.5784,1.5784,1.5784,1.5784,1.5784,1.5784,1.5784,1.5784,1.5784,1.5784,1.5784,3.0116,0.0,3.0389,3.1346,3.1695,3.1989,0.0,3.2863,3.2994,3.304,3.3449,3.3846,3.388,3.4722,3.5426,3.5426,3.4129,3.325,3.3445,3.1671,3.0217,2.9804,2.8979,2.8276,0.0,0.0,0.0,0.0,0.0,0.0,0.0,2.7773,2.8091,2.8617,2.8628,2.8628,2.8628,2.8749,2.8803,2.8803,2.7704,2.7183,2.7183,2.6159,0.0,0.0,0.0,0.0,2.5323,2.5069,2.4461,2.3642,2.2534,2.1633,2.0783,1.968,1.9279,1.9279,1.9279,1.9279,1.9235,1.8986,1.8686,1.8357,1.8028,1.8101,1.8233,1.7911,1.7816,1.7735,1.7366,1.7574,1.7816,1.7816,1.8064,1.8211,1.7882,1.7527,1.72,1.6942,1.6636,1.6386,1.6487,1.6359,1.6224,1.6224,1.5981,1.5784,1.5784,1.5892,1.5905,1.5791,1.5892,1.5905,1.5791,1.5784,1.5784,1.5784,1.5784,1.5784,1.5784,1.5784,1.5784,1.5784,1.5784,1.5784,1.5784,1.5784,1.5784,1.5784,1.5784,1.5784,2.9651,3.0122,3.0732,3.1545,3.1989,3.2406,3.3038,3.2925,3.2786,3.3063,3.3543,3.3989,3.426,3.4807,3.5345,3.5642,3.4095,3.2779,3.2671,3.1444,3.0465,3.0237,2.9409,0.0,0.0,0.0,0.0,0.0,0.0,0.0,0.0,2.7871,2.8111,2.8418,2.8429,2.8528,2.8803,2.8803,2.8803,2.8803,2.7704,2.7183,2.7183,2.6159,0.0,0.0,0.0,0.0,2.5635,2.5167,2.4599,2.3939,2.2391,2.1438,2.0783,1.968,1.9279,1.9257,1.9103,1.9052,1.9001,1.8672,1.8445,1.8211,1.7735,1.7713,1.7816,1.764,1.7589,1.7582,1.756,1.7794,1.8072,1.8225,1.8511,1.857,1.7998,1.7774,1.745,1.6612,1.6422,1.6368,1.6137,1.6069,1.6028,1.6028,1.5879,1.5879,1.6012,1.6146,1.6233,1.6233,1.6233,1.6179,1.6046,1.5905,1.5784,1.5784,1.5784,1.5784,1.5784,1.5784,1.5784,1.5784,1.5784,1.5784,1.5784,1.5784,1.5784,1.5784,1.5784,1.5784,2.9589,3.0634,3.1708,3.2199,3.2715,3.3212,3.3756,3.3234,3.2784,3.333,3.367,3.4018,3.4441,3.4714,3.5046,3.5426,3.3801,0.0,3.156,3.1184,3.0963,3.0928,3.0217,0.0,0.0,0.0,0.0,0.0,0.0,0.0,0.0,2.7696,2.7914,2.7991,2.7991,2.8265,2.8792,2.8803,2.8803,2.8803,2.7704,2.7183,2.7183,2.6159,2.5693,0.0,0.0,0.0,2.5635,2.455,2.3989,2.3642,2.1684,2.0783,2.0534,1.9628,1.9294,1.9155,1.8833,1.8716,1.8657,1.8335,1.8225,1.8116,1.7508,1.7279,1.7279,1.7279,1.7315,1.7417,1.7743,1.8094,1.8445,1.8723,1.9038,1.9008,1.8168,1.8102,1.7773,1.621,1.6299,1.638,1.5688,1.5689,1.5784,1.5784,1.5784,1.5919,1.6172,1.646,1.664,1.664,1.668,1.6587,1.6299,1.6086,1.5878,1.5791,1.5784,1.5784,1.5784,1.5784,1.5784,1.5784,1.5784,1.5784,1.5784,1.5784,1.5784,1.5784,1.5784,1.5784,2.9983,3.1267,3.2128,3.1349,3.1749,3.2377,3.2473,3.2382,3.2341,3.254,3.3271,3.3767,3.3276,3.4686,3.5616,3.4729,3.3966,3.3056,0.0,0.0,3.0862,3.0695,0.0,0.0,0.0,0.0,0.0,0.0,0.0,0.0,0.0,0.0,2.761,2.798,2.7991,2.8265,2.8792,2.8803,2.8803,2.8803,2.7704,2.7183,2.7183,2.6159,2.5693,0.0,0.0,2.5693,2.5635,2.455,2.3543,2.2634,2.1387,2.0336,1.9532,1.9376,1.9103,1.8818,1.8489,1.8379,1.8321,1.7999,1.7889,1.7816,1.7443,1.7279,1.7279,1.7279,1.7476,1.775,1.7801,1.8262,1.873,1.8774,1.8891,1.8821,1.8404,1.7844,1.7221,1.6682,1.6288,1.5978,1.5783,1.5784,1.5784,1.5784,1.5784,1.5798,1.5892,1.6159,1.6339,1.6339,1.656,1.6587,1.6299,1.6453,1.6359,1.5811,1.5784,1.5784,1.5784,1.5784,1.5784,1.5784,1.5784,1.5784,1.5784,1.5784,1.5784,1.5784,1.5784,1.5784,2.9279,3.0767,3.2005,3.1406,3.2635,3.3984,3.3984,3.3737,3.349,3.3453,3.4052,3.4304,3.3383,3.4095,3.4384,3.3159,3.3074,3.2785,3.1661,3.128,3.1081,0.0,0.0,0.0,0.0,0.0,0.0,0.0,0.0,0.0,0.0,0.0,2.7162,2.7632,2.7609,2.8003,2.8792,2.8803,2.8803,2.8803,2.7704,2.7183,2.7183,2.6159,2.5693,2.5693,0.0,2.5372,2.4756,2.3692,2.2584,2.154,2.0431,1.9732,1.9257,1.9074,1.8694,1.8262,1.8291,1.8189,1.8013,1.7867,1.7816,1.7757,1.7381,1.7279,1.7279,1.7279,1.7388,1.7589,1.7772,1.8167,1.8575,1.869,1.8687,1.8525,1.821,1.7761,1.7282,1.6799,1.6633,1.6547,1.6304,1.6172,1.6072,1.6072,1.5932,1.5885,1.6046,1.6326,1.6567,1.6777,1.6918,1.6945,1.6811,1.658,1.6359,1.6086,1.5919,1.5784,1.5784,1.5784,1.5784,1.5784,1.5784,1.5784,1.5784,1.5784,1.5784,1.5784,1.5784,1.5784,2.894,3.0343,3.1784,3.1981,3.3546,3.5103,3.5242,3.4775,3.4337,3.4413,3.4873,3.4881,3.3899,3.3677,3.336,3.2413,3.2481,3.2363,3.1439,3.135,0.0,0.0,0.0,0.0,0.0,0.0,0.0,0.0,0.0,0.0,0.0,0.0,2.6628,2.714,2.7151,2.7555,2.8453,2.8464,2.8574,2.8803,2.7704,2.7132,2.7039,2.6119,2.5635,2.5538,2.5645,2.5069,2.4029,2.2839,2.1762,2.0648,1.9529,1.9052,1.9008,1.8679,1.8247,1.7838,1.8013,1.7911,1.7699,1.7699,1.7699,1.7655,1.7359,1.7279,1.7279,1.7279,1.7333,1.7453,1.7831,1.8211,1.8503,1.861,1.8461,1.8189,1.7917,1.7661,1.735,1.6904,1.7045,1.7105,1.676,1.652,1.6353,1.6335,1.6079,1.6012,1.6295,1.6526,1.682,1.7166,1.7266,1.7273,1.7206,1.6663,1.6321,1.6321,1.5992,1.5784,1.5784,1.5784,1.5784,1.5784,1.5784,1.5784,1.5784,1.5784,1.5784,1.5784,1.5784,1.5784,2.9971,3.0944,3.1864,3.2987,3.3519,3.3891,3.4523,3.4028,3.3766,3.4655,3.5051,3.5012,3.4445,3.3981,3.3746,3.3817,3.3189,3.2363,3.1439,0.0,0.0,0.0,0.0,0.0,0.0,0.0,0.0,0.0,0.0,0.0,0.0,0.0,0.0,2.6617,2.6639,2.6868,2.7413,2.7413,2.7872,2.8803,2.7704,2.7013,2.663,2.598,2.5508,2.5137,2.5557,2.5069,2.4011,2.26,2.1419,2.0319,1.8922,1.8372,1.8335,1.8006,1.7852,1.7772,1.7447,1.7384,1.7315,1.7315,1.7315,1.7315,1.7286,1.7279,1.7279,1.7279,1.7481,1.7749,1.8085,1.8607,1.8905,1.8454,1.813,1.7882,1.7687,1.7398,1.7199,1.7172,1.7186,1.7105,1.676,1.6687,1.6587,1.6362,1.6301,1.6246,1.6321,1.6526,1.682,1.7166,1.744,1.7494,1.7226,1.6663,1.6321,1.6321,1.5992,1.5784,1.5784,1.5784,1.5784,1.5784,1.5784,1.5784,1.5784,1.5784,1.5784,1.5784,1.5784,1.5784,2.9048,3.0548,3.2,3.2378,3.3221,3.4195,3.5151,3.5131,3.5107,3.5847,3.6089,3.5928,3.5157,3.3701,3.2735,3.3096,3.2283,3.1496,0.0,0.0,0.0,0.0,0.0,0.0,0.0,0.0,0.0,0.0,0.0,0.0,0.0,0.0,0.0,2.6573,2.6584,2.6846,2.7304,2.7315,2.7501,2.7861,2.6852,2.6299,2.6144,2.5255,2.4824,2.4641,2.444,2.3593,2.2333,2.1394,2.0226,1.9056,1.8491,1.8174,1.7984,1.786,1.7684,1.7447,1.7323,1.7279,1.7279,1.7279,1.7279,1.7279,1.7279,1.7279,1.7279,1.7279,1.7613,1.7931,1.7878,1.8346,1.8639,1.8044,1.777,1.7562,1.7567,1.7177,1.6981,1.74,1.7474,1.7434,1.7268,1.7101,1.6991,1.6884,1.6556,1.6339,1.652,1.664,1.682,1.7166,1.73,1.7246,1.6901,1.6506,1.6192,1.6012,1.5892,1.5784,1.5784,1.5784,1.5784,1.5784,1.5784,1.5784,1.5784,1.5784,1.5784,1.5784,1.5784,1.5784,2.8435,3.0079,3.1729,3.2068,3.3133,3.4337,3.5443,3.5607,3.5742,3.654,3.6747,3.6496,3.5562,3.3898,0.0,0.0,3.1649,0.0,0.0,0.0,0.0,0.0,0.0,0.0,0.0,0.0,0.0,0.0,0.0,0.0,0.0,0.0,0.0,0.0,2.6398,2.6551,2.6856,2.6867,2.6867,2.6867,2.5893,2.5523,2.5668,2.4814,2.4346,2.4192,2.357,2.2619,2.1331,2.0459,1.9244,1.7991,1.7991,1.786,1.7662,1.7662,1.7523,1.7279,1.7279,1.7279,1.7279,1.7279,1.7279,1.7279,1.7279,1.7279,1.7279,1.7279,1.7707,1.804,1.7854,1.8262,1.8471,1.7774,1.7541,1.7475,1.7287,1.7032,1.6994,1.7488,1.7582,1.7582,1.7582,1.7467,1.7306,1.7213,1.6857,1.667,1.682,1.6847,1.6961,1.7306,1.7253,1.7079,1.6734,1.644,1.6146,1.5798,1.5784,1.5784,1.5784,1.5784,1.5784,1.5784,1.5784,1.5784,1.5784,1.5784,1.5784,1.5784,1.5784,1.5784,2.8373,2.9618,3.0976,3.2437,3.3273,3.4011,3.5214,3.5173,3.5254,3.6456,3.685,3.6652,3.5588,3.4607,0.0,3.2476,3.156,0.0,0.0,0.0,0.0,0.0,0.0,0.0,0.0,0.0,0.0,0.0,0.0,0.0,0.0,0.0,0.0,0.0,2.5895,0.0,2.5895,2.5895,2.5895,2.5906,2.4935,2.4736,2.5148,2.4609,2.418,2.3764,2.3233,2.236,2.128,1.9962,1.8542,1.7279,1.7279,1.7279,1.7279,1.7279,1.7279,1.7279,1.7279,1.7279,1.7279,1.7279,1.7279,1.7279,1.7279,1.7333,1.7333,1.7279,1.766,1.8087,1.8087,1.8458,1.855,1.752,1.7534,1.7613,1.6839,1.6941,1.7286,1.7522,1.7582,1.7582,1.7582,1.7582,1.7482,1.7246,1.7199,1.7199,1.7199,1.7206,1.732,1.7549,1.7373,1.7085,1.6734,1.644,1.6152,1.5804,1.5791,1.5791,1.5784,1.5784,1.5791,1.5791,1.5791,1.5784,1.5784,1.5784,1.5784,1.5784,1.5784,1.5784,2.7974,2.9554,3.118,3.2062,3.3547,3.491,3.5569,3.5635,3.5795,3.6707,3.5859,3.5034,3.5292,3.3537,0.0,3.203,0.0,0.0,0.0,0.0,0.0,0.0,0.0,0.0,0.0,0.0,0.0,0.0,0.0,0.0,0.0,0.0,0.0,0.0,0.0,0.0,2.5895,2.5895,2.5895,2.5906,2.4935,2.456,2.4662,2.3845,2.3403,2.3217,2.1924,2.1046,2.0428,1.866,1.7688,1.7279,1.7279,1.7279,1.7279,1.7279,1.7279,1.7279,1.7279,1.7279,1.7326,1.7527,1.7574,1.7574,1.7574,1.7714,1.7753,1.7246,1.7441,1.7721,1.7394,1.7527,1.7652,1.7372,1.7289,1.712,1.679,1.6941,1.7286,1.7522,1.7582,1.7582,1.7582,1.7582,1.7555,1.7468,1.7333,1.7199,1.7199,1.738,1.7488,1.7569,1.7373,1.7166,1.7072,1.6747,1.654,1.6453,1.6446,1.6353,1.6152,1.6139,1.6239,1.644,1.6246,1.6139,1.6139,1.5932,1.5784,1.5784,1.5784,1.5784,2.7936,2.978,3.1616,3.2621,3.4236,3.5686,3.6165,3.6227,3.6325,3.6869,3.5782,3.4701,3.4606,3.288,0.0,0.0,0.0,0.0,0.0,0.0,0.0,0.0,0.0,0.0,0.0,0.0,0.0,0.0,0.0,0.0,0.0,0.0,0.0,0.0,0.0,0.0,2.5895,2.5895,2.5895,2.5906,2.4935,2.4498,2.4456,2.3517,2.3091,2.3013,2.1255,1.9941,1.8964,1.7785,1.7279,1.7279,1.7279,1.7279,1.7279,1.7279,1.7279,1.7279,1.7279,1.7279,1.7333,1.7628,1.7675,1.7721,1.7815,1.7947,1.7947,1.7293,1.7394,1.7589,1.712,1.7012,1.7005,1.7005,1.7103,1.7127,1.6767,1.7027,1.7427,1.7549,1.7582,1.7582,1.7582,1.7582,1.7582,1.7582,1.7435,1.7373,1.7373,1.7475,1.7582,1.7582,1.7373,1.7199,1.7199,1.6874,1.6707,1.6707,1.6707,1.668,1.6677,1.6506,1.6526,1.67,1.6533,1.6446,1.644,1.6152,1.6005,1.6005,1.5838,1.5784,2.8101,3.0037,3.1977,3.3486,3.4972,3.6214,3.6852,3.6808,3.6716,3.694,3.62,3.5103,3.3738,3.2533,3.122,0.0,0.0,0.0,0.0,0.0,0.0,0.0,0.0,0.0,0.0,0.0,0.0,0.0,0.0,0.0,0.0,0.0,0.0,0.0,0.0,0.0,2.5895,2.5895,2.5895,0.0,2.4935,2.4498,2.4456,2.3517,2.3003,2.2731,2.0872,1.901,1.7279,1.7279,1.7279,1.7279,1.7279,1.7279,1.7279,1.7279,1.7279,1.7279,1.7326,1.7333,1.738,1.7675,1.7768,1.7815,1.804,1.8133,1.804,1.7426,1.7481,1.7535,1.7026,1.669,1.6541,1.6541,1.7009,1.7306,1.6807,1.7168,1.7582,1.7582,1.7582,1.7582,1.7582,1.7582,1.7582,1.7582,1.7582,1.7582,1.7582,1.7582,1.7582,1.7582,1.74,1.7239,1.7239,1.6941,1.6787,1.6787,1.6787,1.6907,1.7226,1.6907,1.676,1.6787,1.676,1.6747,1.6747,1.6426,1.6321,1.6315,1.5965,1.5784,2.7804,2.9114,3.0573,3.2385,3.4338,3.5998,3.6819,3.6613,3.6378,3.688,3.5393,3.3832,3.3364,3.1787,0.0,0.0,0.0,0.0,0.0,0.0,0.0,0.0,0.0,0.0,0.0,0.0,0.0,0.0,0.0,0.0,0.0,0.0,0.0,0.0,0.0,2.5895,2.5895,2.5895,2.5895,0.0,2.4935,2.4498,2.4456,2.3517,2.2271,2.0773,1.9604,1.8419,1.7279,1.7279,1.7279,1.7279,1.7279,1.7279,1.7279,1.7279,1.7279,1.7326,1.7527,1.7628,1.7675,1.8148,1.8342,1.8342,1.8388,1.8512,1.8411,1.7347,1.72,1.7192,1.6305,1.6021,1.5974,1.5974,1.6419,1.6857,1.6707,1.7168,1.7582,1.7582,1.7582,1.7582,1.7582,1.7582,1.7582,1.7582,1.7582,1.7582,1.7582,1.7582,1.7582,1.7582,1.7528,1.7488,1.7488,1.7428,1.7395,1.7395,1.7395,1.7422,1.7482,1.7259,1.7213,1.7388,1.7219,1.7105,1.7105,1.6576,1.6321,1.6315,1.5965,1.5784,2.7517,2.8959,3.0656,3.2809,3.4215,3.5197,3.5778,3.5345,3.5008,3.5452,3.4558,3.3416,3.2673,0.0,0.0,0.0,0.0,0.0,0.0,0.0,0.0,0.0,0.0,0.0,0.0,0.0,0.0,0.0,0.0,0.0,0.0,2.5895,0.0,0.0,2.5895,2.5895,2.5895,2.5895,2.5895,2.5895,2.52,2.4594,2.4122,2.294,2.1596,2.0141,1.9201,1.8241,1.7279,1.7279,1.7279,1.7279,1.7279,1.7279,1.7279,1.7279,1.7279,1.7333,1.7481,1.7581,1.7768,1.8187,1.8388,1.8527,1.8612,1.8697,1.855,1.7481,1.7239,1.7091,1.6062,1.5784,1.5784,1.5784,1.6279,1.6707,1.6707,1.7168,1.7582,1.7582,1.7582,1.7582,1.7582,1.7582,1.7582,1.7582,1.7582,1.7582,1.7582,1.7582,1.7582,1.7582,1.7582,1.7582,1.7582,1.7582,1.7582,1.7582,1.7582,1.7582,1.7582,1.7494,1.7481,1.7582,1.7435,1.7407,1.7407,1.6767,1.648,1.6473,1.6032,1.5784,2.7055,2.8964,3.105,3.3372,3.3955,3.4031,3.4406,3.3821,3.3304,3.3555,3.3538,3.307,3.1836,0.0,0.0,0.0,0.0,0.0,0.0,0.0,0.0,0.0,0.0,0.0,0.0,0.0,0.0,0.0,0.0,0.0,2.5895,0.0,2.5895,2.5895,2.5895,2.5895,2.5895,2.5895,2.5895,2.5895,2.5327,2.4551,2.3527,2.2094,2.1006,2.0141,1.901,1.8056,1.7279,1.7279,1.7279,1.7279,1.7279,1.7279,1.7279,1.7279,1.7279,1.7333,1.7333,1.7527,1.7815,1.8087,1.8326,1.8566,1.8643,1.8689,1.8458,1.7473,1.7185,1.6958,1.6062,1.5784,1.5798,1.5892,1.6313,1.6707,1.6707,1.7168,1.7582,1.7582,1.7582,1.7582,1.7582,1.7582,1.7582,1.7582,1.7582,1.7582,1.7582,1.7582,1.7582,1.7582,1.7582,1.7582,1.7582,1.7582,1.7582,1.7582,1.7582,1.7582,1.7582,1.7582,1.7582,1.7582,1.7582,1.7582,1.7582,1.7041,1.676,1.6693,1.6152,1.5879,2.6004,2.8303,3.054,3.2102,3.2474,3.2698,3.347,3.2804,3.2031,0.0,3.2093,3.1797,0.0,0.0,0.0,0.0,0.0,0.0,0.0,0.0,0.0,0.0,0.0,0.0,0.0,0.0,0.0,0.0,0.0,0.0,2.5937,2.5895,2.5895,2.5895,2.5895,2.5895,2.5895,2.5895,2.5895,2.5906,2.502,2.3887,2.2536,2.1087,2.0322,2.0096,1.8288,1.7419,1.7279,1.7279,1.7279,1.7279,1.7279,1.7279,1.7279,1.7279,1.7279,1.7326,1.7574,1.7807,1.8087,1.8381,1.8612,1.8697,1.8319,1.8179,1.7986,1.6958,1.6676,1.6581,1.5967,1.5784,1.5844,1.6152,1.6466,1.6707,1.6707,1.7168,1.7582,1.7582,1.7582,1.7582,1.7582,1.7582,1.7582,1.7582,1.7582,1.7582,1.7582,1.7582,1.7582,1.7582,1.7582,1.7582,1.7582,1.7582,1.7582,1.7582,1.7582,1.7582,1.7582,1.7582,1.7582,1.7582,1.7582,1.7582,1.7582,1.73,1.6954,1.67,1.6366,1.6079,2.537,2.7399,2.9129,3.035,3.0809,3.1141,3.1703,3.1099,3.0432,3.0573,3.025,0.0,0.0,0.0,0.0,0.0,0.0,0.0,0.0,0.0,0.0,0.0,0.0,0.0,0.0,0.0,0.0,0.0,0.0,2.6332,2.5937,2.5895,2.5895,2.5895,2.5895,2.5764,2.5491,2.5491,2.5491,2.5502,2.4809,2.392,2.2717,2.0855,1.9774,1.933,1.7924,1.7279,1.7279,1.7279,1.7279,1.7279,1.7279,1.7279,1.7279,1.7279,1.7279,1.7333,1.7628,1.7861,1.8133,1.8427,1.8658,1.8689,1.8226,1.8087,1.7893,1.6864,1.6588,1.6494,1.5927,1.5927,1.6103,1.6455,1.6845,1.7205,1.7376,1.754,1.7582,1.7582,1.7582,1.7528,1.742,1.7393,1.7393,1.7393,1.7393,1.7454,1.7562,1.7582,1.7582,1.7582,1.7582,1.7582,1.7582,1.7582,1.7582,1.7582,1.7582,1.7582,1.7582,1.7582,1.7582,1.7582,1.7582,1.7582,1.7582,1.734,1.7052,1.67,1.6406,1.6112,2.443,2.6232,2.7603,2.8868,2.9439,2.977,3.0128,2.9618,2.9141,0.0,2.8922,0.0,0.0,0.0,0.0,0.0,0.0,0.0,0.0,0.0,0.0,0.0,0.0,0.0,0.0,0.0,0.0,0.0,0.0,2.6456,2.5937,2.5786,2.571,2.571,2.5611,2.5371,2.504,2.515,2.5188,2.5185,2.4492,2.3537,2.2351,2.0316,1.8986,1.817,1.7488,1.7208,1.7216,1.725,1.7279,1.7279,1.7279,1.7279,1.7279,1.7279,1.7333,1.7426,1.7628,1.7908,1.8234,1.8435,1.8566,1.855,1.804,1.78,1.752,1.6629,1.64,1.6305,1.5974,1.6028,1.632,1.6703,1.7105,1.7517,1.79,1.7791,1.758,1.7527,1.7408,1.7288,1.7125,1.7092,1.7112,1.7192,1.7199,1.7306,1.7549,1.7582,1.7582,1.7582,1.7582,1.7582,1.7582,1.7582,1.7582,1.7582,1.7582,1.7582,1.7582,1.7582,1.7582,1.7582,1.7582,1.7582,1.7582,1.742,1.7068,1.67,1.648,1.6226,2.2994,2.4544,2.6205,2.8151,2.8631,2.8715,2.9224,2.8948,2.8546,2.855,0.0,0.0,0.0,0.0,0.0,0.0,0.0,0.0,0.0,0.0,0.0,0.0,0.0,0.0,0.0,0.0,0.0,0.0,0.0,2.6775,2.5948,2.5459,2.5248,2.5248,2.4792,2.4552,2.453,2.4996,2.5187,2.5158,2.3803,2.2278,2.0569,1.9057,1.7697,1.6522,1.6793,1.6925,1.6947,1.7208,1.7279,1.7279,1.7279,1.7279,1.7279,1.7279,1.7481,1.7675,1.7675,1.8055,1.8481,1.8481,1.8334,1.804,1.7512,1.7052,1.6581,1.6015,1.5825,1.5879,1.6123,1.6177,1.6375,1.6956,1.7107,1.7278,1.7866,1.7784,1.7541,1.7277,1.6947,1.6747,1.6734,1.6727,1.682,1.7159,1.7199,1.7306,1.7549,1.7582,1.7582,1.7582,1.7582,1.7582,1.7582,1.7582,1.7582,1.7582,1.7582,1.7582,1.7582,1.7582,1.7582,1.7582,1.7582,1.7582,1.7582,1.7569,1.7268,1.6707,1.6693,1.6526,2.0557,2.1987,2.3549,2.4876,2.5919,2.6857,2.7711,2.7929,2.8005,2.8005,0.0,0.0,0.0,0.0,0.0,0.0,0.0,0.0,0.0,0.0,0.0,0.0,0.0,0.0,0.0,0.0,0.0,0.0,0.0,0.0,2.5467,2.4989,2.4738,2.4738,2.4574,2.4486,2.4486,2.436,2.4298,2.4285,2.2964,2.1536,1.9977,1.8417,1.711,1.6082,1.6206,1.6484,1.691,1.702,1.7143,1.7279,1.7279,1.7279,1.7326,1.7481,1.7628,1.7768,1.8102,1.8342,1.8527,1.8658,1.8651,1.8411,1.7761,1.734,1.6911,1.6258,1.6076,1.6076,1.6177,1.6461,1.6852,1.7471,1.7666,1.7666,1.774,1.7544,1.7255,1.6951,1.678,1.6647,1.646,1.6426,1.6466,1.6623,1.6747,1.6974,1.732,1.7468,1.7582,1.7582,1.7582,1.7582,1.7582,1.7582,1.7582,1.7582,1.7582,1.7582,1.7582,1.7582,1.7582,1.7582,1.7582,1.7582,1.7582,1.7582,1.7382,1.7038,1.6794,1.6553,1.8829,2.0026,2.1415,2.2988,2.3942,2.4897,2.6605,2.6968,2.7052,2.7436,0.0,0.0,0.0,0.0,0.0,0.0,0.0,0.0,0.0,0.0,0.0,0.0,0.0,0.0,0.0,0.0,0.0,0.0,0.0,0.0,2.5226,2.4738,2.4334,2.4006,2.3995,2.4071,2.4235,2.3792,2.3578,2.3596,2.1964,2.0565,1.9326,1.7665,1.6472,1.571,1.571,1.6052,1.655,1.6697,1.6879,1.7172,1.7172,1.723,1.7326,1.7621,1.7768,1.7908,1.8342,1.8527,1.8612,1.8743,1.8643,1.8319,1.7761,1.7333,1.6958,1.6359,1.6265,1.6359,1.6461,1.6804,1.7221,1.7534,1.7673,1.7612,1.7261,1.7062,1.6951,1.665,1.648,1.6346,1.6159,1.6126,1.6159,1.6259,1.652,1.6814,1.7166,1.7454,1.7582,1.7582,1.7582,1.7582,1.7582,1.7582,1.7582,1.7582,1.7582,1.7582,1.7582,1.7582,1.7582,1.7582,1.7582,1.7582,1.7582,1.7582,1.7382,1.7045,1.68,1.6553,0.0,0.0,0.0,2.2724,2.2783,2.2929,2.5947,0.0,2.5627,2.6788,0.0,0.0,0.0,0.0,0.0,0.0,0.0,0.0,0.0,0.0,0.0,0.0,0.0,0.0,0.0,0.0,0.0,0.0,0.0,2.6076,2.5215,2.4705,2.4006,2.3034,2.3001,2.323,2.3684,2.3309,2.3113,2.3163,2.0866,1.9351,1.8528,1.673,1.5731,1.5389,1.5389,1.5564,1.5921,1.6228,1.6587,1.6888,1.6888,1.7033,1.7318,1.7606,1.7846,1.8133,1.8435,1.8658,1.8781,1.8781,1.8319,1.7675,1.738,1.6958,1.6541,1.6272,1.6407,1.6683,1.6932,1.7237,1.7414,1.7065,1.71,1.7018,1.6449,1.6516,1.6614,1.6357,1.6025,1.5784,1.5784,1.5784,1.5925,1.6219,1.6513,1.6807,1.7146,1.7454,1.7582,1.7582,1.7582,1.7582,1.7582,1.7582,1.7582,1.7582,1.7582,1.7582,1.7582,1.7582,1.7582,1.7582,1.7575,1.7569,1.7569,1.7569,1.7275,1.6714,1.67,1.6533,1.6401,0.0,0.0,0.0,0.0,0.0,0.0,0.0,2.3108,2.4729,0.0,0.0,0.0,0.0,0.0,0.0,0.0,0.0,0.0,0.0,0.0,0.0,0.0,0.0,0.0,0.0,0.0,0.0,2.5687,2.4934,2.4723,2.3875,2.3285,2.3012,2.3001,2.323,2.3684,2.2949,2.261,2.2656,2.014,1.8668,1.8111,1.6334,1.5469,1.5389,1.5389,1.544,1.5542,1.5906,1.6221,1.6551,1.6551,1.6839,1.7271,1.7538,1.7926,1.8427,1.8651,1.8735,1.8781,1.8781,1.8411,1.7947,1.7667,1.7153,1.6588,1.6494,1.6541,1.6676,1.7099,1.7313,1.735,1.7057,1.6939,1.6726,1.6362,1.6154,1.6054,1.5952,1.5838,1.5784,1.5784,1.5784,1.5811,1.5939,1.638,1.6734,1.682,1.7268,1.7582,1.7582,1.7582,1.7582,1.7582,1.7582,1.7582,1.7582,1.7582,1.7582,1.7582,1.7582,1.7582,1.7582,1.7427,1.732,1.732,1.732,1.7233,1.7065,1.6587,1.6233,1.5719,1.6161,1.6813,1.7868,0.0,0.0,2.1145,2.1271,0.0,0.0,0.0,0.0,0.0,0.0,0.0,0.0,0.0,0.0,0.0,0.0,0.0,0.0,0.0,0.0,0.0,0.0,0.0,0.0,2.5617,2.4902,2.4508,2.3547,2.3001,2.3001,2.3001,2.3143,2.3427,2.2576,2.219,2.218,1.9604,1.8252,1.7957,1.6188,1.5389,1.5389,1.5389,1.5389,1.5403,1.5593,1.5899,1.6177,1.63,1.6595,1.7019,1.7369,1.7816,1.8255,1.8522,1.8654,1.8781,1.8781,1.8411,1.79,1.7621,1.7153,1.673,1.6636,1.6723,1.6958,1.7232,1.7344,1.7312,1.7081,1.6911,1.6732,1.636,1.6102,1.5927,1.5825,1.5784,1.5784,1.5784,1.5784,1.5784,1.5784,1.6326,1.6707,1.6707,1.7215,1.7582,1.7582,1.7582,1.7582,1.7582,1.7521,1.7507,1.7575,1.7521,1.7455,1.7582,1.7582,1.7522,1.746,1.7286,1.7079,1.6837,1.6958,1.6951,1.6831,1.6482,1.6112,1.5712,1.5836,1.623,1.7743,1.7487,0.0,2.0381,2.0208,1.9999,0.0,0.0,0.0,0.0,0.0,0.0,0.0,0.0,0.0,0.0,0.0,0.0,0.0,0.0,0.0,0.0,2.7165,2.6783,2.6456,2.6049,2.5404,2.4454,2.3558,2.3056,2.3001,2.3001,2.3001,2.3001,2.2214,2.1807,2.1769,1.9225,1.7997,1.7957,1.6188,1.5389,1.5389,1.5389,1.5389,1.5389,1.5423,1.5599,1.5898,1.6054,1.6376,1.6763,1.7201,1.7617,1.7989,1.8213,1.8488,1.8781,1.8735,1.8226,1.7628,1.7333,1.7106,1.6925,1.6683,1.6958,1.7279,1.7279,1.7363,1.7323,1.7044,1.6989,1.6821,1.6327,1.6177,1.6076,1.5832,1.5784,1.5784,1.5784,1.5784,1.5784,1.5784,1.6299,1.6667,1.67,1.7161,1.7495,1.7528,1.7508,1.7482,1.7482,1.73,1.7259,1.7468,1.7293,1.7266,1.7475,1.7482,1.7361,1.7159,1.7119,1.6831,1.6274,1.6513,1.6506,1.6226,1.6226,1.6079,1.6163,1.6292,1.6388,1.6456,1.6441,0.0,1.7282,1.7193,1.7513,0.0,0.0,0.0,0.0,0.0,0.0,0.0,0.0,0.0,0.0,0.0,0.0,0.0,0.0,0.0,0.0,2.7282,2.6903,2.6085,2.5576,2.4891,2.3891,2.3651,2.3405,2.3012,2.3001,2.3001,2.3001,2.2214,2.1807,2.1769,1.9225,1.7997,1.7957,1.6188,1.5389,1.5389,1.5389,1.5389,1.5431,1.5575,1.5695,1.5755,1.5789,1.6243,1.6889,1.6966,1.7537,1.8213,1.8303,1.8405,1.852,1.8319,1.7854,1.7333,1.7113,1.6878,1.673,1.6878,1.7106,1.7279,1.7279,1.733,1.7272,1.7041,1.6826,1.6611,1.6279,1.6028,1.5879,1.5832,1.5784,1.5784,1.5784,1.5784,1.5784,1.5784,1.6132,1.644,1.6673,1.6807,1.6967,1.7259,1.7021,1.6881,1.6881,1.682,1.6814,1.6874,1.682,1.6814,1.6874,1.6881,1.6847,1.6794,1.6616,1.6273,1.5919,1.6213,1.6206,1.5912,1.5912,1.5838,1.6234,1.6311,1.6387,1.642,0.0,0.0,0.0,1.6399,1.6601,1.8022,1.8182,0.0,0.0,0.0,0.0,0.0,0.0,0.0,0.0,0.0,0.0,0.0,0.0,0.0,0.0,2.6774,2.6495,2.5959,2.5448,2.4996,2.4476,2.3956,2.3575,2.3372,2.3121,2.3001,2.3001,2.2214,2.1596,2.1106,1.9027,1.7755,1.731,1.5989,1.5389,1.5389,1.5389,1.5465,1.5541,1.5658,1.5858,1.6064,1.6064,1.6296,1.6651,1.6742,1.7352,1.8033,1.7908,1.8128,1.8481,1.8187,1.7667,1.7153,1.7153,1.6972,1.6831,1.7059,1.7239,1.7279,1.7279,1.7279,1.7286,1.7153,1.7059,1.6864,1.6494,1.6305,1.6109,1.5825,1.5784,1.5784,1.5784,1.5784,1.5784,1.5784,1.6079,1.6326,1.6473,1.6613,1.676,1.6914,1.6794,1.6707,1.6707,1.6573,1.6553,1.6693,1.6567,1.6553,1.67,1.6707,1.664,1.6493,1.6199,1.5979,1.5784,1.5979,1.5972,1.5784,1.5784,1.5784,0.0,0.0,1.6313,0.0,0.0,1.6055,0.0,0.0,0.0,1.6953,0.0,0.0,0.0,0.0,0.0,0.0,0.0,0.0,0.0,0.0,0.0,0.0,0.0,0.0,0.0,2.6076,2.6063,2.5895,2.5535,2.5314,2.5215,2.4344,2.3793,2.3694,2.3252,2.2964,2.2889,2.2138,2.1318,2.0391,1.874,1.7553,1.6657,1.579,1.5389,1.5389,1.5423,1.5541,1.5692,1.5816,1.6064,1.6394,1.6394,1.6435,1.6476,1.6648,1.7135,1.7676,1.7415,1.7743,1.828,1.7949,1.7483,1.7026,1.72,1.7153,1.7113,1.7239,1.7279,1.7279,1.7279,1.7279,1.7279,1.7279,1.7286,1.7145,1.6777,1.6588,1.64,1.5974,1.5832,1.5784,1.5784,1.5784,1.5784,1.5784,1.6032,1.6206,1.6315,1.6426,1.656,1.6613,1.6573,1.654,1.654,1.6319,1.6286,1.652,1.6319,1.6293,1.6526,1.654,1.6426,1.6192,1.5952,1.5784,1.5784,1.5784,1.5784,1.5784,1.5784,1.5784,0.0,0.0,0.0,0.0,1.5789,0.0,0.0,0.0,1.561,1.5705,0.0,0.0,0.0,0.0,0.0,0.0,0.0,0.0,0.0,0.0,0.0,0.0,0.0,0.0,0.0,0.0,0.0,2.5895,2.5852,2.5633,2.5237,2.4683,2.4203,2.3705,2.3252,2.2815,2.2478,2.2025,2.1165,1.9933,1.863,1.7553,1.6657,1.579,1.5389,1.5431,1.5575,1.5692,1.5733,1.6147,1.6353,1.6394,1.6394,1.6517,1.6648,1.6689,1.6984,1.7334,1.7063,1.7291,1.7636,1.7182,1.7021,1.6979,1.7026,1.7153,1.7286,1.7279,1.7279,1.7279,1.7279,1.7279,1.7279,1.7279,1.7153,1.7026,1.6979,1.6602,1.6218,1.6177,1.5974,1.5784,1.5784,1.5784,1.5784,1.5784,1.5811,1.5972,1.6239,1.6072,1.6032,1.6293,1.6086,1.5878,1.5878,1.5851,1.5844,1.5878,1.5851,1.5844,1.5878,1.5878,1.5912,1.5879,1.5798,1.5784,1.5784,1.5784,1.5784,1.5784,1.5784,1.5784,0.0,0.0,0.0,0.0,0.0,0.0,1.5141,0.0,1.5025,0.0,0.0,0.0,0.0,0.0,0.0,0.0,0.0,0.0,0.0,0.0,0.0,0.0,0.0,0.0,0.0,0.0,0.0,0.0,0.0,2.542,2.5611,2.5142,2.4661,2.4181,2.3448,2.2831,2.2402,2.128,2.0168,1.9128,1.7859,1.6788,1.594,1.559,1.5389,1.5431,1.5616,1.5782,1.5955,1.6278,1.6229,1.6023,1.6154,1.6409,1.6648,1.627,1.6536,1.7008,1.6618,1.6758,1.7063,1.661,1.667,1.6914,1.6821,1.7012,1.7279,1.7279,1.7279,1.7279,1.7279,1.7279,1.7279,1.7279,1.7239,1.716,1.7026,1.6838,1.6555,1.6272,1.6123,1.5974,1.5832,1.5784,1.5784,1.5784,1.5784,1.5872,1.5999,1.5905,1.5831,1.6005,1.5905,1.5784,1.5784,1.5784,1.5784,1.5784,1.5784,1.5784,1.5784,1.5784,1.5784,1.5784,1.5784,1.5784,1.5784,1.5784,1.5784,1.5784,1.5784,1.5784,1.6392,0.0,0.0,0.0,0.0,0.0,0.0,0.0,0.0,0.0,0.0,0.0,0.0,0.0,0.0,0.0,0.0,0.0,0.0,0.0,0.0,0.0,0.0,0.0,0.0,0.0,0.0,0.0,0.0,0.0,2.4914,2.4867,2.453,2.3897,2.3399,2.2717,2.189,2.0556,1.9295,1.8083,1.7131,1.6221,1.5389,1.5389,1.5423,1.5506,1.5699,1.5948,1.6203,1.636,1.6147,1.5824,1.5873,1.6113,1.636,1.5858,1.6099,1.6607,1.6219,1.6333,1.6662,1.6301,1.655,1.698,1.6753,1.7005,1.7279,1.7279,1.7279,1.7279,1.7279,1.7279,1.7279,1.7279,1.7279,1.7239,1.7106,1.7019,1.6838,1.6407,1.6265,1.615,1.5986,1.5838,1.5784,1.5784,1.5784,1.5784,1.5784,1.5784,1.5784,1.5784,1.5784,1.5784,1.5784,1.5784,1.5784,1.5784,1.5784,1.5784,1.5784,1.5784,1.5784,1.5784,1.5784,1.5784,1.5784,1.5784,1.5784,1.5784,1.5784,1.5784,0.0,0.0,0.0,1.5736,0.0,0.0,0.0,0.0,1.5173,0.0,0.0,0.0,0.0,0.0,1.5585,1.5311,0.0,0.0,0.0,0.0,0.0,0.0,0.0,0.0,0.0,0.0,0.0,0.0,0.0,0.0,2.2513,2.3348,2.3381,2.2402,2.2845,2.2281,2.0585,2.0129,1.8859,1.678,1.6739,1.6221,1.5389,1.5389,1.5506,1.5692,1.5955,1.6203,1.6394,1.6394,1.6278,1.6046,1.5609,1.5567,1.5733,1.5692,1.5873,1.6102,1.5797,1.6004,1.6426,1.649,1.6839,1.7271,1.7066,1.7106,1.7279,1.7279,1.7279,1.7279,1.7279,1.7279,1.7279,1.7279,1.7279,1.7279,1.7286,1.716,1.6932,1.6636,1.6359,1.6218,1.6261,1.6019,1.5784,1.5784,1.5784,1.5784,1.5784,1.5784,1.5784,1.5784,1.5784,1.5784,1.5784,1.5784,1.5784,1.5784,1.5784,1.5784,1.5784,1.5784,1.5784,1.5784,1.5784,1.5784,1.5784,1.5784,1.5784,1.5784,1.5784,1.5784,0.0,0.0,1.4622,1.4818,0.0,0.0,0.0,0.0,0.0,0.0,0.0,0.0,0.0,0.0,1.3427,1.3292,1.4021,1.4643,0.0,0.0,0.0,0.0,0.0,0.0,0.0,0.0,0.0,0.0,0.0,0.0,0.0,2.217,2.1945,2.1065,2.0974,2.0373,1.9237,1.8292,1.7415,1.6698,1.5876,1.5412,1.5249,1.5042,1.5097,1.5364,1.5663,1.5833,1.594,1.594,1.5741,1.5423,1.5249,1.5117,1.5068,1.5242,1.5541,1.5782,1.5582,1.5744,1.6075,1.6136,1.6581,1.7009,1.7008,1.716,1.7279,1.7279,1.7279,1.7279,1.7279,1.7279,1.7279,1.7279,1.7279,1.7279,1.7279,1.7239,1.7116,1.6895,1.6793,1.6636,1.6357,1.6186,1.6119,1.6119,1.5952,1.5784,1.5784,1.5784,1.5784,1.5784,1.5784,1.5784,1.5784,1.5784,1.5784,1.5784,1.5784,1.5784,1.5784,1.5784,1.5784,1.5784,1.5784,1.5784,1.5784,1.5784,1.5784,1.5784,1.5784,1.5784,1.419,1.4075,0.0,1.4223,1.3967,0.0,1.3886,0.0,0.0,0.0,0.0,0.0,0.0,0.0,1.2581,1.2301,1.3028,1.3698,0.0,1.486,0.0,0.0,0.0,0.0,0.0,0.0,1.8659,1.9583,0.0,0.0,0.0,0.0,2.0651,1.968,1.9765,1.9267,1.8164,1.7172,1.6472,1.6036,1.5345,1.4988,1.5021,1.4788,1.4881,1.5195,1.5403,1.5577,1.5658,1.5688,1.5492,1.5208,1.5215,1.5048,1.4866,1.5048,1.5291,1.5575,1.5423,1.5716,1.6067,1.6139,1.6532,1.7062,1.7095,1.72,1.7279,1.7279,1.7279,1.7279,1.7279,1.7279,1.7279,1.7279,1.7279,1.7279,1.7279,1.7279,1.7203,1.6936,1.6911,1.6877,1.6505,1.6426,1.6353,1.6146,1.5952,1.5784,1.5784,1.5784,1.5784,1.5784,1.5784,1.5784,1.5784,1.5784,1.5784,1.5784,1.5784,1.5784,1.5784,1.5784,1.5784,1.5784,1.5784,1.5784,1.5784,1.5784,1.5784,1.5784,1.5784,1.5784]}]]